ECMWFFLT2_925_spd_066.txt.gz
Wind_Speed
9 9 8 6 6 5 5 4 4 4 5 5 6 6 8 9 10 11 11 11 9 8 8 8 7 8 8 8 9 9 9 9 9 9 9 10 10 10 11 12 13 12 12 13 14 15 15 16 19 21 23 23
11 11 11 9 9 8 7 7 6 6 6 6 7 7 7 8 9 10 10 11 10 10 10 9 9 8 6 7 9 9 9 9 9 9 9 10 10 10 11 12 13 13 13 13 14 15 15 16 19 21 21 22
13 13 13 12 11 11 10 10 9 8 8 8 8 8 8 8 9 9 9 10 11 11 11 11 11 9 7 7 9 10 10 10 10 10 10 10 10 10 10 12 12 14 15 15 15 15 15 16 19 21 20 21
15 15 15 14 13 13 12 12 12 11 10 10 10 9 9 9 10 10 10 10 10 11 12 12 13 12 10 8 9 10 10 10 10 9 10 11 10 9 10 11 13 15 17 17 16 16 17 17 20 21 20 21
17 17 17 16 16 15 14 14 14 13 12 12 12 11 11 11 12 12 12 12 12 12 12 12 13 12 11 9 8 9 9 9 9 9 10 11 9 9 9 10 14 17 18 17 17 17 18 19 20 21 22 22
19 19 18 18 18 17 16 15 15 15 14 14 14 13 13 14 14 14 14 14 13 14 13 13 12 11 11 10 9 9 9 9 9 9 10 10 9 9 10 13 16 17 17 17 18 18 19 20 21 22 23 24
20 20 20 20 20 18 18 17 17 17 16 16 16 16 16 15 16 16 16 16 15 15 15 14 12 11 11 10 10 10 11 11 11 11 11 11 10 11 13 16 16 16 17 18 19 20 21 22 22 23 23 24
21 21 21 21 21 20 19 19 19 19 18 18 18 17 17 17 17 18 17 17 17 17 16 15 14 13 12 11 10 10 12 13 13 13 14 13 12 13 15 16 16 16 17 18 19 20 21 23 23 24 24 25
22 22 22 22 22 22 21 21 21 20 20 19 19 19 18 18 19 19 19 19 18 18 18 17 17 16 15 14 13 12 13 13 14 15 15 15 14 15 16 16 16 16 17 18 19 21 22 23 24 24 25 24
22 22 23 23 23 23 23 22 22 21 21 21 21 20 20 19 20 20 20 20 20 19 19 19 19 18 17 17 15 14 14 14 14 15 15 15 16 16 17 17 17 17 18 20 21 22 23 24 24 24 24 23
22 23 24 24 23 24 24 24 23 23 23 23 22 22 21 21 22 22 21 22 21 21 20 20 20 19 19 18 17 16 16 16 14 14 15 16 17 17 18 18 18 18 19 21 22 23 24 24 24 23 22 22
22 23 23 24 24 25 25 24 24 24 24 24 23 23 23 23 23 23 23 23 23 22 21 22 21 21 20 20 19 17 17 17 15 15 14 16 17 18 19 20 20 20 21 22 22 24 25 24 22 22 21 21
22 22 23 24 25 25 25 25 25 25 24 24 24 24 24 24 24 24 24 24 24 23 23 23 22 22 22 21 20 19 18 17 17 16 16 16 18 19 20 21 21 22 23 23 23 24 23 22 22 22 22 22
22 22 23 24 25 25 25 25 26 25 25 25 25 25 25 25 25 25 25 25 25 24 25 24 24 23 23 23 22 21 20 18 18 18 18 18 19 21 22 22 22 22 24 24 24 22 22 23 23 23 22 22
21 22 23 24 25 25 25 26 25 25 25 25 25 26 26 26 26 26 25 26 26 26 26 25 25 25 24 25 24 22 21 20 18 19 19 20 21 22 23 23 23 23 24 25 23 22 22 24 24 23 23 25
21 22 23 24 24 25 25 25 25 25 25 25 26 26 26 26 26 26 26 27 27 27 27 27 26 26 26 26 25 23 22 21 20 19 20 20 21 22 23 24 24 24 25 25 23 23 24 25 25 25 26 27
19 21 23 24 24 25 25 25 25 25 25 26 26 26 26 26 26 26 27 27 28 27 27 28 27 28 28 27 26 25 23 23 22 21 20 21 21 22 24 25 26 25 24 24 25 25 25 25 26 26 27 29
17 18 20 21 23 24 24 24 24 24 25 25 25 25 26 26 26 27 27 28 28 28 28 28 29 29 30 29 27 26 25 24 24 22 22 22 22 23 24 25 26 25 25 26 27 27 26 25 26 27 28 29
17 18 19 20 21 21 23 23 23 23 24 25 25 25 25 25 26 27 27 28 28 28 29 29 30 31 31 30 28 27 26 25 25 24 24 23 23 25 25 26 27 26 27 28 28 27 27 27 27 27 28 30
16 17 18 19 20 20 21 21 21 22 23 23 23 24 24 25 26 27 28 28 28 29 30 30 31 32 31 30 28 28 27 27 27 26 25 25 24 26 27 27 28 29 29 29 29 29 28 28 28 28 30 31
17 16 17 18 19 19 19 19 20 21 22 22 23 23 24 25 26 27 28 28 29 29 30 31 32 32 31 30 29 29 28 28 28 27 26 27 26 26 27 28 30 31 30 29 30 30 30 30 29 30 31 31
19 18 18 19 19 19 19 19 19 20 21 22 22 23 24 25 26 27 28 29 29 30 31 31 32 32 32 31 30 29 29 29 29 28 27 28 29 28 27 28 30 31 30 29 29 30 31 31 30 31 32 31
20 20 21 21 22 21 20 19 19 19 20 21 22 23 24 25 26 27 28 29 30 31 32 32 32 33 32 31 30 30 30 30 30 29 28 29 29 29 29 29 29 30 30 29 28 29 31 32 31 32 32 31
21 21 21 21 22 22 22 21 20 19 20 20 21 22 22 23 24 25 27 28 29 31 32 33 33 33 33 32 31 30 31 31 31 30 29 29 28 29 29 29 29 29 28 28 28 29 31 30 30 31 31 30
19 19 19 19 19 20 21 21 20 19 19 19 19 20 19 20 20 21 22 23 26 28 30 32 33 33 33 33 32 32 32 31 31 30 29 29 28 27 27 27 27 26 23 21 20 22 24 26 27 28 28 27
17 18 18 18 18 19 20 20 20 19 19 19 19 19 19 19 18 18 19 19 21 24 27 30 32 33 33 33 33 33 32 31 31 30 29 29 27 27 26 26 26 25 19 14 12 12 13 18 23 21 18 19
18 18 18 19 20 20 20 21 21 21 21 21 21 21 21 21 21 20 19 18 19 21 24 27 29 31 32 33 33 33 33 32 31 31 31 29 28 26 25 24 25 24 20 16 14 10 7 7 10 10 7 9
19 19 20 21 21 22 22 23 23 23 24 24 24 24 23 24 24 22 21 20 19 19 21 23 26 28 29 31 32 33 33 32 32 32 31 30 29 27 24 23 24 23 21 20 15 7 3 2 3 4 4 6
22 22 24 25 25 25 24 24 24 25 27 28 27 27 26 26 26 25 24 23 22 21 20 21 23 25 26 28 30 32 32 33 33 32 32 31 30 28 26 25 24 22 20 21 20 13 7 4 2 3 3 6
25 26 28 30 30 29 27 26 26 27 30 31 31 31 30 29 28 28 28 27 26 24 22 21 22 23 25 26 27 29 32 34 33 33 33 32 31 29 29 27 24 21 21 22 23 22 20 17 12 8 6 5
29 31 32 32 33 33 31 30 30 32 34 34 34 35 34 33 32 31 31 31 29 27 26 24 22 22 24 26 26 28 31 34 34 34 34 33 31 31 30 27 24 24 23 21 22 24 26 28 27 22 13 6

ECMWFFLT2_925_spd_069.txt.gz
Wind_Speed
7 8 7 6 7 6 6 7 7 7 8 8 8 9 9 10 10 11 11 11 10 10 10 10 10 10 10 11 12 12 12 12 12 13 13 13 13 13 12 12 12 11 10 12 13 14 13 14 12 14 21 21
9 10 10 9 8 8 8 8 9 9 9 9 10 10 11 11 11 12 12 12 12 12 12 12 12 10 10 11 13 13 13 13 13 13 13 13 13 13 13 12 12 10 10 12 14 15 15 15 15 18 21 21
11 11 11 11 10 10 11 11 11 11 11 11 11 12 12 12 13 13 13 13 14 14 14 15 14 13 11 11 13 14 14 14 13 13 12 12 13 13 12 12 12 12 12 14 14 15 15 16 17 20 21 21
13 12 12 12 12 12 12 13 13 13 13 13 13 14 14 14 14 14 15 15 16 16 16 16 16 16 14 12 13 14 14 14 14 13 13 13 13 13 12 12 15 17 17 17 16 15 15 17 19 20 21 21
14 13 13 13 14 14 14 14 14 14 14 14 15 15 15 15 15 15 16 16 17 17 18 18 18 18 17 15 15 14 14 14 13 13 13 14 14 14 13 14 19 21 21 21 19 17 17 18 21 21 21 22
15 14 14 14 15 15 16 15 15 16 16 16 16 16 16 17 16 16 17 17 17 18 19 19 19 19 18 18 17 16 16 15 15 14 14 15 15 15 15 18 21 22 22 22 20 20 20 22 23 23 23 23
16 16 15 16 16 16 17 17 17 17 17 17 17 17 17 17 17 17 18 18 18 19 19 20 20 20 19 19 19 19 18 17 17 16 16 16 17 17 18 20 21 22 23 22 22 22 23 24 25 25 25 24
17 17 17 17 18 18 18 18 18 18 18 18 18 18 18 18 18 18 19 19 19 19 20 20 20 20 21 21 20 20 20 20 19 18 18 18 18 19 20 21 21 22 23 23 23 23 24 25 26 26 26 26
18 18 18 19 19 19 19 19 19 19 19 19 19 19 19 19 19 19 20 20 20 20 21 21 21 21 22 22 22 22 22 22 22 21 20 20 19 19 20 21 22 22 23 24 24 24 25 26 27 27 27 26
19 19 20 20 20 20 20 21 21 21 21 21 20 20 20 20 20 20 20 21 21 22 21 22 22 22 22 23 23 23 23 23 23 23 22 21 21 21 21 21 22 23 24 25 25 25 26 26 27 27 26 26
20 20 21 21 21 21 22 22 22 22 22 22 21 21 20 21 21 21 21 22 22 22 22 23 24 23 23 23 24 23 24 24 24 23 23 23 22 22 22 22 23 24 25 25 25 26 26 27 27 27 26 26
19 20 21 21 22 22 22 23 23 23 23 22 22 21 21 22 22 22 22 23 23 23 23 24 24 24 24 24 24 24 24 25 25 24 24 24 24 24 24 24 24 25 26 26 26 27 28 27 27 27 26 27
19 20 21 22 22 23 23 23 24 24 23 23 22 22 22 22 23 23 23 24 24 24 24 24 25 25 25 25 25 25 25 25 25 25 25 25 25 25 25 25 26 26 27 27 27 28 29 29 28 27 28 28
18 20 21 21 22 23 23 24 24 24 24 23 23 22 23 23 23 23 23 24 24 24 25 25 25 26 25 25 25 25 25 25 25 25 25 25 26 26 26 26 26 27 28 28 28 28 29 30 29 29 29 30
12 14 16 18 19 21 22 23 24 24 24 23 23 22 23 23 23 23 24 24 24 24 25 26 26 26 26 26 26 25 26 25 25 26 25 26 26 26 26 27 27 27 28 29 29 29 30 30 30 31 31 31
11 11 12 13 14 16 17 19 20 21 21 21 21 21 21 22 22 23 23 24 24 25 25 26 27 27 27 27 27 26 26 26 26 26 26 26 26 26 26 27 27 27 28 30 30 30 30 31 32 32 32 32
12 12 13 13 13 14 14 15 16 17 17 18 18 19 20 20 21 22 22 23 24 24 25 26 27 27 28 27 27 26 26 26 26 26 27 27 26 26 26 27 28 28 28 30 31 31 31 32 33 33 33 34
14 13 13 14 15 15 15 14 14 14 15 16 16 17 18 19 20 21 21 22 23 24 25 26 27 28 28 28 27 27 27 27 27 27 27 27 27 27 27 27 28 28 29 31 32 32 33 33 34 34 34 35
16 15 15 16 16 16 16 15 14 14 13 14 15 16 17 18 19 20 21 22 23 24 25 26 27 28 28 28 27 27 27 27 27 27 27 27 27 28 28 28 28 28 29 31 32 33 34 34 35 35 35 35
18 18 18 18 18 18 17 16 15 15 14 14 15 16 17 18 18 19 20 20 22 24 25 26 27 28 28 28 28 28 28 27 27 27 27 27 27 27 28 28 28 29 29 31 32 33 33 34 35 35 36 36
19 20 20 20 21 20 19 19 17 16 16 16 17 17 18 18 19 19 19 20 20 22 23 25 26 27 27 27 28 28 28 28 28 27 28 28 27 27 27 27 28 29 29 29 30 31 33 34 34 35 36 36
19 19 20 21 22 23 23 23 21 19 18 18 18 18 19 19 19 19 19 19 19 20 21 22 24 26 26 27 27 28 28 28 28 28 28 28 28 27 26 27 28 29 30 29 29 31 32 33 33 34 35 35
17 18 19 20 22 24 25 26 25 24 22 20 20 20 19 19 19 20 20 19 20 20 20 21 22 23 24 26 27 27 28 29 29 29 28 29 29 28 27 27 28 29 30 29 28 29 32 33 32 32 33 33
19 19 20 21 23 24 26 27 27 26 25 24 23 23 22 21 21 21 21 21 21 21 21 20 21 21 22 24 26 27 28 28 28 29 29 29 29 29 29 28 28 28 28 27 28 29 31 29 29 31 32 32
20 21 22 22 23 25 26 27 27 28 27 26 26 25 25 25 24 23 23 23 23 23 23 22 22 22 21 22 23 25 26 26 27 28 29 29 29 29 28 29 28 26 24 21 21 23 24 25 28 28 25 23
22 23 24 24 24 25 26 26 27 28 29 29 28 27 27 28 28 27 26 26 26 26 25 25 24 24 23 22 22 23 24 25 26 27 28 28 28 28 27 27 28 26 19 13 12 14 14 18 22 17 14 17
24 25 25 24 25 26 26 26 26 27 27 28 29 29 29 30 31 30 30 30 29 29 28 28 27 27 25 23 23 24 24 25 25 26 27 27 28 27 25 25 27 26 19 14 13 11 7 7 9 9 10 12
24 25 25 25 26 26 26 26 27 26 26 26 26 28 29 30 31 31 32 32 32 32 31 31 31 30 29 27 25 25 25 26 26 26 26 27 27 25 23 23 24 23 20 18 13 6 3 2 4 5 5 8
26 27 28 29 30 30 28 27 27 26 26 27 27 28 29 29 29 29 30 30 31 32 33 35 35 33 32 30 28 27 27 27 26 26 26 27 28 26 24 24 23 21 21 21 18 12 6 3 2 3 4 9
29 30 30 31 30 29 28 26 26 26 27 29 29 30 30 29 28 28 29 29 30 31 33 35 36 36 36 34 32 30 29 28 27 27 27 27 28 27 27 26 22 22 24 23 22 21 19 15 12 8 6 7
31 31 31 31 29 27 26 25 27 28 29 29 30 30 30 30 29 28 28 29 29 30 31 33 34 35 36 37 37 34 31 30 28 27 27 27 28 28 27 25 22 24 26 22 21 24 26 26 25 21 13 6

ECMWFFLT2_925_spd_075.txt.gz
Wind_Speed
2 3 4 4 4 4 5 6 7 8 9 10 10 10 11 11 11 11 11 11 12 12 12 12 12 12 12 12 12 12 12 12 12 11 11 11 10 10 10 10 9 6 7 9 11 11 11 10 11 17 20 19
1 2 4 4 4 5 5 6 7 7 8 9 10 10 11 11 11 12 12 12 12 12 12 12 12 12 12 12 12 12 12 12 12 12 11 11 11 10 10 9 7 5 7 10 10 11 10 10 13 17 18 18
1 2 4 5 5 6 6 7 7 7 8 9 9 10 11 12 12 12 12 12 12 12 12 12 12 12 11 11 12 12 12 12 12 12 12 11 11 11 10 8 9 11 11 12 12 12 11 12 15 17 17 17
3 3 4 5 6 7 7 7 8 8 9 9 10 11 12 12 12 12 12 12 12 12 12 12 12 12 12 11 11 12 12 12 12 12 12 11 11 11 10 10 13 13 13 13 13 12 13 14 16 16 16 17
5 5 6 6 7 7 8 8 9 9 10 10 11 11 12 12 12 12 13 12 12 12 12 12 12 12 12 11 11 12 12 12 12 11 11 11 11 11 12 13 14 13 13 13 13 13 14 15 16 16 16 17
6 7 7 8 8 9 9 9 10 10 11 11 12 12 12 12 13 13 13 13 13 12 12 12 12 12 12 12 12 12 13 13 12 11 12 12 12 13 13 13 14 14 14 14 14 14 15 15 16 16 16 17
9 9 9 10 10 10 11 11 12 12 12 13 13 13 13 13 13 13 14 14 13 13 13 12 12 12 13 12 13 13 13 13 13 12 12 13 13 13 13 14 14 14 15 15 16 16 16 16 16 16 17 17
10 11 12 12 12 13 13 13 13 13 14 14 14 14 14 14 14 14 14 14 13 13 13 12 12 12 13 13 13 14 14 14 14 13 13 13 14 14 14 14 14 15 15 16 16 17 17 17 17 17 17 17
12 12 13 14 14 15 14 14 13 13 13 13 14 14 15 15 14 14 14 14 13 13 13 13 12 13 13 13 14 14 15 15 14 14 14 14 15 15 15 15 15 15 16 16 16 17 17 18 18 18 18 17
13 13 13 14 13 13 12 11 11 11 11 11 12 12 13 13 13 13 13 13 12 12 13 12 12 13 13 14 14 15 15 15 15 15 15 15 15 16 16 16 16 16 16 17 17 17 17 18 19 19 19 18
10 9 9 9 8 8 8 8 8 9 9 9 9 10 10 11 11 11 11 11 11 11 12 12 12 13 13 14 14 15 16 15 15 15 15 15 15 16 16 16 16 16 16 17 17 17 18 18 19 20 20 20
3 3 4 5 6 7 8 8 8 9 9 9 8 8 8 9 9 9 9 10 10 10 11 11 11 12 13 13 14 14 15 15 15 15 15 15 16 16 16 16 17 17 17 17 17 18 18 18 19 20 21 22
8 8 8 9 9 10 10 10 10 9 9 9 8 8 7 7 7 8 9 10 10 11 11 11 12 12 13 13 14 14 14 15 15 15 15 16 16 16 16 16 17 17 17 17 17 18 18 19 19 21 22 23
13 12 12 12 12 12 12 12 11 11 10 9 9 8 8 8 8 10 11 12 12 13 13 13 14 14 14 15 14 14 14 14 15 16 16 16 16 17 17 17 17 18 18 18 18 18 19 19 20 21 22 23
16 16 16 16 16 16 16 16 15 14 13 12 11 11 10 10 11 12 12 13 13 13 14 14 14 14 14 15 14 14 14 14 15 16 16 17 17 17 17 18 18 18 19 19 18 18 19 19 20 21 21 23
19 19 19 19 19 19 19 19 18 17 16 15 14 14 13 13 13 13 13 13 13 13 13 13 13 13 13 13 13 13 14 15 15 16 17 17 17 17 18 18 18 18 19 19 19 19 19 20 21 21 22 23
21 20 20 20 19 19 18 18 17 17 17 16 15 15 15 14 14 14 14 14 14 14 14 14 13 13 13 13 13 13 14 15 15 16 17 18 18 18 19 19 19 18 19 20 20 20 20 21 21 22 22 23
19 19 18 17 17 16 16 16 15 15 15 15 14 15 15 16 16 16 16 16 16 15 15 15 14 14 15 14 14 14 15 16 16 17 17 18 18 19 19 20 19 19 20 20 21 20 20 21 22 23 23 23
16 15 15 14 14 15 16 15 15 15 14 13 13 13 13 14 15 16 17 17 18 18 18 18 18 17 17 16 16 16 16 17 17 18 18 18 19 19 19 20 20 20 21 21 21 21 21 22 22 23 24 24
13 12 12 13 14 15 15 16 17 17 16 15 14 14 13 13 14 14 16 17 18 19 19 20 21 21 21 20 20 19 18 18 18 19 19 19 19 20 19 19 20 20 21 22 22 22 22 22 23 23 24 23
13 12 12 12 14 15 15 16 18 18 18 17 17 16 16 15 15 14 15 16 17 18 19 20 21 22 22 23 23 23 22 21 20 20 21 21 20 20 20 20 20 20 21 22 22 22 22 22 22 23 23 23
14 13 12 13 14 16 17 18 19 21 20 18 18 17 17 17 17 17 16 16 17 18 19 19 20 21 20 21 23 24 24 24 23 23 23 23 22 21 21 22 22 22 22 23 23 23 23 23 23 22 22 23
13 13 14 15 17 18 20 21 22 23 23 21 19 18 17 17 17 18 18 18 18 19 19 19 20 20 19 19 20 22 23 23 24 25 26 26 24 24 23 23 23 24 24 23 23 23 24 23 22 23 24 23
18 19 20 22 22 22 23 23 23 24 23 21 20 20 19 18 17 18 19 19 19 19 19 19 19 19 18 18 19 20 21 21 23 25 27 27 26 26 26 25 25 24 23 22 23 24 24 22 21 23 22 19
24 23 23 24 24 23 23 22 22 23 22 20 20 20 20 19 18 18 18 18 18 18 18 18 19 19 18 18 19 20 20 20 21 22 25 26 27 27 26 26 25 23 21 17 16 18 18 20 23 20 16 17
26 25 23 23 22 22 22 20 20 20 19 19 20 19 18 18 18 17 17 17 17 18 18 19 19 19 19 19 19 20 20 20 20 20 22 24 26 26 26 25 25 23 18 10 9 10 10 13 16 12 11 15
27 25 24 24 22 21 20 19 18 19 18 20 21 20 19 17 17 16 16 16 18 19 20 21 21 22 21 21 21 22 22 21 21 21 21 22 24 25 24 24 25 24 19 13 10 7 5 6 7 5 6 5
28 26 25 24 23 21 21 20 21 22 21 22 22 20 19 17 16 16 17 18 19 21 22 23 24 24 24 24 23 24 24 24 23 22 22 22 23 23 21 21 23 25 22 18 13 6 3 2 4 5 3 2
28 27 27 27 26 26 24 23 23 23 22 23 21 19 18 18 19 20 21 21 22 23 24 25 25 26 26 26 26 25 25 25 25 24 23 22 23 22 21 20 21 23 23 22 19 13 7 3 3 4 3 6
27 26 25 25 24 22 21 19 19 19 19 20 19 19 20 22 23 23 23 22 22 22 22 23 24 24 25 25 25 25 24 24 24 24 24 24 23 23 23 22 20 20 23 24 24 22 19 15 12 8 4 5
26 24 23 22 20 17 16 15 16 17 18 18 18 20 22 22 22 22 21 21 20 20 19 20 20 20 21 22 22 22 22 21 21 22 23 24 24 23 23 22 20 20 21 22 23 25 27 26 24 19 11 6

ECMWFFLT2_925_spd_078.txt.gz
Wind_Speed
8 7 8 7 7 6 7 7 7 7 7 7 7 8 8 8 8 8 8 8 8 8 8 8 9 10 10 10 9 9 10 10 10 10 10 10 9 9 8 7 6 7 8 8 9 9 10 13 16 18 16 15
6 5 5 5 4 4 5 5 5 4 4 4 5 6 8 8 8 9 8 8 7 8 8 7 7 8 9 9 9 9 9 10 9 9 9 9 9 8 6 5 6 7 8 8 8 9 11 14 16 17 16 14
5 3 3 3 2 3 3 3 2 2 1 2 4 5 6 7 8 8 8 8 8 7 8 7 7 7 8 8 9 9 9 9 9 9 9 8 8 6 6 8 10 10 9 8 9 9 11 14 15 15 14 14
5 2 0 1 1 1 2 2 2 2 2 4 5 6 6 6 7 8 8 8 8 8 7 7 7 6 7 8 8 8 8 8 8 8 8 8 7 8 10 11 11 11 10 10 10 10 12 13 13 13 13 14
5 4 3 2 3 4 4 5 5 4 4 5 6 7 7 7 6 7 8 8 8 8 8 7 7 7 6 7 7 8 8 8 7 7 7 7 8 10 11 11 12 12 12 11 11 11 12 12 11 12 14 13
6 6 5 5 6 6 7 7 7 6 7 6 6 8 8 6 5 6 7 8 8 8 8 7 7 7 6 6 6 7 8 8 7 7 8 8 10 11 12 12 12 12 14 13 13 13 13 12 10 12 14 13
8 7 7 8 8 8 9 9 9 8 8 8 8 8 7 5 6 7 7 7 8 7 7 7 7 6 6 6 7 7 8 8 8 8 9 10 10 11 12 11 11 12 13 14 15 15 14 13 12 13 14 13
9 9 9 9 9 9 9 9 9 8 8 8 8 7 6 5 6 7 6 7 7 6 6 6 7 6 6 7 7 8 8 9 9 9 10 11 11 11 11 11 10 11 11 12 14 14 14 14 15 15 13 13
10 10 9 8 9 8 7 7 6 6 6 5 6 6 5 6 6 6 5 6 6 6 6 6 6 6 6 7 8 9 8 7 9 9 9 11 11 9 10 11 11 11 11 11 12 12 14 16 16 16 14 14
8 8 5 4 4 3 3 4 4 4 5 5 5 5 5 5 5 5 4 5 6 6 7 7 6 6 7 8 8 8 8 7 9 9 8 9 9 9 11 12 12 13 12 12 12 12 14 16 16 16 15 15
2 0 2 4 5 6 6 7 7 7 7 7 7 6 6 5 5 5 4 5 7 8 8 8 8 8 9 9 8 7 8 8 9 8 8 9 9 10 12 13 14 14 14 14 14 14 14 15 16 16 16 16
8 9 10 10 11 10 10 10 10 10 10 9 10 9 8 7 6 6 6 6 7 8 8 8 9 10 9 9 8 8 8 9 9 8 8 9 10 10 10 12 13 12 13 14 14 14 15 15 15 16 16 18
13 13 14 14 13 13 13 13 13 12 12 11 11 11 11 10 9 7 7 7 7 8 8 8 10 10 9 8 8 8 8 8 9 8 8 9 9 9 9 10 10 10 12 12 13 14 15 15 15 16 17 18
15 15 15 15 15 14 14 14 14 14 13 12 12 12 13 12 11 9 8 8 8 8 8 8 9 9 8 8 7 8 8 8 9 9 9 9 9 9 9 9 9 10 11 12 13 14 15 16 15 15 16 18
16 15 15 15 14 14 14 13 13 12 12 11 11 11 11 11 11 10 9 9 9 9 9 8 8 8 8 8 7 8 9 9 10 10 10 10 10 10 10 10 10 11 11 11 12 12 15 16 16 16 16 18
16 16 15 15 14 14 14 13 12 11 11 10 10 9 9 9 9 9 9 10 10 10 10 9 10 9 9 9 8 8 10 11 12 12 12 13 13 13 12 12 11 11 11 11 11 11 13 14 15 16 16 17
16 16 15 15 15 15 15 14 14 13 12 12 11 10 10 9 10 10 10 11 11 11 11 11 11 11 11 11 10 11 13 14 13 12 13 13 14 14 13 11 10 10 11 10 10 10 12 13 13 14 15 16
17 16 16 16 16 16 16 15 15 15 14 14 13 13 12 12 12 12 12 12 13 12 12 12 12 12 12 11 13 15 16 15 13 12 13 13 12 12 11 11 10 10 10 10 10 10 11 13 12 13 15 16
17 17 17 16 16 16 16 15 15 16 16 15 15 15 14 15 14 13 13 13 14 13 12 12 12 12 12 13 17 17 16 16 16 14 14 14 13 12 12 11 11 11 11 11 11 11 11 12 13 14 15 15
17 16 16 16 16 15 16 15 16 17 17 16 17 16 15 16 16 15 15 15 15 14 13 12 12 12 13 16 17 17 16 16 16 13 14 14 14 14 14 13 13 13 13 12 12 13 14 15 15 15 14 14
16 16 15 15 15 16 16 16 17 18 18 18 18 17 17 18 17 16 17 16 15 14 12 12 11 12 14 16 16 15 15 14 13 13 14 15 13 13 14 14 14 14 15 13 12 14 16 17 17 16 15 14
15 15 15 15 16 16 17 17 18 18 18 18 17 17 18 18 16 15 16 15 14 13 12 11 11 11 13 14 13 13 13 12 12 12 12 13 13 13 13 14 15 15 15 14 14 16 18 18 17 16 16 15
17 17 17 17 17 17 18 17 17 17 17 16 16 17 18 16 14 13 14 14 13 13 12 11 11 12 13 13 12 12 11 11 11 11 12 13 14 14 13 14 15 16 15 15 15 17 19 20 19 18 17 16
20 19 19 19 18 18 17 15 15 14 14 15 15 16 15 13 12 12 13 13 14 13 13 13 12 13 13 13 12 11 11 11 11 13 13 13 13 14 14 14 14 14 13 15 16 17 19 20 18 18 17 17
19 18 18 17 15 15 14 11 11 11 10 12 13 13 12 11 11 13 13 14 15 14 14 14 13 14 14 13 13 12 12 12 13 13 13 13 13 13 13 13 12 11 11 14 15 16 17 17 17 17 17 16
16 15 15 14 12 11 11 8 9 9 9 10 11 10 10 10 12 14 14 14 15 14 14 14 14 14 14 14 14 14 14 13 13 13 12 13 13 12 12 13 12 10 10 12 14 14 13 14 16 15 14 14
16 14 14 13 11 10 9 8 8 8 8 10 10 10 10 11 13 14 14 14 14 13 13 14 14 14 14 14 15 15 15 14 14 14 13 13 13 13 13 13 12 10 10 11 13 13 10 9 10 8 9 12
16 14 14 13 11 9 8 7 8 8 8 10 12 11 11 13 14 14 14 13 13 13 13 13 14 14 14 15 15 14 14 14 14 14 13 13 13 13 14 14 13 10 10 10 10 9 8 8 8 7 7 8
17 14 14 13 11 10 9 8 9 11 12 13 13 13 13 14 14 14 14 14 14 13 13 13 13 14 14 15 14 14 14 14 14 13 13 13 13 13 14 15 15 13 11 12 11 10 9 8 7 6 8 10
17 13 14 14 13 12 11 10 11 12 13 13 13 13 13 14 13 13 13 13 13 12 12 12 12 14 15 15 15 15 15 15 14 14 13 13 14 14 14 15 16 15 13 13 14 15 15 13 12 11 11 10
17 14 13 13 12 11 11 10 11 11 12 12 12 12 13 13 13 12 12 12 12 11 11 12 13 15 16 15 16 16 15 15 14 14 15 14 14 15 15 15 16 16 15 14 14 15 17 19 19 18 15 11

ECMWFFLT2_925_spd_081.txt.gz
Wind_Speed
11 11 10 9 8 8 8 7 8 8 7 7 7 6 5 5 4 4 5 5 5 4 3 4 6 7 6 6 6 6 7 7 7 7 7 7 6 4 3 4 6 8 9 10 12 13 15 16 15 14 13 12
10 10 9 8 7 7 7 6 6 5 5 4 4 4 4 4 4 4 3 3 3 3 2 1 3 5 6 5 5 5 6 6 6 6 6 5 4 4 6 7 9 10 10 11 12 14 15 15 15 14 12 12
9 9 8 7 6 6 5 5 4 3 3 1 1 1 3 3 3 3 3 3 2 3 3 1 0 1 3 4 4 4 4 4 5 5 4 4 4 7 9 10 11 11 11 12 13 14 14 15 15 12 10 12
8 7 6 4 3 3 2 2 2 2 2 3 2 3 2 2 3 2 3 3 2 3 3 3 2 2 1 2 3 3 4 3 3 3 3 4 6 10 12 12 12 12 12 12 13 14 14 15 12 8 9 12
8 4 3 2 1 1 1 2 2 2 3 3 4 6 5 3 2 2 3 2 2 3 4 4 4 5 4 3 3 4 7 7 5 5 6 7 9 12 13 13 11 11 13 14 14 14 14 13 8 6 12 13
6 3 2 2 1 1 2 4 5 3 3 4 5 7 6 4 4 4 4 3 4 4 4 6 7 7 7 7 7 7 9 10 9 8 9 10 11 13 13 11 8 7 11 14 15 15 13 9 5 8 13 12
4 3 3 3 2 3 3 4 6 4 5 6 5 7 6 5 5 5 5 6 8 7 6 7 8 9 8 8 8 9 10 10 10 10 10 11 12 11 10 8 5 5 7 9 11 12 10 6 7 12 12 9
3 3 2 2 2 3 3 3 4 4 4 5 5 6 5 5 5 6 6 7 8 7 5 6 9 9 8 7 7 10 10 7 9 11 9 11 12 9 6 6 5 6 6 6 7 7 6 6 10 14 10 7
3 2 2 2 2 2 2 2 2 2 2 2 3 4 4 5 5 5 5 5 5 4 4 5 6 7 6 5 6 9 7 3 6 8 6 7 8 5 5 6 5 7 7 6 7 6 6 8 10 11 9 8
2 2 2 1 1 0 0 0 1 0 0 0 1 1 2 3 4 4 3 4 4 4 5 5 5 5 5 5 5 6 5 4 5 6 5 5 5 5 6 6 7 8 8 8 8 7 8 10 11 10 8 8
1 1 2 3 3 3 3 2 2 2 2 2 3 3 2 3 2 3 3 3 4 4 5 5 5 6 5 6 5 5 5 5 6 6 6 5 6 7 7 7 7 8 8 8 9 9 8 9 12 10 8 8
4 5 5 5 5 5 5 4 4 4 4 3 5 5 5 4 3 3 4 4 5 5 5 5 6 6 6 6 6 6 6 6 6 6 6 6 7 7 7 8 8 7 7 8 8 8 8 9 11 9 9 9
7 7 7 7 7 7 7 6 6 5 5 5 5 7 7 6 5 5 5 5 6 6 6 6 6 6 6 6 6 6 6 6 6 6 6 7 7 7 8 8 8 8 8 8 8 8 8 9 10 9 9 9
9 9 9 9 8 8 7 7 6 6 6 6 6 7 8 8 8 7 7 7 7 8 8 8 7 7 7 7 7 6 6 6 6 7 7 7 8 8 9 9 9 9 9 9 9 9 9 9 9 9 9 9
10 10 10 9 9 8 8 7 7 7 7 7 7 8 9 9 9 8 8 8 9 9 9 9 8 8 8 8 8 7 6 6 7 8 8 9 9 9 10 10 10 10 10 9 9 10 9 9 9 9 9 10
11 11 11 10 10 9 9 8 8 8 8 8 8 9 11 11 10 10 9 9 10 10 10 10 10 10 9 9 9 8 7 8 10 10 10 10 9 9 10 10 10 10 10 10 10 10 9 9 9 10 10 10
11 11 11 10 10 9 9 9 9 9 8 9 8 9 11 13 12 11 10 10 11 11 11 10 10 10 10 10 9 9 10 11 11 10 10 10 10 11 10 10 10 10 10 10 10 10 10 10 10 10 10 10
12 11 11 10 10 10 9 8 9 9 9 9 9 9 11 14 14 11 11 12 11 11 11 11 11 10 10 10 9 10 11 11 11 11 12 12 12 12 11 12 12 11 12 11 11 11 11 10 10 10 11 12
12 12 11 11 10 10 10 9 10 9 10 10 10 10 10 14 15 11 11 12 11 11 10 10 10 10 10 10 10 11 11 11 11 12 13 12 12 13 13 14 14 13 13 13 13 12 12 12 11 12 13 13
13 12 11 11 11 11 11 10 10 10 11 10 10 11 11 14 15 11 11 12 11 11 10 10 10 10 10 10 11 11 11 11 11 11 12 11 12 13 14 14 15 15 15 15 15 14 13 12 13 14 15 15
14 13 12 12 11 12 11 10 11 11 11 11 11 12 12 15 14 10 11 12 11 11 10 10 10 9 10 11 11 11 10 10 10 11 11 11 11 12 14 14 15 15 16 16 16 15 14 15 16 17 17 17
15 15 14 13 12 12 12 10 11 11 10 11 11 12 13 14 12 10 12 12 12 11 10 10 10 10 10 11 11 11 11 10 10 10 10 11 11 12 13 14 15 15 16 16 17 17 17 18 19 19 20 19
17 16 16 15 14 13 12 11 11 11 10 11 12 12 13 12 10 11 12 12 12 12 11 11 10 10 11 11 11 11 11 10 10 10 11 12 13 13 13 14 15 16 16 17 17 17 18 19 21 22 21 20
18 17 17 17 15 14 14 13 12 11 11 11 12 12 12 11 10 12 13 12 13 12 12 12 11 11 11 11 11 11 11 11 11 12 13 13 13 14 14 14 14 14 15 16 17 18 19 20 21 21 20 19
18 17 17 17 16 15 15 14 12 11 11 11 11 12 11 10 11 13 13 13 13 13 12 12 11 12 12 11 11 11 11 12 12 13 13 13 13 13 14 14 12 12 13 15 15 16 17 18 18 19 20 20
16 16 16 16 15 15 14 13 12 11 11 11 11 12 11 11 12 13 13 12 12 12 12 12 12 11 11 11 11 12 12 12 12 12 12 12 13 13 13 13 12 12 12 13 13 13 13 14 16 18 19 18
16 14 14 14 14 14 14 13 12 11 11 11 12 11 11 11 12 12 12 12 12 11 11 11 11 11 11 11 12 12 12 12 12 12 11 11 12 13 13 13 12 11 11 11 12 12 9 8 9 10 10 13
18 14 14 14 13 12 12 11 11 10 10 11 11 11 11 12 12 12 12 11 11 11 10 10 10 11 12 12 13 13 12 12 12 12 11 11 11 12 13 13 12 11 11 12 11 9 7 7 7 6 6 9
22 18 16 16 14 13 12 10 10 10 11 12 12 11 12 13 12 12 11 11 11 10 10 10 10 12 13 13 13 12 12 12 12 12 12 11 11 12 13 13 14 13 12 12 12 10 8 7 6 5 7 10
21 18 15 16 15 14 14 12 11 12 12 13 13 12 13 13 12 12 11 11 11 10 9 10 11 12 14 14 13 12 13 13 12 12 12 12 13 13 13 14 14 14 13 13 14 14 14 12 10 10 11 10
19 16 14 14 13 13 13 12 12 12 12 13 13 13 13 13 12 12 11 11 11 10 10 10 11 13 14 13 13 13 13 12 12 12 13 13 13 14 13 13 14 14 13 13 13 13 15 17 18 18 15 10

ECMWFFLT2_925_spd_084.txt.gz
Wind_Speed
14 14 13 12 12 11 11 10 9 9 9 9 8 7 6 5 5 5 5 5 6 5 4 3 5 7 7 6 6 7 7 7 7 6 6 7 8 10 11 12 13 13 13 13 14 15 14 13 13 13 11 11
14 12 11 11 11 10 9 9 8 7 7 6 5 4 5 5 5 6 6 7 7 6 6 5 4 4 6 6 6 6 7 7 7 7 7 8 11 13 14 14 14 14 13 13 14 15 14 14 13 12 10 11
12 10 9 8 8 8 7 7 6 5 3 2 2 3 5 5 6 6 7 9 9 7 8 8 7 6 5 6 6 8 9 8 7 7 7 9 13 15 15 14 14 13 12 13 14 14 14 13 12 10 9 11
9 8 7 6 5 5 4 4 3 2 0 2 3 3 5 6 8 8 7 9 9 10 11 11 11 10 8 7 7 10 12 12 10 8 8 11 13 15 14 12 11 10 12 14 14 14 14 11 9 9 10 12
7 6 6 4 3 2 1 1 2 3 3 5 5 6 8 8 9 9 7 7 7 9 11 13 13 12 12 11 10 12 13 14 12 10 10 11 12 13 11 10 10 10 12 14 14 15 14 10 7 7 12 13
5 5 6 3 3 3 3 4 5 5 4 5 6 7 8 7 9 6 3 5 8 9 12 14 14 12 14 13 12 12 13 14 11 10 10 10 11 10 8 9 10 10 12 13 13 14 13 10 7 9 12 11
3 4 5 2 1 3 4 6 7 5 2 3 4 5 6 6 7 5 5 8 11 11 13 12 11 12 14 13 11 11 13 13 9 11 11 9 11 9 7 8 7 7 9 10 10 12 11 9 10 12 12 9
4 5 4 1 1 2 3 4 6 5 2 2 2 4 4 5 6 8 7 9 10 11 11 10 11 13 13 12 10 11 13 11 8 10 11 10 11 8 7 8 7 7 8 7 8 9 8 10 12 13 12 9
4 4 3 2 1 1 1 2 3 3 3 3 3 3 4 4 6 7 7 6 8 9 9 9 11 12 12 11 10 12 12 9 8 10 10 10 10 8 7 8 9 9 10 8 8 8 8 11 12 12 12 9
3 2 2 3 3 4 3 4 4 4 4 5 6 6 6 6 6 8 6 5 7 8 7 8 9 9 10 9 10 12 11 8 8 10 9 9 9 9 9 11 11 11 11 10 10 10 10 11 12 12 12 10
5 4 3 4 5 6 7 7 6 6 6 6 6 6 6 6 7 7 6 6 6 7 7 7 8 8 9 9 9 10 9 10 10 9 8 9 9 10 10 11 11 12 12 10 11 12 11 11 12 13 12 10
8 8 7 8 8 9 9 9 9 8 8 9 9 7 6 6 7 7 8 8 6 8 8 8 9 9 9 9 9 9 9 10 9 8 8 9 10 11 11 11 11 12 12 11 11 12 11 12 14 14 12 11
11 11 11 11 11 11 10 10 10 9 9 10 10 9 9 8 8 8 10 10 8 9 9 9 10 10 10 9 9 10 10 9 9 9 9 10 11 11 11 11 11 11 12 12 12 12 13 14 14 14 13 12
14 13 13 13 12 12 11 11 10 10 10 10 9 10 11 11 11 10 10 11 10 10 11 10 10 11 11 10 10 11 11 9 8 9 10 11 13 13 12 13 13 13 13 13 12 12 14 15 14 14 13 12
16 15 15 14 14 13 13 12 11 11 11 10 10 11 12 13 13 11 8 10 11 12 12 10 11 12 12 12 11 12 12 10 9 11 14 15 15 15 15 15 13 12 13 13 13 13 13 14 15 15 14 13
17 17 15 14 14 14 13 12 12 12 11 11 11 11 12 14 15 11 9 11 12 12 12 11 11 12 12 12 12 12 13 12 14 15 16 15 14 15 15 16 14 12 13 13 13 12 12 13 14 15 14 14
17 16 16 15 14 14 13 12 12 12 11 11 10 11 12 15 16 12 10 13 13 12 12 11 12 12 12 12 13 12 13 14 15 15 15 15 15 16 16 17 16 14 14 14 14 14 14 14 14 15 15 15
17 17 16 16 15 15 14 13 13 12 12 11 9 11 12 15 17 11 11 13 13 13 12 11 12 11 12 13 13 13 13 15 15 15 16 16 16 17 16 16 16 16 17 17 16 15 14 15 16 16 16 15
19 18 17 17 16 15 15 13 13 13 11 11 10 10 12 16 16 10 11 13 13 13 11 11 12 11 13 14 14 14 14 15 15 15 15 16 16 16 16 16 17 17 18 18 17 17 17 18 18 17 17 16
21 20 18 18 17 16 15 13 13 13 11 10 11 12 15 16 14 10 13 13 13 13 11 11 11 11 13 14 14 14 13 14 14 14 15 15 14 15 15 15 16 17 17 19 19 19 19 18 18 18 18 19
21 21 20 19 17 16 16 14 14 13 11 10 11 14 16 15 12 12 14 14 14 13 11 12 12 12 13 14 14 14 13 13 13 14 15 14 13 14 16 16 18 18 18 19 20 20 20 20 20 21 21 22
21 21 21 20 17 15 15 14 14 12 11 11 12 15 16 13 11 13 16 15 14 13 12 12 12 12 14 14 14 13 13 13 13 14 14 15 15 16 17 18 19 19 20 21 22 22 22 22 22 23 25 26
22 22 23 22 19 17 16 15 14 12 12 13 13 14 15 13 12 13 16 15 14 14 13 12 12 13 13 13 13 13 13 13 14 15 15 17 18 17 17 17 18 20 21 21 22 22 22 22 23 24 25 27
24 23 23 23 20 19 18 16 15 13 12 13 13 13 13 13 13 14 16 15 14 14 13 13 13 12 13 13 13 13 13 14 15 16 16 17 18 18 17 17 17 18 19 21 22 22 23 22 22 24 26 27
24 22 21 22 20 18 18 16 15 14 13 13 13 14 14 12 13 15 15 14 14 14 13 13 13 12 13 12 12 13 13 14 14 15 15 16 16 17 17 18 16 16 18 20 20 19 19 20 21 23 24 26
24 21 18 19 19 17 17 16 15 15 14 14 15 16 14 13 15 16 15 13 13 14 13 13 13 12 13 13 13 14 14 13 14 14 14 15 17 16 16 17 15 15 16 16 16 15 13 15 18 18 20 22
24 22 18 18 20 16 15 16 14 13 13 13 15 15 13 14 16 15 15 14 13 13 13 12 12 12 14 15 16 16 15 15 15 15 15 15 17 17 16 15 15 15 15 16 18 15 8 7 8 10 13 17
23 23 19 18 19 15 14 16 13 11 12 13 14 14 13 15 16 14 14 14 13 13 12 12 12 13 15 17 17 16 16 16 15 15 16 16 16 16 16 16 16 15 15 16 15 10 5 5 6 5 6 13
22 21 19 18 18 15 14 16 13 11 14 14 14 15 14 16 15 13 14 14 13 13 12 12 12 12 15 18 17 15 15 16 15 15 15 15 15 15 16 18 18 17 15 15 15 11 7 5 3 3 6 13
20 19 17 17 17 14 13 14 12 11 14 14 15 15 15 16 14 13 14 13 12 13 12 13 12 12 16 18 17 15 16 15 15 15 16 15 16 15 15 17 19 17 16 15 16 16 14 12 9 8 10 8
18 17 15 15 14 12 11 11 11 11 12 14 14 15 15 15 14 13 13 13 13 13 12 13 12 14 18 18 16 16 16 15 15 16 16 15 16 16 15 17 17 17 17 17 16 16 18 19 19 17 13 7

ECMWFFLT2_925_spd_087.txt.gz
Wind_Speed
13 12 11 11 10 10 10 9 9 10 10 9 7 6 5 6 6 5 5 7 7 7 8 8 8 8 8 8 8 8 9 9 9 9 9 10 10 11 12 12 12 11 10 11 12 12 11 10 8 8 7 9
14 13 12 12 11 11 10 9 9 8 7 5 5 5 6 7 8 7 6 8 8 9 11 12 11 9 8 8 8 9 10 10 10 10 10 10 11 12 13 12 12 10 8 10 12 12 11 8 6 6 7 9
15 14 12 11 10 10 8 7 6 4 3 4 4 5 7 8 9 8 6 7 9 11 12 15 15 11 10 9 9 9 10 11 11 10 10 11 11 12 12 11 10 9 9 10 12 13 11 8 6 6 8 10
12 11 9 8 6 5 4 3 3 3 3 4 4 6 7 8 10 9 6 5 8 12 14 17 15 12 13 12 10 10 11 13 12 10 10 10 11 12 11 10 9 9 10 11 11 13 11 7 7 8 11 11
8 7 6 5 4 3 3 3 5 4 5 6 6 7 8 10 11 9 5 4 8 12 16 16 14 13 15 13 11 11 13 15 12 9 10 10 10 12 11 10 11 11 11 11 10 12 12 9 8 10 12 12
7 6 6 5 5 5 5 6 7 5 6 7 7 7 8 9 9 7 6 6 8 11 15 14 13 14 14 13 11 10 14 15 12 10 10 11 11 12 12 12 13 13 13 13 12 11 12 12 11 13 13 12
7 6 6 7 8 7 7 8 9 6 4 3 4 5 5 7 7 8 10 8 7 10 13 13 13 14 13 12 11 11 14 14 13 12 11 12 12 12 13 14 14 15 16 16 15 13 13 13 14 15 15 13
9 7 6 5 7 7 6 7 6 4 3 3 4 4 5 6 6 8 9 7 8 10 11 11 12 12 12 12 12 13 15 14 13 12 14 14 12 12 13 15 16 17 18 18 17 15 13 14 15 15 15 14
8 6 6 6 7 8 8 7 6 5 5 6 5 5 7 7 7 9 9 8 8 9 9 9 11 12 13 14 14 15 15 15 13 13 16 15 13 13 14 16 17 17 18 19 18 17 16 16 16 16 16 15
7 7 9 10 10 10 10 10 10 9 7 7 6 5 7 8 9 10 10 9 8 9 9 9 11 12 14 14 14 14 15 15 14 14 15 14 12 13 14 16 17 17 18 20 20 19 18 19 18 18 18 17
12 11 12 13 13 14 13 12 12 11 9 8 7 7 7 9 11 11 10 10 10 11 12 11 11 11 13 14 13 12 14 15 14 14 13 11 11 12 14 16 16 17 18 19 20 19 20 20 19 19 19 18
17 16 15 14 15 15 15 14 13 13 12 11 11 11 11 12 13 13 13 13 13 14 14 13 13 11 12 13 13 12 13 15 14 12 12 12 14 14 15 17 17 17 17 18 19 20 21 21 20 20 19 19
20 18 18 17 17 17 16 16 16 15 14 13 13 14 15 16 16 15 15 15 16 16 15 15 13 11 13 14 14 14 14 15 13 11 12 14 15 15 17 18 18 19 19 19 18 19 21 21 20 21 21 19
21 20 20 20 19 17 17 18 18 17 16 15 14 15 16 19 19 16 16 16 17 17 16 15 13 12 13 15 15 16 16 15 14 13 13 14 16 17 19 18 18 19 19 19 18 18 19 21 20 21 21 21
22 21 21 21 20 19 18 17 17 18 17 15 14 14 15 20 18 15 15 16 17 18 17 15 13 12 14 15 15 15 16 16 16 16 16 16 17 18 18 19 19 20 21 21 19 18 18 19 19 19 21 21
24 23 22 21 20 19 17 16 16 16 15 14 13 12 15 20 17 14 14 15 17 18 17 15 12 12 14 15 16 15 16 16 17 17 18 19 19 19 20 21 21 20 21 22 21 19 19 19 19 20 21 22
25 24 23 22 21 19 16 15 15 14 13 11 11 12 16 19 17 14 14 15 16 17 16 13 12 12 13 15 16 16 17 17 18 19 20 20 20 19 20 21 20 20 20 20 20 20 20 20 20 21 21 22
23 22 21 21 20 20 18 17 15 13 11 10 11 13 17 19 17 14 14 15 17 17 15 13 11 12 13 15 17 17 18 18 19 19 19 19 18 19 19 20 19 19 20 20 21 21 21 21 21 22 22 23
22 20 17 16 16 16 16 17 16 14 12 11 12 14 17 19 17 15 15 16 18 17 15 12 12 12 13 15 16 17 17 18 18 17 16 16 18 19 19 19 19 19 20 21 22 23 23 23 23 24 24 23
21 20 18 15 14 14 12 15 17 16 13 13 14 15 17 17 16 16 16 17 18 17 14 13 12 12 13 15 16 16 16 16 15 15 16 16 17 20 20 20 21 21 22 23 24 25 25 25 25 25 26 25
20 20 20 18 17 16 12 12 16 17 14 14 14 15 17 16 16 17 17 18 18 16 15 13 12 12 12 14 14 15 15 14 13 14 17 17 17 19 21 21 22 22 23 24 25 25 26 26 25 26 26 27
21 20 21 20 19 19 16 11 12 15 15 14 15 16 16 16 17 17 17 18 18 16 15 13 12 12 12 13 13 14 14 13 13 14 15 17 17 17 19 20 21 22 23 24 25 26 26 25 25 26 26 26
22 22 22 23 22 21 20 16 13 13 14 15 16 16 17 18 18 17 18 17 16 15 14 13 12 12 12 13 13 13 14 13 14 14 14 17 17 17 17 17 18 20 21 24 26 26 26 25 25 25 25 26
23 24 24 24 25 23 21 21 18 15 14 14 16 17 18 18 17 17 17 16 14 13 13 12 13 12 12 13 13 15 15 15 14 14 16 17 18 19 18 17 17 17 20 24 25 25 25 24 24 24 24 24
24 25 23 23 24 22 20 20 20 17 13 14 15 17 17 15 16 17 16 15 15 13 12 13 13 13 14 14 15 17 17 15 14 14 16 17 18 18 19 18 16 16 20 22 20 21 24 26 24 21 20 21
23 23 21 19 20 20 18 17 19 16 12 14 16 16 14 12 15 15 13 14 15 14 13 13 14 14 15 16 17 19 17 15 15 15 15 17 18 18 18 18 16 16 17 16 16 18 18 19 19 15 14 17
22 21 19 17 18 18 16 15 17 14 12 14 15 14 13 12 14 13 12 13 13 13 12 13 14 14 15 17 18 20 18 16 16 16 16 17 18 19 19 18 17 17 16 16 18 16 9 7 9 9 9 12
20 21 19 17 18 18 15 15 17 14 12 13 14 14 13 14 13 12 13 13 11 12 12 13 14 13 14 16 18 19 18 16 16 16 17 18 18 19 19 18 17 17 16 17 16 10 6 6 6 4 5 14
20 20 20 18 19 19 15 14 16 14 12 13 14 15 14 15 14 12 14 13 11 13 13 14 14 13 15 16 19 19 16 16 16 15 17 18 18 18 17 17 18 18 16 16 14 10 7 5 3 3 8 16
19 20 19 18 19 19 15 14 14 13 14 14 15 15 14 16 14 12 14 13 12 13 14 15 15 14 16 17 20 19 16 15 14 15 17 17 17 17 17 17 17 18 17 17 18 16 12 9 7 8 11 10
18 20 19 17 17 16 14 14 14 15 15 14 16 15 15 16 15 12 14 14 13 13 14 15 15 15 16 17 20 19 15 14 15 16 17 15 16 16 16 16 16 16 17 18 18 17 17 17 16 15 12 6

ECMWFFLT2_925_spd_090.txt.gz
Wind_Speed
10 9 8 8 7 7 7 7 8 7 7 6 7 7 8 9 9 8 8 8 9 10 12 13 10 8 9 9 9 9 9 10 10 10 10 10 10 11 11 11 11 10 8 10 12 13 12 9 7 7 8 9
10 9 9 9 8 7 7 7 6 4 4 5 6 8 9 10 10 8 7 7 7 9 13 15 11 9 9 9 9 9 9 10 10 9 9 9 9 10 11 10 10 9 8 10 12 12 12 10 8 8 10 11
11 10 10 9 8 7 6 4 3 3 4 5 7 9 9 10 10 7 6 6 7 10 13 14 12 10 9 9 9 9 10 11 10 8 8 9 9 10 10 10 10 10 10 10 11 12 11 10 10 10 11 12
8 6 6 5 4 4 3 3 3 4 6 7 8 9 9 10 10 8 6 6 8 10 12 12 12 12 9 9 9 9 10 11 10 8 8 9 9 10 10 10 11 12 12 12 12 12 12 12 11 11 11 12
4 3 4 5 4 5 6 6 5 5 7 7 7 6 7 8 9 9 8 6 9 11 12 12 11 11 9 9 9 9 11 11 10 9 9 9 10 9 9 10 13 15 15 14 14 14 13 13 13 13 13 13
5 6 7 7 7 7 8 8 6 5 5 6 5 6 7 7 7 9 8 7 9 10 11 11 10 10 10 10 11 10 11 11 10 10 9 10 11 10 9 11 14 16 16 16 16 16 14 14 15 15 14 13
5 4 4 4 5 5 5 6 6 6 6 6 6 7 7 7 8 9 8 6 7 8 9 9 9 10 11 11 12 12 11 12 11 11 11 11 12 11 11 13 14 16 17 16 16 16 15 15 16 16 15 14
6 3 1 2 2 2 4 6 6 6 6 7 8 9 9 9 9 10 9 8 7 7 7 8 8 9 10 10 11 12 12 12 12 12 13 13 14 13 13 13 14 16 16 17 17 16 16 16 16 17 16 15
14 12 10 9 9 8 9 8 7 8 8 9 9 9 9 9 9 9 8 8 8 8 8 9 9 10 10 10 10 12 12 12 13 12 12 12 13 14 13 13 14 15 17 17 17 17 17 16 17 17 17 17
20 19 19 18 16 14 13 11 10 10 10 10 10 9 9 8 8 8 8 9 10 11 11 11 11 11 11 10 11 12 13 13 13 11 10 9 11 12 13 13 14 16 17 18 18 18 18 18 18 18 18 17
23 22 22 20 18 17 15 13 12 12 11 11 11 11 12 11 11 11 11 12 13 14 15 14 13 12 12 11 11 13 14 13 12 11 9 9 10 12 13 14 15 16 17 17 18 18 18 18 18 18 18 18
27 25 24 22 20 18 16 14 14 13 12 11 11 13 14 15 14 14 15 15 16 16 17 16 15 13 12 12 12 12 13 14 13 12 11 12 13 14 15 16 16 17 17 16 17 18 18 19 18 18 18 18
25 24 24 24 22 20 17 16 15 14 12 13 13 14 16 17 17 18 18 18 18 19 19 18 17 15 14 13 13 13 13 14 15 15 15 15 16 16 17 18 19 20 19 18 17 18 19 20 19 19 19 19
21 21 21 22 22 20 19 17 16 14 14 15 15 16 17 19 20 20 19 19 19 20 20 20 19 17 16 15 15 15 15 15 16 17 18 18 19 19 20 21 21 22 22 21 19 19 20 20 20 20 20 20
18 18 18 18 17 18 18 17 15 15 15 16 17 17 18 19 21 21 20 20 20 21 21 21 20 18 18 17 17 17 17 17 18 19 19 20 21 21 22 22 23 23 23 23 21 20 19 19 19 20 20 20
17 16 15 14 14 15 15 14 14 14 14 15 16 17 19 20 22 22 21 21 21 21 21 21 20 18 18 18 18 18 19 19 20 20 21 21 22 23 23 24 24 23 23 22 22 21 20 20 20 21 21 21
15 14 13 12 12 13 12 12 12 13 13 14 15 17 19 21 22 23 22 22 21 21 22 21 19 19 18 18 19 19 20 21 21 21 22 22 23 23 24 24 23 22 22 22 22 23 23 23 23 24 24 24
12 12 11 10 10 10 11 11 11 12 13 14 16 18 20 21 23 23 23 23 22 22 22 21 19 19 19 19 19 19 20 21 21 22 22 22 23 22 22 22 22 22 23 23 24 24 24 25 26 26 27 27
12 11 11 10 10 9 9 10 11 12 13 15 16 18 20 21 23 23 24 24 23 23 22 21 19 18 19 19 20 20 20 20 21 21 21 21 22 22 22 22 22 23 24 24 25 25 26 27 27 28 29 29
11 11 11 11 10 9 8 9 11 12 13 14 16 18 19 21 22 22 23 23 22 22 21 20 19 18 18 19 20 20 20 20 20 21 21 20 20 22 23 23 23 23 23 25 26 26 27 27 27 28 28 28
12 12 12 12 12 11 9 9 11 12 13 14 15 16 18 20 21 21 21 20 20 19 19 18 18 17 18 18 19 19 20 20 20 20 21 21 19 20 22 23 23 23 24 25 26 26 27 27 27 27 27 27
14 13 13 14 14 14 13 13 13 14 14 14 15 16 18 20 20 20 19 18 17 16 16 16 16 17 17 18 18 19 19 20 20 19 20 21 20 19 20 21 22 23 24 25 27 27 28 27 27 27 28 27
15 16 16 16 17 18 18 17 17 17 15 14 16 17 18 20 19 18 18 17 16 17 16 15 16 17 17 18 19 20 20 20 21 20 19 20 20 20 19 19 20 22 24 26 27 27 28 27 27 27 27 27
17 18 19 19 20 21 21 20 18 18 16 14 16 17 18 18 17 18 17 15 15 17 16 15 16 17 18 19 20 21 21 22 22 20 19 19 19 20 20 19 19 19 23 27 28 27 27 27 26 27 26 25
18 19 20 20 20 20 21 19 18 18 17 14 16 17 18 18 17 17 15 13 15 15 15 15 15 17 18 19 20 21 21 22 22 18 17 18 18 19 20 21 18 19 23 24 23 25 27 29 27 24 20 17
17 18 18 17 18 19 20 18 16 17 17 15 16 17 17 17 17 16 13 13 15 15 15 15 15 17 18 18 20 21 21 22 21 18 16 18 20 19 19 20 18 19 19 16 17 19 20 22 21 17 13 12
16 16 17 16 17 18 18 17 15 15 15 14 15 16 17 17 18 16 13 14 15 15 16 16 16 17 17 18 19 21 22 23 20 18 17 19 20 19 19 19 17 17 15 14 16 14 9 8 11 11 9 9
14 16 17 16 17 17 17 16 14 14 14 12 15 17 17 17 18 16 13 14 16 16 17 16 16 17 17 18 19 20 22 22 19 17 17 19 19 18 19 18 17 16 15 14 13 8 5 5 5 5 6 15
13 15 17 17 18 19 18 17 14 14 15 15 16 17 16 17 18 16 14 15 16 16 17 17 17 17 17 18 18 20 21 19 16 16 17 18 18 17 17 16 17 17 16 13 10 7 5 5 3 3 8 16
12 14 16 17 18 18 18 17 15 15 17 17 16 16 17 17 16 16 14 14 16 16 16 17 17 17 17 18 19 20 19 16 15 16 17 17 16 16 16 15 16 17 16 14 13 10 7 7 6 8 11 9
11 13 14 15 15 15 15 15 16 16 17 17 16 17 17 15 15 15 14 14 15 15 16 16 17 17 17 18 19 19 17 15 15 17 17 15 15 15 15 14 14 15 16 16 14 12 10 12 13 13 11 5

ECMWFFLT2_925_spd_093.txt.gz
Wind_Speed
13 12 12 14 13 11 10 9 9 10 10 11 12 11 11 10 9 9 10 10 12 13 15 15 14 14 13 13 12 12 13 14 13 11 11 11 11 11 11 11 12 12 12 12 13 13 14 13 12 11 12 11
9 8 9 10 10 9 9 9 10 10 10 10 10 10 10 10 9 8 8 10 11 12 13 13 13 14 13 13 12 12 13 14 13 12 11 11 11 11 11 11 11 12 12 13 13 13 13 13 13 13 13 12
6 6 7 8 8 7 8 8 7 8 8 7 7 9 10 10 9 8 7 8 10 11 11 10 11 13 14 13 13 13 13 14 13 12 12 12 12 12 11 11 12 12 12 13 13 14 14 14 14 14 14 13
5 7 6 5 6 5 5 4 4 6 7 7 7 9 10 9 9 8 6 6 9 10 9 9 9 11 13 13 14 14 13 13 13 12 12 12 12 12 11 11 14 14 14 14 14 15 15 14 14 15 15 14
6 7 5 4 5 5 5 4 4 5 7 8 9 9 9 8 8 7 5 6 8 9 9 9 8 8 10 11 12 13 12 12 13 13 12 13 13 13 12 13 15 15 15 16 16 16 16 16 15 16 16 15
6 6 5 5 6 7 7 7 7 7 8 9 9 9 9 8 8 7 6 7 8 8 8 8 8 8 9 10 11 11 11 11 11 12 12 12 12 12 12 14 15 15 16 16 17 17 17 17 17 17 16 15
6 5 6 7 9 9 10 9 9 10 10 10 10 10 10 10 9 8 8 8 8 8 8 9 9 10 10 11 11 11 11 11 11 12 11 10 11 11 11 13 13 14 15 16 17 17 17 18 18 18 17 16
9 9 9 10 10 9 9 9 9 10 10 11 11 11 11 10 9 9 8 9 9 9 10 10 11 11 12 12 12 12 12 12 12 12 11 10 10 11 11 11 12 13 14 15 16 16 16 17 17 17 17 16
15 13 12 11 10 9 8 7 8 9 9 10 10 10 11 10 10 10 10 11 11 12 13 13 13 13 13 13 13 13 13 13 12 12 12 11 11 11 12 12 13 13 14 15 16 16 16 16 15 16 16 16
16 15 14 13 11 9 8 7 7 8 9 9 10 10 10 10 11 12 12 13 14 15 16 16 16 16 15 14 14 14 14 14 14 14 13 12 12 13 13 14 15 15 16 16 17 17 17 16 15 15 15 15
15 15 14 13 11 10 10 9 8 9 10 10 10 11 12 12 14 15 15 17 17 18 18 19 19 18 17 16 15 15 16 16 15 16 16 16 16 16 16 17 17 17 18 18 18 19 18 18 17 16 15 15
16 15 14 12 11 11 10 9 9 10 11 11 12 13 14 15 17 18 19 20 20 20 20 20 20 19 18 17 17 17 17 18 18 18 18 19 19 20 20 20 20 21 20 20 20 21 20 19 19 18 17 16
15 14 12 11 11 11 10 9 10 11 11 12 13 14 16 17 19 20 21 22 22 22 21 21 21 20 20 19 19 19 18 19 20 20 21 21 22 22 23 23 23 24 24 23 23 22 22 21 20 19 18 18
13 12 11 11 10 10 10 10 11 11 12 13 14 15 17 18 20 21 22 23 23 22 22 22 21 21 21 20 20 20 20 20 21 22 22 23 23 24 24 25 25 25 26 25 24 23 23 22 21 19 19 18
11 11 10 10 9 9 9 10 10 11 12 13 14 16 17 19 20 21 22 23 23 23 23 22 22 22 21 21 21 21 21 21 21 22 22 23 23 24 24 24 24 24 25 25 24 23 22 22 21 21 20 21
10 10 9 9 8 8 8 9 10 11 13 14 15 16 18 19 20 21 23 23 24 24 23 23 22 22 21 21 21 21 22 22 22 22 22 23 23 23 23 24 23 23 24 24 24 23 22 22 22 22 22 23
7 8 8 8 8 8 8 9 10 12 13 14 15 16 18 19 20 21 23 23 24 23 23 23 22 22 21 21 21 21 22 22 22 23 23 23 24 24 24 25 25 24 24 24 24 24 23 23 23 23 24 25
5 6 7 7 8 8 9 10 11 12 13 14 15 16 17 18 20 21 22 23 23 23 22 22 22 22 22 22 22 22 22 23 23 24 24 25 25 25 25 25 25 25 26 25 25 25 25 25 25 25 25 25
5 6 7 7 8 9 10 11 12 13 14 15 15 16 17 19 20 21 23 23 23 23 22 22 22 22 22 22 23 23 23 24 25 25 25 25 25 26 25 25 25 25 26 27 27 27 26 27 27 27 27 26
7 7 8 8 9 9 11 12 13 14 15 15 16 17 18 20 21 22 23 22 22 22 21 21 22 22 22 23 23 24 24 25 25 26 27 26 25 26 26 26 27 26 27 28 29 29 29 29 29 29 28 28
8 8 9 9 9 10 10 11 13 14 15 16 17 18 19 20 21 22 22 22 21 20 20 20 21 21 22 23 24 24 25 25 26 26 27 27 25 25 26 27 28 28 28 29 30 31 31 30 30 30 30 29
10 10 10 10 10 11 12 12 13 13 14 15 16 17 18 20 21 21 21 20 19 18 18 19 20 21 21 22 23 24 25 26 26 27 27 28 26 25 25 26 27 29 30 31 32 33 32 30 30 29 29 28
11 11 12 12 13 13 14 15 14 13 14 14 14 15 16 18 19 20 20 18 17 17 17 18 19 20 20 22 23 24 25 26 27 27 27 27 26 26 25 23 25 27 29 31 32 31 31 30 29 28 27 26
11 12 14 14 15 16 16 16 15 13 13 12 12 13 15 16 17 18 17 15 15 16 16 17 18 19 20 21 23 24 25 26 26 26 25 24 25 26 25 24 24 25 28 31 31 29 29 29 29 28 23 17
11 13 14 15 15 16 16 16 15 14 12 11 12 12 14 15 16 17 15 13 14 15 16 17 18 19 20 21 21 23 23 24 24 24 23 22 23 24 23 25 24 24 27 26 25 28 30 30 27 20 14 12
10 11 12 12 13 14 15 14 14 13 11 11 11 12 14 15 15 16 15 13 13 15 16 16 17 18 19 19 20 21 22 23 23 22 21 22 24 21 20 22 21 23 23 18 19 21 21 23 19 11 10 11
8 8 9 10 10 11 12 12 12 11 10 11 11 12 13 14 15 16 15 13 14 14 15 16 17 17 17 18 18 20 21 22 21 20 19 21 21 20 20 20 18 20 19 16 18 14 8 9 10 8 8 10
7 8 8 9 9 10 10 11 12 11 11 12 12 11 11 13 15 16 15 15 15 14 14 15 16 16 16 17 18 19 20 20 18 17 19 19 18 18 20 19 17 18 18 16 15 9 5 5 6 4 6 16
8 7 8 9 10 10 10 12 13 13 13 14 14 12 11 13 15 15 15 16 15 15 14 14 15 15 16 17 18 18 18 17 17 16 17 17 16 17 17 17 17 18 17 14 12 8 6 5 2 3 9 18
9 8 8 9 10 10 11 12 12 13 14 15 15 13 12 12 13 14 15 15 15 16 14 14 14 15 16 17 18 17 16 17 17 17 16 15 15 16 15 15 16 17 16 14 12 10 7 7 6 7 12 10
10 8 8 10 10 10 10 11 12 13 14 15 15 14 13 11 12 14 15 15 16 15 15 15 15 16 16 17 18 16 16 17 17 16 16 14 14 14 13 14 15 16 16 15 14 12 10 11 11 12 11 5

ECMWFFLT2_925_spd_096.txt.gz
Wind_Speed
19 18 18 17 16 16 16 15 14 13 13 13 13 12 11 10 9 8 9 12 14 15 14 13 16 17 16 16 16 16 16 16 16 16 16 16 16 15 15 15 16 17 16 17 17 18 19 19 18 17 17 17
15 14 13 13 12 12 11 10 10 10 11 11 11 11 11 10 8 6 6 9 11 11 11 11 13 17 17 16 17 17 16 17 16 16 16 16 16 16 15 15 16 17 16 16 17 17 18 19 19 18 17 17
11 11 10 10 10 9 8 8 8 9 10 11 12 12 11 9 7 6 7 8 10 10 10 10 11 13 16 17 17 17 16 17 17 17 16 16 16 16 15 14 16 17 16 16 17 17 18 19 19 18 18 17
8 8 7 7 7 7 7 7 8 8 9 10 11 11 10 9 7 7 7 9 10 10 10 11 11 11 13 14 15 15 15 15 16 16 16 15 15 14 14 15 16 17 17 17 18 18 19 20 19 19 19 18
6 6 5 5 4 4 5 5 5 6 7 8 9 10 9 9 8 8 8 9 9 10 11 11 11 12 12 13 13 14 14 13 13 14 13 13 13 15 15 15 16 17 18 18 19 20 21 21 21 21 20 19
8 7 6 6 5 6 6 5 5 5 6 7 8 8 8 9 9 9 9 9 10 11 11 12 12 13 13 14 14 15 15 14 13 12 12 12 13 14 14 15 16 16 17 18 19 20 21 22 22 22 22 21
9 8 8 8 8 8 8 7 7 7 8 7 8 8 8 9 9 9 10 11 11 11 11 12 13 14 14 15 15 16 15 15 15 14 13 12 13 13 14 15 15 16 17 18 19 20 21 22 22 22 22 22
11 11 11 11 10 10 9 9 8 8 8 8 8 8 8 9 9 9 10 11 11 12 13 14 15 15 16 16 16 16 16 16 16 16 15 15 14 14 15 15 16 17 18 19 20 21 21 22 22 22 22 22
13 13 12 12 11 10 9 9 8 8 8 8 8 8 8 9 9 10 11 12 13 14 15 16 17 17 18 18 18 17 17 17 17 18 18 18 17 17 17 18 18 19 20 21 21 22 22 22 23 23 23 23
14 12 11 11 10 8 8 8 7 8 8 8 8 8 9 9 9 11 12 13 15 16 17 17 18 19 19 19 19 19 19 18 18 18 19 19 19 20 20 20 20 20 21 22 23 23 23 24 24 24 24 24
12 11 10 10 8 7 7 7 6 8 9 9 9 10 10 11 12 13 14 15 16 17 18 19 19 19 19 20 20 20 20 20 19 19 20 20 20 21 21 22 22 22 22 23 24 24 24 24 25 25 25 25
10 9 8 8 6 6 7 6 7 8 9 9 10 11 12 13 13 14 15 16 17 18 19 19 20 20 20 20 20 20 20 21 21 21 21 21 22 22 22 23 23 24 24 24 24 25 26 25 25 25 24 24
8 7 6 6 5 6 6 6 7 8 8 9 11 12 13 14 15 16 17 17 18 19 19 19 19 20 20 20 20 21 21 21 22 22 22 23 23 23 23 24 24 24 25 25 24 25 26 25 25 24 24 23
6 5 4 5 5 5 5 6 7 7 8 10 11 12 13 14 16 17 17 18 19 19 19 20 20 20 20 20 21 21 21 22 22 23 24 24 24 24 24 24 24 24 24 24 24 24 25 25 24 24 24 23
4 4 4 4 4 5 5 6 7 8 10 11 12 13 14 15 16 17 17 18 19 20 20 20 21 21 21 21 21 22 22 22 22 23 23 24 24 25 25 25 24 24 25 24 24 23 24 24 24 24 24 24
3 2 3 3 4 5 6 7 8 10 11 12 13 14 15 16 16 17 18 18 18 19 19 19 20 20 20 21 21 21 22 22 23 23 23 24 24 24 25 26 26 25 25 25 25 24 24 24 25 25 24 24
3 3 3 3 5 6 7 8 9 11 11 12 13 13 14 15 16 17 18 18 18 18 18 18 18 18 18 19 19 20 21 22 22 23 24 24 25 25 26 26 27 27 27 27 26 26 26 26 26 26 26 26
3 3 4 5 6 7 8 9 10 10 11 11 12 13 14 14 15 16 17 18 18 18 17 17 17 17 17 18 18 19 20 21 22 23 24 24 25 26 26 27 28 28 29 29 29 29 28 28 27 27 28 27
3 4 5 6 7 7 8 9 10 11 11 12 13 13 14 15 16 16 17 17 17 17 16 17 17 17 17 17 18 19 20 21 21 22 23 24 25 26 26 27 27 28 29 30 31 31 30 30 29 28 28 28
3 4 5 6 7 7 9 10 11 11 12 13 14 14 15 15 16 17 17 17 16 15 15 15 15 15 16 17 18 19 20 20 21 22 22 23 23 25 26 26 27 27 28 30 32 31 32 31 30 29 28 27
2 3 4 5 6 7 8 9 10 11 12 13 14 15 16 16 17 17 17 16 15 14 13 13 14 14 16 17 18 19 20 21 21 21 22 22 21 22 24 25 26 27 28 30 31 32 32 31 30 29 27 26
2 3 4 5 6 7 8 9 10 11 12 13 14 15 15 16 16 16 17 16 15 14 13 13 13 14 15 17 18 19 20 20 21 21 21 22 21 21 22 22 23 26 28 29 31 33 32 30 29 27 26 23
1 2 3 4 6 7 7 9 9 10 11 12 12 13 14 15 15 16 16 15 15 14 13 13 14 15 15 17 17 19 19 20 21 21 21 22 22 21 20 18 20 23 26 29 31 29 29 29 27 26 23 17
2 3 4 5 6 7 8 9 9 9 10 11 11 12 13 14 14 15 14 14 14 13 13 14 14 15 16 17 17 19 19 20 20 20 21 21 22 22 19 19 20 21 25 29 28 27 27 26 26 24 15 7
4 4 5 6 7 8 8 9 9 9 10 11 12 12 13 14 14 14 14 13 13 13 13 14 14 15 16 16 17 18 18 19 18 18 20 20 21 19 19 21 19 20 24 23 23 27 28 26 22 12 4 3
7 7 7 7 7 8 8 9 9 10 10 11 12 12 13 14 14 14 14 14 13 14 14 14 14 15 15 16 17 17 17 18 18 18 19 20 20 17 17 19 17 20 21 16 18 21 20 20 13 3 2 5
9 9 8 8 8 8 8 8 9 9 10 10 11 12 13 13 14 15 15 14 14 14 14 14 14 14 14 15 16 17 17 17 17 18 19 18 18 17 18 17 15 17 17 15 19 14 7 8 7 3 3 7
11 10 10 9 9 8 8 8 8 8 8 9 10 11 12 13 14 15 15 15 15 15 15 15 15 14 15 16 16 17 17 16 17 17 18 17 15 16 18 16 14 15 14 14 15 9 4 5 5 2 4 15
13 12 12 11 10 9 9 8 8 8 8 9 10 10 11 11 12 13 13 14 14 15 15 15 15 15 16 16 17 17 15 15 16 16 16 16 14 14 14 13 15 15 13 12 10 6 5 4 2 2 8 18
16 15 14 14 13 12 11 10 10 9 9 9 9 10 11 11 11 12 13 14 14 14 15 14 14 15 15 16 17 16 15 15 15 16 15 14 13 13 11 10 14 15 13 11 9 7 5 5 4 6 11 9
18 18 17 17 16 14 13 13 12 10 10 10 10 10 11 11 10 11 12 13 14 14 15 14 14 15 15 16 16 14 14 15 15 15 15 13 12 12 9 9 12 13 12 12 11 10 8 9 9 10 10 4

ECMWFFLT2_925_spd_099.txt.gz
Wind_Speed
12 10 9 8 8 8 9 10 10 10 10 9 8 8 6 5 6 6 7 9 10 10 10 13 16 16 16 16 17 17 18 18 18 18 17 16 16 16 16 16 17 18 18 18 18 19 20 22 23 24 23 22
10 9 8 7 8 8 9 9 9 8 9 9 9 8 7 5 5 5 6 7 8 9 9 9 12 14 15 16 15 15 16 17 17 17 17 16 16 15 15 16 17 17 18 18 18 19 20 22 23 23 23 23
8 8 7 8 8 8 8 8 8 8 9 9 10 9 8 7 6 6 7 8 8 8 9 9 9 11 13 13 13 14 14 14 15 15 15 14 13 14 15 16 17 17 18 18 19 20 21 22 22 23 23 23
8 8 8 8 8 8 9 8 8 9 9 9 9 9 8 7 7 7 8 8 9 9 9 10 9 10 10 11 12 13 13 12 12 12 13 13 13 14 15 15 16 16 17 18 19 20 21 22 22 23 23 23
8 9 8 8 8 8 8 8 8 8 8 8 8 8 7 7 7 7 8 8 9 9 9 10 10 10 11 11 12 13 13 13 12 12 12 13 14 15 16 16 16 16 17 17 18 19 20 22 23 23 23 24
8 8 7 7 8 8 8 8 7 7 7 7 7 7 6 7 7 7 7 8 9 9 10 11 11 11 12 12 13 13 13 13 13 13 13 13 14 15 16 16 17 18 18 18 18 19 20 22 23 23 24 24
8 8 7 7 7 7 7 7 7 7 7 7 6 6 6 7 7 7 8 8 9 10 10 11 12 12 13 13 14 14 14 14 14 14 14 14 15 15 16 17 18 19 19 20 20 20 21 22 22 23 24 25
9 8 8 8 8 8 7 7 6 6 6 6 6 6 6 7 7 8 8 9 9 10 11 12 13 13 14 15 15 15 15 15 15 15 15 15 16 16 17 18 18 19 20 20 21 22 22 22 23 23 24 25
9 9 9 9 8 7 7 6 5 5 5 5 5 6 7 7 8 8 9 10 11 12 13 14 15 15 16 17 18 18 18 18 18 18 17 17 17 17 18 18 19 19 20 21 21 22 22 23 23 23 23 24
10 10 9 8 7 6 5 5 4 4 4 5 6 7 7 8 8 10 10 11 12 13 15 15 17 17 18 19 19 20 20 20 20 20 20 20 19 19 19 19 19 19 20 21 21 21 22 23 23 24 24 24
10 8 7 6 5 3 3 3 3 4 5 6 7 8 8 9 10 11 12 13 14 15 16 17 18 18 19 19 20 21 21 21 22 22 22 22 21 21 21 20 20 20 20 21 22 22 22 23 23 24 24 24
8 7 6 4 3 1 2 3 4 5 6 7 8 9 10 10 11 12 13 14 15 16 17 18 18 19 20 20 20 21 21 21 22 22 22 23 23 23 23 23 22 22 22 22 22 22 23 23 24 24 25 25
6 5 4 3 1 0 1 3 4 5 6 7 8 9 10 11 12 13 14 15 16 16 17 18 18 19 19 20 21 21 21 22 22 23 23 23 23 23 24 24 24 24 23 23 22 22 23 23 23 24 24 25
5 4 3 2 1 1 1 3 4 5 6 8 9 10 11 12 13 14 14 15 15 16 16 17 17 18 18 19 20 21 21 22 22 23 23 24 24 24 24 24 24 24 24 24 23 23 23 23 23 23 24 25
4 3 2 1 1 1 2 4 5 6 8 9 10 12 13 14 14 15 15 15 16 16 16 16 16 16 17 18 18 19 20 21 21 22 22 23 23 24 24 24 24 24 24 24 24 24 24 23 23 23 23 24
3 3 2 1 1 2 4 5 6 8 9 10 11 12 13 14 14 15 15 16 16 16 16 16 15 16 16 16 17 18 19 19 20 21 21 22 22 23 23 24 24 24 25 25 25 25 24 24 24 24 24 24
3 3 2 2 3 4 5 6 7 8 9 10 10 11 13 13 14 15 15 16 16 16 16 15 15 15 15 16 16 17 18 19 20 20 21 21 22 22 23 24 24 25 25 26 26 26 26 26 25 25 25 25
4 3 2 2 3 4 5 6 7 8 9 10 10 11 12 13 14 15 15 15 15 15 15 15 15 15 15 16 17 17 18 19 19 20 20 21 22 22 22 23 24 24 25 26 26 27 27 27 27 26 25 25
4 3 3 3 3 4 5 6 7 8 9 10 11 12 13 13 14 14 15 15 14 14 14 14 14 14 15 15 16 17 18 19 19 20 20 20 21 22 22 23 23 24 25 26 26 27 27 27 27 27 26 24
5 4 4 3 3 3 4 6 7 8 9 10 11 12 13 14 14 14 15 14 14 13 13 13 13 13 14 15 16 17 18 19 19 19 19 19 20 21 22 22 23 23 24 26 27 27 27 27 27 26 26 24
6 5 4 3 3 3 4 5 7 8 9 10 11 12 13 14 14 15 15 14 14 13 12 12 13 13 14 15 16 17 18 18 18 19 20 20 20 20 21 22 23 23 24 26 27 27 27 26 25 25 24 22
7 5 4 3 3 4 4 5 7 7 8 9 10 11 12 13 14 14 14 14 13 13 12 12 13 13 14 15 16 16 17 17 18 19 19 20 20 19 19 20 21 22 24 25 27 27 26 25 25 24 20 17
8 7 6 5 5 5 5 6 6 6 7 8 8 9 10 11 12 12 13 12 12 12 12 12 13 13 14 15 16 16 17 17 18 19 19 20 20 20 18 18 18 20 23 25 26 25 25 25 23 20 14 10
11 10 9 9 8 7 6 6 6 6 6 7 7 8 9 11 11 11 11 11 11 11 11 12 12 13 14 14 15 16 16 17 17 18 19 19 19 19 19 18 17 19 23 25 24 24 26 24 20 15 8 4
14 13 12 11 10 9 7 7 7 6 6 7 7 8 9 10 11 11 11 11 11 11 11 12 12 13 13 14 14 14 14 15 15 16 17 18 18 17 18 18 16 19 21 20 19 22 24 21 15 8 3 2
16 14 13 12 11 10 9 8 8 7 7 7 7 8 8 9 10 11 11 12 12 12 13 13 13 14 14 14 14 14 14 14 14 15 16 16 16 14 15 15 13 17 17 12 13 15 15 13 9 4 2 3
17 15 14 13 13 12 11 10 9 9 8 7 7 7 7 8 9 10 10 11 12 13 13 14 14 14 15 14 14 14 14 14 14 15 15 15 14 12 13 11 11 14 12 9 12 10 6 6 6 4 4 5
18 16 16 16 15 14 13 12 11 11 10 9 7 7 7 7 7 8 9 10 11 12 13 14 14 14 15 14 15 14 14 14 14 15 15 14 13 13 11 9 9 12 11 9 9 6 4 4 4 3 4 11
21 20 20 19 17 16 15 14 14 14 13 11 9 8 7 7 6 6 7 8 10 11 12 13 14 14 14 14 14 14 13 13 14 14 15 14 13 13 11 8 9 11 10 8 6 4 4 3 2 2 7 14
24 24 23 22 21 20 19 19 19 18 15 13 12 10 9 8 6 6 7 8 9 10 12 13 13 14 14 14 13 13 13 13 13 14 14 13 13 12 10 7 8 9 8 7 5 3 2 4 4 5 8 8
27 27 27 26 26 25 23 23 23 20 16 14 14 12 11 9 7 7 7 8 8 10 11 12 13 14 14 14 13 12 13 13 12 13 13 12 12 11 8 7 7 8 7 7 6 4 4 6 7 7 7 4

ECMWFFLT2_925_spd_102.txt.gz
Wind_Speed
13 11 9 8 8 9 10 10 9 8 8 7 6 6 6 6 7 7 8 10 9 9 10 12 14 15 15 15 15 16 16 16 16 16 16 15 15 15 16 16 16 15 15 16 16 18 19 20 20 21 19 16
10 8 8 7 7 8 8 8 7 7 7 7 7 6 6 6 6 7 7 8 8 9 9 9 11 13 14 14 14 14 14 14 15 15 15 15 16 18 18 18 18 17 17 17 18 19 20 20 21 21 20 18
8 7 6 6 7 7 6 7 7 7 7 8 7 7 7 7 6 7 8 8 9 9 9 10 10 11 12 12 13 13 13 13 13 14 15 16 18 19 19 19 20 20 19 20 20 20 21 21 21 22 21 20
8 7 6 6 6 6 6 6 6 7 7 7 7 7 7 6 7 7 8 8 9 9 10 10 10 10 11 12 13 13 13 13 14 14 15 17 18 19 19 20 20 20 21 21 22 22 22 22 22 22 22 21
8 8 7 6 6 6 6 6 6 6 6 6 6 6 6 6 7 8 8 9 9 10 10 10 11 11 12 13 14 14 14 14 14 15 15 16 17 18 19 19 20 20 20 21 22 23 23 24 23 23 23 22
9 8 7 6 6 6 5 5 5 4 4 5 5 5 6 7 8 8 9 9 10 10 11 11 12 12 13 14 14 15 15 15 15 15 16 17 17 18 19 19 19 20 20 21 22 23 24 24 24 24 25 23
9 8 7 7 6 6 5 4 4 4 4 4 4 4 5 6 7 8 8 9 9 10 11 12 12 13 14 14 15 16 16 17 16 17 17 18 18 19 20 20 20 21 21 21 22 23 24 24 25 25 25 24
9 9 8 7 7 6 5 4 3 3 3 3 3 4 5 5 6 7 8 9 10 10 12 13 13 14 15 16 17 17 18 19 19 20 20 20 21 21 22 22 22 22 22 22 22 22 23 23 24 25 25 25
9 9 8 7 7 6 5 4 3 2 2 2 3 4 5 5 6 7 8 9 10 11 12 13 15 16 17 18 19 20 20 21 22 22 22 23 22 22 22 22 22 23 23 23 23 22 22 22 23 24 24 25
9 9 9 8 7 6 4 3 2 1 1 2 3 4 5 6 7 8 9 10 11 13 14 15 16 17 18 19 20 21 21 21 22 23 23 23 23 23 23 23 22 22 23 23 23 23 23 23 22 22 23 24
10 9 8 7 6 5 4 3 1 0 1 2 4 5 6 7 8 9 10 12 13 14 15 16 17 18 18 19 20 20 20 21 22 22 22 23 23 23 23 23 23 23 23 23 23 23 23 23 23 23 23 23
9 9 8 6 5 4 3 2 1 2 3 4 5 6 7 8 9 10 12 13 14 15 16 17 17 18 18 19 20 20 20 20 21 21 22 22 23 23 23 23 23 23 23 23 22 23 23 23 24 23 23 24
9 8 7 6 5 4 3 2 2 3 4 5 6 7 8 9 10 11 12 13 14 14 15 16 17 17 18 18 19 19 19 20 20 20 21 22 22 22 23 22 22 23 22 22 22 23 24 24 24 23 24 24
9 8 7 6 5 4 3 3 3 3 4 5 6 8 9 10 10 11 11 13 13 14 15 15 15 16 16 16 17 17 18 18 19 19 19 21 21 21 21 20 21 23 22 22 22 22 24 25 24 23 23 24
9 8 7 7 6 5 4 4 4 4 5 6 7 8 10 10 11 11 12 12 13 13 13 13 14 14 14 14 15 16 17 17 18 18 18 20 20 20 19 19 20 21 21 20 20 23 25 25 24 24 23 24
10 9 9 8 7 6 5 5 5 5 6 7 8 9 10 10 11 11 12 12 12 12 11 12 12 13 13 13 14 15 16 17 17 17 18 19 20 19 18 18 19 19 19 18 19 22 25 25 25 25 24 25
11 10 9 8 7 6 6 5 5 5 6 6 7 8 9 10 10 10 11 11 12 11 10 11 12 11 12 13 14 15 16 16 16 17 17 18 18 18 18 17 18 18 17 16 19 22 24 24 25 24 25 25
12 11 10 9 8 7 6 6 5 5 5 5 6 7 8 8 9 9 10 10 10 10 9 9 10 11 11 12 14 14 15 15 14 15 16 16 17 17 17 16 17 17 17 17 20 22 22 23 23 24 25 24
12 11 10 10 9 8 7 6 6 5 5 5 5 5 7 7 8 9 9 9 9 9 8 7 8 9 10 12 12 12 14 14 12 14 14 14 15 15 15 14 16 16 15 17 20 22 22 22 23 23 22 21
14 12 12 11 10 9 8 7 6 5 5 4 4 4 5 6 7 8 9 9 8 8 7 7 6 8 10 11 10 10 11 11 10 12 13 13 13 13 13 12 13 13 13 16 20 21 21 22 22 21 19 17
15 14 13 12 11 10 9 8 7 6 5 4 3 3 4 5 7 7 8 8 8 7 7 7 6 8 10 11 9 9 9 8 8 10 12 11 11 12 12 10 10 12 12 14 19 20 20 20 20 19 16 14
16 15 14 13 12 11 10 9 8 7 5 4 4 3 4 5 6 7 7 8 7 7 7 7 7 8 10 9 7 7 7 6 7 9 10 10 10 11 11 10 10 11 12 15 19 19 17 17 17 16 13 12
17 16 16 15 14 13 12 11 10 8 7 6 5 5 5 4 5 5 6 6 6 6 6 7 7 8 9 8 6 6 6 5 6 8 10 10 10 10 10 10 9 11 13 14 17 16 14 15 16 13 10 9
20 19 18 16 15 14 14 13 12 11 10 9 8 7 6 4 4 4 4 5 5 5 5 5 6 7 8 8 6 5 5 6 7 9 10 10 11 10 9 9 7 10 14 14 14 12 12 14 14 10 7 5
23 22 19 18 17 15 14 15 14 13 13 11 11 10 8 6 5 4 4 4 3 3 4 4 4 6 6 6 5 5 6 8 10 11 12 11 10 9 9 9 7 10 13 12 11 11 12 12 10 6 4 3
26 24 22 19 17 16 15 16 16 14 15 14 13 12 10 8 7 5 5 4 3 3 3 2 2 3 5 5 5 5 7 8 9 9 10 10 8 8 8 8 7 10 12 9 11 13 12 10 6 4 4 4
28 25 24 21 18 17 16 17 17 16 16 16 15 13 12 10 9 7 6 5 4 3 2 2 2 2 4 5 5 5 4 5 6 6 7 7 7 8 8 7 6 7 8 8 11 11 8 7 7 6 5 3
30 27 27 25 22 20 18 18 19 19 19 18 17 16 15 13 12 9 8 7 6 4 3 3 2 3 4 5 6 5 3 4 4 5 5 6 6 7 8 8 6 5 5 6 8 7 6 7 6 6 4 6
32 31 29 27 24 22 20 19 19 19 20 21 20 19 18 17 14 12 11 9 8 6 5 4 3 4 4 6 6 5 4 4 5 5 5 5 6 6 7 8 8 6 4 3 4 4 6 6 5 4 7 11
35 34 32 29 26 22 20 19 19 23 24 24 24 22 20 19 17 15 13 11 10 8 7 5 5 4 5 5 5 4 4 5 5 5 6 5 6 6 6 7 8 7 5 4 3 4 5 5 6 8 9 9
37 36 34 32 30 26 23 21 22 25 26 23 23 23 21 20 19 17 16 14 12 10 9 7 6 6 5 5 5 5 5 6 6 6 6 6 6 7 7 7 8 8 6 6 5 4 5 7 9 9 9 7

ECMWFFLT2_925_spd_105.txt.gz
Wind_Speed
9 8 7 8 8 8 8 8 8 7 7 7 7 7 7 8 8 8 9 9 9 9 10 12 14 14 15 15 15 15 15 15 15 16 17 18 19 19 20 20 20 20 20 21 23 23 24 24 23 24 19 13
8 7 6 6 6 7 7 7 8 7 7 7 7 7 7 8 8 8 8 8 9 9 10 10 11 12 13 13 14 14 14 14 15 16 17 18 18 19 20 20 21 20 21 21 22 23 24 23 23 23 17 14
8 6 6 5 5 6 6 7 7 7 7 7 7 7 7 8 8 8 8 9 9 10 10 10 11 11 12 13 13 14 14 14 15 16 16 17 18 18 19 20 20 20 21 21 22 23 23 23 20 18 16 15
7 6 6 5 5 5 5 6 7 7 7 7 7 7 7 8 8 9 9 9 9 10 10 10 11 11 11 12 13 14 14 15 15 16 16 17 18 18 19 19 20 21 21 22 22 23 24 23 17 17 19 15
8 7 7 6 6 5 5 5 6 6 6 6 6 7 7 8 8 8 9 9 10 10 11 11 11 12 12 13 14 15 15 15 16 17 17 18 19 19 20 20 21 21 22 23 23 24 24 22 17 20 22 15
10 9 8 7 6 5 5 5 5 5 5 5 5 6 7 7 6 7 9 9 10 10 11 11 12 12 13 14 15 17 17 17 18 19 19 20 21 21 22 22 22 22 23 23 23 23 22 20 19 22 21 15
10 10 9 7 6 6 5 4 4 3 3 4 4 5 6 5 6 7 8 9 10 11 12 13 15 15 16 17 18 19 19 20 21 21 21 22 22 21 22 21 20 21 22 22 23 22 20 20 20 21 19 16
10 9 9 7 7 6 5 4 3 2 2 2 3 4 4 5 6 6 6 9 11 10 10 12 15 16 17 18 20 20 20 21 22 22 22 22 22 21 21 21 19 20 20 21 22 20 20 21 21 21 17 15
9 9 8 7 7 7 5 4 3 1 1 2 3 3 4 5 7 6 6 9 10 9 9 10 12 13 15 16 18 19 18 19 20 20 19 21 21 19 19 20 19 19 19 20 20 19 20 21 22 21 17 16
10 9 8 8 7 6 5 5 3 2 1 2 3 3 4 4 5 5 5 8 10 10 9 10 11 11 13 14 15 17 15 17 18 16 16 17 18 18 18 18 18 18 17 18 17 17 20 22 22 21 18 18
9 9 8 9 8 7 6 5 4 3 2 3 3 3 3 3 3 4 4 7 10 10 9 11 12 10 12 12 13 15 14 16 16 13 14 15 15 16 16 15 15 16 16 15 14 14 18 22 22 21 20 20
9 9 9 9 8 7 6 5 5 4 3 3 3 3 3 2 2 3 3 6 7 7 8 11 12 10 10 10 12 13 12 14 15 12 12 14 14 14 14 13 13 15 15 13 12 12 15 21 21 19 20 21
9 10 10 9 8 8 7 5 5 5 3 2 2 4 4 2 2 1 2 4 5 5 7 9 10 8 8 9 10 11 11 12 12 11 11 13 14 13 12 11 11 14 13 12 12 12 15 21 19 16 18 19
10 10 10 9 9 9 7 6 7 4 3 3 3 4 5 4 3 2 2 3 4 4 5 6 6 6 6 7 9 10 10 11 11 10 10 12 14 13 12 10 11 12 12 12 11 11 16 20 16 15 16 16
10 10 10 10 10 8 8 8 7 5 5 5 5 5 6 5 4 3 4 4 4 3 3 4 4 5 5 6 7 9 10 11 11 9 10 12 14 13 11 10 10 11 11 11 10 11 15 17 15 15 15 15
11 10 11 11 10 9 10 9 7 6 6 6 7 7 5 4 4 3 3 5 5 3 2 3 4 4 5 5 7 8 10 12 10 8 9 11 12 11 10 9 9 10 11 10 11 11 13 14 14 14 15 15
12 11 12 12 10 11 11 9 8 7 7 7 7 7 5 4 3 2 2 3 4 2 0 2 3 3 3 5 7 8 9 11 8 7 9 10 10 9 9 9 9 10 10 10 11 12 13 14 13 13 14 14
12 12 13 12 10 12 12 8 8 8 8 8 7 7 6 4 3 2 2 2 2 1 1 0 2 2 2 4 7 7 8 8 6 6 9 9 9 9 9 9 10 10 10 10 11 12 13 14 13 13 13 13
12 13 13 12 11 12 12 10 9 9 9 9 7 7 7 5 4 3 2 1 0 1 2 2 1 1 1 5 6 4 6 7 4 5 7 7 8 9 8 9 9 10 10 11 12 13 14 14 13 13 13 12
13 12 13 13 12 13 13 11 10 10 10 10 9 8 8 7 5 3 2 1 1 2 3 3 2 1 3 6 4 3 5 5 4 5 7 7 7 8 8 9 9 9 10 10 13 15 15 14 13 13 12 12
14 13 13 12 13 14 15 13 11 11 12 11 10 10 9 8 6 4 3 2 2 3 3 3 3 2 4 5 3 3 3 3 3 5 6 7 6 7 8 9 9 9 10 11 14 15 14 14 13 12 12 11
16 14 13 12 13 14 15 14 12 13 13 12 12 11 11 10 7 6 4 3 3 3 4 3 3 2 3 4 2 2 2 1 3 4 6 7 7 7 8 8 8 9 10 13 15 16 14 13 12 13 12 11
16 15 14 13 13 14 15 14 14 14 14 14 13 13 13 11 9 8 6 4 4 4 4 3 2 1 1 2 1 1 0 0 1 3 5 6 7 7 7 7 8 8 10 14 16 16 14 13 14 14 11 9
17 16 16 15 14 15 15 15 15 16 15 15 14 15 15 13 11 10 8 6 6 6 6 5 4 2 0 1 2 2 2 1 2 4 5 5 6 7 6 7 6 7 11 14 15 13 12 14 16 14 10 9
20 19 18 17 17 17 16 16 16 17 17 16 15 16 17 14 13 13 11 9 8 7 8 8 6 4 2 2 2 3 3 3 4 4 4 5 5 6 6 7 6 6 10 13 12 12 13 15 14 10 8 7
21 21 20 19 18 17 16 17 17 17 18 17 17 18 19 17 16 16 14 12 11 10 9 9 8 7 5 4 5 4 4 3 3 3 3 4 4 4 5 7 6 5 8 9 10 12 13 12 9 8 8 9
22 21 21 19 17 17 16 17 18 17 17 17 18 20 21 20 19 19 17 15 14 13 12 11 10 10 8 7 7 6 5 4 2 2 2 2 3 4 5 6 5 3 4 7 10 11 9 7 7 8 8 6
24 20 20 19 17 16 16 16 16 16 16 17 19 22 23 23 23 22 20 18 17 15 14 13 12 11 11 8 7 7 7 7 6 5 4 3 2 3 4 5 5 3 3 4 7 7 6 7 6 5 5 5
26 21 19 19 17 16 16 15 15 17 17 18 20 22 24 25 25 24 22 20 18 17 15 14 13 13 12 11 8 7 7 7 7 6 5 4 3 3 3 5 6 5 4 4 3 4 5 6 4 4 7 11
27 24 22 22 20 20 19 18 19 21 21 21 22 24 24 25 26 25 24 22 20 19 17 16 15 14 14 12 10 9 8 8 7 7 6 4 3 3 4 4 6 6 5 5 5 6 6 6 6 7 9 8
29 27 25 25 24 24 23 23 23 22 21 21 22 24 24 24 26 27 26 24 23 21 20 18 17 16 15 14 12 11 10 9 8 8 8 6 5 4 4 5 6 6 6 6 6 7 7 9 10 10 9 7

ECMWFFLT2_925_spd_108.txt.gz
Wind_Speed
14 13 13 13 13 12 11 11 11 10 10 10 10 9 9 10 10 10 10 10 10 11 12 13 14 15 15 15 15 15 15 16 16 16 17 17 18 18 19 18 19 20 20 21 22 21 21 21 23 21 17 17
12 11 12 12 11 11 10 11 11 10 10 9 9 9 9 9 9 9 9 9 10 10 11 11 13 13 13 13 13 14 14 15 16 16 17 17 18 18 18 18 18 20 20 21 21 20 20 19 18 19 17 16
11 10 11 10 10 10 10 10 10 10 9 9 9 9 8 8 8 9 9 9 10 10 11 11 11 12 12 13 13 14 14 15 15 16 17 17 18 17 18 17 17 19 19 20 20 20 19 17 16 18 17 14
10 10 9 8 9 9 9 9 9 9 8 8 8 8 8 8 8 8 9 9 10 10 10 10 11 11 11 12 13 14 14 15 15 16 16 17 17 17 18 17 16 17 17 18 19 19 17 15 16 18 17 12
11 11 9 8 9 9 8 8 8 7 7 7 6 8 9 6 5 7 8 8 9 9 9 10 11 11 11 12 14 15 15 16 16 16 17 17 17 16 17 16 16 17 16 17 17 16 15 16 17 17 15 12
12 11 9 9 9 8 8 7 7 6 6 6 6 7 6 4 4 6 7 8 8 9 9 11 12 13 14 15 15 16 15 17 17 15 16 17 16 15 16 16 16 17 16 17 15 15 16 17 18 16 14 12
12 11 10 9 9 8 8 7 6 5 5 4 5 6 4 2 4 4 6 7 8 9 11 12 13 14 14 15 15 15 14 15 15 13 14 15 15 15 16 16 16 17 17 17 15 15 17 18 18 16 14 12
12 11 10 9 9 8 8 7 6 5 4 3 3 4 2 1 3 2 3 6 7 8 8 9 9 10 11 12 13 14 13 13 13 12 13 14 14 15 16 16 17 17 17 17 17 17 18 19 18 16 15 14
12 11 10 10 9 8 8 7 6 5 4 3 2 2 1 1 3 3 2 5 5 5 4 6 6 7 10 11 12 12 12 12 12 12 13 14 14 15 15 15 16 17 17 17 17 17 18 19 18 16 16 15
13 13 12 12 11 10 9 8 6 5 4 3 3 2 1 2 3 3 1 4 4 4 3 5 6 7 9 9 10 10 10 11 11 11 12 14 14 14 14 14 15 16 16 15 15 16 18 19 18 17 17 16
14 13 13 13 13 12 10 9 8 7 6 4 4 3 3 4 3 3 2 2 3 3 3 5 6 5 7 7 8 8 9 10 10 10 11 13 13 13 13 12 13 15 15 13 13 15 17 19 18 17 17 16
14 14 14 15 14 13 12 11 10 9 8 6 5 5 4 4 4 3 3 2 1 2 3 5 5 4 5 6 6 7 7 9 9 9 10 11 12 12 12 11 12 15 14 13 13 15 17 19 18 17 17 16
15 16 16 16 15 14 13 12 12 11 8 8 8 7 6 5 5 4 4 3 1 3 4 4 4 3 4 5 5 6 6 7 8 8 9 11 11 11 12 10 11 13 14 12 12 14 17 18 18 18 17 17
16 17 17 16 16 16 15 14 13 11 9 9 9 9 8 6 6 6 6 5 3 3 3 3 2 2 2 3 4 5 6 6 6 7 9 10 11 11 11 10 10 12 13 11 10 12 15 17 17 17 17 17
17 17 17 17 17 16 15 15 14 11 10 11 11 10 8 7 7 7 7 5 4 4 3 2 2 2 1 1 3 4 5 5 6 7 8 9 10 10 10 9 8 10 11 10 9 11 13 15 15 15 15 16
18 17 17 18 18 16 16 16 13 12 13 13 13 12 9 8 8 7 7 5 4 4 5 4 3 2 2 1 2 3 4 5 5 5 6 7 7 8 7 7 7 8 9 8 8 11 13 14 14 13 13 14
18 17 18 19 18 17 17 16 13 13 14 14 15 13 10 10 8 7 7 5 4 5 5 5 3 3 3 1 1 2 3 4 3 3 5 6 6 6 6 5 6 8 8 8 9 11 13 14 14 12 12 13
20 19 20 20 18 18 19 16 15 15 15 15 16 14 12 11 9 8 8 6 5 5 5 5 4 4 3 1 0 1 2 3 2 2 4 5 5 6 5 5 6 7 8 8 10 12 14 14 12 11 12 11
20 20 21 20 19 19 19 17 16 16 16 17 16 15 14 12 11 10 9 7 6 6 7 5 4 5 3 2 1 1 1 3 2 1 4 4 5 6 5 5 5 6 7 8 10 13 14 13 11 11 11 10
20 20 20 20 20 20 19 17 17 17 18 18 17 16 15 14 12 10 9 8 7 7 8 7 7 6 4 2 2 2 2 4 2 1 3 3 4 5 5 5 5 5 6 7 11 13 13 11 10 11 11 10
21 20 20 20 20 20 19 19 19 18 19 18 17 17 16 15 13 11 11 10 9 9 9 10 10 8 5 4 4 3 3 4 2 1 3 3 2 4 5 4 4 5 6 8 13 13 11 9 10 11 11 10
23 21 20 20 21 21 20 21 20 20 20 20 19 19 19 17 15 14 13 12 12 12 12 12 11 8 6 5 4 4 4 3 2 1 3 3 2 3 4 3 4 5 7 11 14 12 9 9 10 12 11 11
25 23 22 21 20 21 21 22 21 21 22 22 21 21 21 20 18 16 15 14 14 14 13 13 11 9 7 6 5 5 5 3 2 1 2 3 3 3 4 4 3 4 8 12 12 10 9 10 12 13 12 11
26 25 24 23 22 22 23 23 23 23 24 24 24 23 23 22 20 19 18 17 16 15 14 14 12 10 9 8 7 6 7 6 5 3 1 2 2 3 4 4 2 5 9 12 11 9 10 10 10 10 9 9
29 29 27 27 26 26 25 24 24 25 25 26 25 25 26 25 23 22 21 19 19 17 16 15 14 13 11 10 9 9 8 9 7 4 1 1 2 2 3 3 2 6 9 10 9 10 12 10 7 7 7 9
32 32 31 31 30 28 26 26 27 27 28 28 27 27 28 27 26 25 23 22 21 20 19 18 17 16 14 13 12 12 11 10 9 6 4 2 3 2 3 2 3 6 6 6 7 10 11 9 7 7 7 8
34 33 32 31 30 29 27 26 27 28 28 28 28 28 30 30 28 27 26 25 23 23 22 21 20 18 17 16 15 15 15 13 10 8 6 4 4 5 4 2 3 5 5 5 7 7 6 4 5 6 6 0
34 32 30 30 29 27 26 25 25 26 28 28 29 30 31 32 31 30 29 27 26 26 25 24 23 21 20 19 18 18 17 15 13 11 9 7 6 6 5 5 5 6 6 5 3 3 2 2 3 2 4 7
34 31 29 29 27 25 25 25 25 27 29 30 31 32 34 34 33 32 31 30 29 29 27 27 26 25 23 22 21 20 19 17 16 13 12 10 9 8 7 8 8 7 7 7 5 3 2 1 1 2 4 10
35 33 32 31 30 29 28 28 30 32 33 33 34 35 35 34 34 34 33 32 32 31 30 29 28 27 26 25 24 22 20 20 19 17 16 13 11 11 9 9 9 8 8 8 8 7 6 5 5 3 3 4
37 37 36 35 35 35 33 32 33 34 34 33 34 35 34 34 34 35 35 34 34 34 33 32 31 30 28 27 25 24 23 23 24 21 18 16 13 12 12 12 11 10 10 9 10 11 9 9 10 8 5 3

ECMWFFLT2_925_spd_111.txt.gz
Wind_Speed
17 17 17 17 16 16 16 16 16 15 15 15 14 14 13 13 13 13 13 12 12 12 13 13 13 13 13 13 13 14 14 14 14 14 14 14 14 14 14 14 15 16 16 16 16 15 15 15 14 14 15 14
16 15 16 15 15 15 14 14 13 13 13 12 11 11 11 11 10 10 10 11 11 11 11 12 13 12 12 11 11 12 12 12 13 13 13 13 13 13 12 12 13 14 14 15 14 13 14 14 13 12 13 13
16 15 15 15 14 14 14 13 12 12 11 11 10 10 10 9 9 9 9 9 10 10 10 10 11 11 11 10 10 10 11 11 12 13 13 12 11 11 10 10 11 12 12 12 12 12 13 13 12 11 11 11
16 15 15 14 14 13 13 12 11 11 10 9 9 8 9 8 8 8 9 9 9 9 8 9 8 9 9 10 10 10 10 11 11 11 12 10 10 10 9 10 10 11 11 11 11 12 12 12 11 11 12 11
17 16 15 14 14 13 12 11 11 10 9 8 7 7 7 8 7 7 8 8 8 7 7 7 7 7 9 10 9 9 9 9 9 9 10 8 9 9 9 10 10 10 10 11 12 12 12 11 11 11 11 11
17 16 15 14 13 12 12 11 10 9 8 7 6 5 5 6 6 6 6 6 6 5 5 6 6 7 8 9 8 8 8 7 7 7 8 7 8 9 9 9 10 10 10 11 12 12 12 11 11 11 11 11
17 16 15 14 13 12 11 11 9 8 8 7 6 5 4 4 5 6 5 4 4 4 4 5 6 6 7 7 7 7 7 6 6 6 7 7 8 8 9 10 10 10 10 11 12 12 12 12 12 12 12 12
17 17 16 15 13 12 12 11 10 9 7 7 5 5 5 3 4 5 5 3 3 3 4 5 4 5 6 6 6 6 6 5 6 6 6 7 7 8 9 10 10 10 10 11 12 12 12 12 12 11 12 12
18 18 17 15 14 14 13 12 11 10 8 8 6 6 6 5 4 5 4 2 2 2 2 3 3 4 5 5 5 5 5 5 5 6 6 7 7 8 8 10 10 10 10 11 12 13 13 12 11 11 12 12
18 18 18 16 16 15 15 14 12 11 10 9 7 7 7 7 7 6 4 2 2 1 1 1 2 4 4 4 4 4 4 4 5 6 6 7 7 8 8 9 10 9 10 10 11 12 12 12 12 12 12 11
18 19 18 17 17 17 16 15 14 13 12 10 9 8 8 8 8 7 5 4 3 3 2 0 2 3 3 3 2 3 3 3 4 5 5 6 6 7 7 8 9 9 9 9 11 12 12 12 12 12 12 12
20 19 18 18 17 17 17 16 15 14 12 12 10 9 9 9 9 8 7 6 5 4 3 2 3 3 3 2 1 1 2 2 3 4 4 5 5 5 6 7 8 8 8 9 10 11 11 11 11 11 11 11
21 20 19 19 19 18 18 17 16 14 13 12 11 10 10 11 11 10 9 8 7 6 4 3 4 4 3 2 0 0 1 1 2 3 4 4 4 5 5 6 8 7 7 8 8 10 10 11 11 10 10 11
23 22 21 21 21 20 20 19 17 16 15 14 13 12 12 12 12 12 11 10 9 7 6 5 5 5 4 3 2 2 1 2 2 3 3 3 4 4 5 5 6 6 6 6 7 8 9 10 9 9 9 10
25 24 24 23 23 22 22 21 19 18 17 16 15 14 14 14 13 13 12 11 10 9 8 7 6 6 5 4 3 3 3 3 3 3 3 3 3 4 4 4 4 5 5 5 6 7 8 8 8 8 8 8
27 26 25 25 25 24 24 23 21 20 20 18 17 15 15 16 15 14 13 12 11 10 9 9 8 7 7 5 4 4 4 4 3 3 2 2 3 3 3 3 3 3 4 4 5 7 7 7 6 6 6 6
27 27 27 27 27 26 26 25 23 22 22 20 19 17 17 17 17 15 15 14 13 12 11 10 10 9 8 6 6 5 5 4 3 3 2 2 2 2 2 2 2 3 3 4 5 6 7 6 5 5 5 4
29 29 28 28 27 27 28 26 25 24 23 22 21 19 19 19 18 17 16 15 15 13 12 12 11 10 8 8 7 6 6 5 5 4 3 2 2 2 1 1 1 2 2 4 5 6 6 5 5 5 5 3
30 30 29 28 28 28 28 27 26 26 25 24 23 21 20 20 19 19 18 16 15 14 13 13 13 11 10 9 8 8 7 6 6 5 3 3 3 2 1 1 1 1 2 3 5 6 5 4 4 5 5 3
31 30 29 29 29 29 29 28 27 27 26 26 24 23 21 21 20 20 19 17 16 16 15 14 14 12 11 11 10 9 9 8 6 6 4 3 3 2 1 1 0 1 2 3 5 5 4 4 5 5 5 3
31 31 30 30 29 29 29 28 28 28 27 27 26 25 23 22 22 21 20 18 18 18 17 16 15 14 13 13 11 11 11 9 8 7 6 4 4 3 2 1 0 1 2 4 5 5 4 4 5 5 3 3
32 32 31 30 30 30 29 29 29 28 29 29 28 27 25 24 24 23 22 21 20 20 19 18 16 15 15 15 14 13 13 12 11 9 8 6 5 4 3 2 1 1 2 4 4 4 4 5 5 4 2 0
32 32 31 31 30 30 30 30 30 30 30 31 30 29 27 27 26 25 24 23 23 21 21 20 18 17 17 17 16 16 15 14 13 12 10 8 7 6 5 3 2 1 1 3 3 4 5 6 5 3 2 2
33 32 32 32 31 32 33 32 31 31 32 32 32 31 29 29 28 26 26 26 25 23 23 22 21 20 20 19 19 19 18 16 15 14 12 10 9 8 7 5 3 2 1 3 3 4 6 5 3 1 1 4
37 36 35 35 36 36 36 34 33 33 34 33 33 32 31 31 29 28 28 28 27 26 26 25 23 23 22 22 22 21 19 17 16 14 13 12 11 10 9 7 6 4 3 2 3 4 6 4 1 2 3 6
41 41 40 39 39 39 37 36 36 36 36 36 35 34 33 33 32 31 30 30 30 29 28 28 27 26 25 25 24 22 20 18 18 16 15 15 13 12 10 8 8 7 5 3 1 2 5 4 1 1 3 5
44 44 43 41 39 38 37 37 37 37 37 36 36 36 36 36 35 34 33 33 32 32 32 31 30 29 28 27 26 25 23 22 21 19 18 17 15 14 12 10 10 10 8 6 3 2 1 2 2 2 2 3
45 43 41 40 38 36 36 35 35 36 36 37 38 38 38 39 39 38 37 36 36 35 35 34 33 32 31 30 29 28 27 26 24 23 22 20 18 17 16 15 14 13 10 9 6 4 2 1 2 1 2 2
43 40 39 37 34 31 31 32 32 34 37 39 40 41 42 43 42 40 39 39 38 38 37 36 35 34 33 33 32 31 30 28 26 25 24 23 22 20 19 18 17 16 14 12 10 8 5 2 1 2 1 1
42 41 39 38 35 33 32 32 34 39 42 42 43 44 44 44 43 42 42 41 41 40 40 39 38 37 36 35 34 34 33 30 28 28 27 25 24 22 19 18 19 20 19 15 14 13 10 7 6 6 5 2
41 41 40 40 41 40 38 37 40 44 43 42 43 43 42 43 44 44 44 43 43 42 42 41 40 40 39 38 37 36 35 34 32 31 29 27 26 24 21 21 22 23 23 19 17 17 15 13 13 11 8 5

ECMWFFLT2_925_spd_114.txt.gz
Wind_Speed
21 20 20 20 20 20 19 19 19 19 18 17 17 16 15 15 14 14 13 13 13 12 11 11 11 11 11 11 11 10 11 12 12 12 12 11 9 10 10 11 11 10 10 10 10 10 9 9 9 10 10 12
20 19 19 19 18 18 17 17 17 17 17 16 16 16 16 16 15 15 14 14 14 12 11 11 11 10 10 11 11 11 11 12 12 12 10 9 7 7 8 9 10 9 8 9 9 9 8 8 8 8 9 10
20 19 18 17 17 16 16 16 16 16 15 15 14 14 14 14 14 14 13 13 13 13 12 12 11 10 9 9 10 11 11 11 12 10 8 7 6 7 7 7 8 7 7 8 8 8 8 7 7 7 8 9
21 20 18 17 16 15 15 15 15 14 13 13 13 12 12 12 12 12 12 13 12 12 11 10 11 10 9 7 8 9 10 10 10 8 6 6 5 6 6 6 6 6 7 7 7 7 7 7 6 7 7 8
22 21 19 18 17 16 15 15 14 14 13 13 12 12 11 11 11 12 12 12 11 11 10 9 10 10 8 6 6 6 7 8 8 5 4 5 5 6 6 6 6 6 7 7 7 7 7 6 6 7 7 8
22 21 19 18 18 17 16 15 14 14 13 12 12 12 11 11 11 12 12 11 11 10 9 9 8 7 6 4 4 4 4 5 6 5 4 5 5 6 6 6 7 7 7 7 7 7 7 6 7 7 7 7
22 21 20 19 19 18 17 15 14 14 13 12 12 12 11 12 12 12 12 11 11 9 9 9 7 5 4 3 3 3 3 4 5 4 4 5 5 6 6 6 7 7 8 8 7 7 7 7 7 7 7 7
22 22 21 21 20 18 17 16 15 14 13 12 13 12 11 11 12 12 12 11 10 9 8 7 6 4 2 2 2 2 3 4 4 4 4 5 5 5 6 6 6 7 8 8 8 7 7 7 7 7 7 8
23 23 23 22 20 19 18 17 16 14 13 13 13 12 12 11 12 12 12 11 9 9 8 7 5 3 1 1 1 2 3 4 5 5 4 4 5 5 6 6 6 7 7 8 8 7 8 7 7 7 7 8
24 24 24 23 22 21 20 18 17 15 14 14 13 13 12 12 13 13 12 11 9 9 8 7 5 3 2 2 2 3 4 5 5 5 5 5 5 5 5 6 6 6 7 7 7 7 7 7 7 7 6 7
26 25 25 24 24 23 21 20 18 17 16 15 14 14 13 12 13 13 13 11 10 9 8 7 5 4 3 3 3 4 4 5 5 5 5 5 5 5 5 5 5 6 6 7 7 7 7 7 7 7 6 6
26 26 25 25 25 24 23 22 20 18 17 16 16 15 14 13 13 14 14 13 11 10 9 8 6 5 4 4 5 5 5 5 6 5 5 5 5 5 5 5 5 5 5 6 7 7 7 6 6 6 6 6
27 27 27 27 26 25 24 23 21 20 19 18 18 17 16 15 14 15 15 14 12 12 11 9 7 6 6 5 6 6 6 6 6 6 6 6 6 6 5 5 5 4 5 6 6 6 6 6 6 6 6 6
29 29 29 29 27 26 25 24 22 22 21 20 19 18 17 16 16 16 16 15 14 13 12 10 9 8 7 7 7 7 7 7 7 7 7 6 6 6 6 5 5 4 4 5 5 5 5 5 5 5 5 6
31 31 30 29 28 27 27 25 24 24 23 22 21 19 18 18 17 16 16 16 15 14 14 12 10 9 9 9 9 9 9 9 8 8 8 7 7 6 6 6 5 4 4 4 4 4 4 4 4 4 5 5
32 32 31 30 29 29 28 27 26 26 24 23 22 20 20 19 18 18 18 17 16 16 15 13 12 11 11 11 11 11 10 10 10 10 9 8 8 7 7 6 6 5 5 4 4 3 3 3 3 4 4 5
33 33 32 31 30 30 29 28 28 27 26 24 23 22 22 21 20 20 19 19 18 17 16 15 14 13 12 12 12 12 12 11 11 11 10 10 9 8 7 6 6 5 5 5 4 3 3 3 4 4 4 5
34 34 33 32 31 31 30 29 29 28 27 26 25 24 24 23 22 21 21 20 19 18 17 16 15 15 13 13 13 13 13 12 12 12 11 10 9 8 7 7 6 6 5 5 3 3 3 3 4 4 4 5
36 36 35 34 33 32 32 31 31 30 29 28 27 27 26 25 24 23 23 22 21 20 19 18 17 16 15 14 14 14 14 13 13 12 11 11 10 9 8 8 7 6 6 5 4 3 3 3 4 4 4 6
37 36 36 35 34 34 33 33 33 32 31 30 29 29 28 27 26 25 24 23 22 22 21 21 19 18 17 17 16 16 16 15 14 13 13 12 11 10 10 9 8 7 6 5 4 3 4 4 4 4 4 6
38 38 37 37 36 35 35 35 34 34 33 32 32 32 30 29 28 27 26 25 24 24 24 23 21 19 18 18 18 18 18 16 15 15 14 13 13 12 11 10 9 8 7 6 5 4 4 4 3 4 5 7
39 39 38 37 37 37 37 36 36 35 35 35 35 34 32 31 30 29 28 27 26 26 26 25 23 21 20 20 20 19 19 18 17 17 16 15 14 13 11 10 9 8 7 6 5 4 4 4 3 4 6 7
39 38 38 38 37 37 38 38 38 38 38 38 37 36 35 33 32 31 30 29 28 28 28 27 25 23 22 22 22 21 21 20 20 19 18 17 15 14 13 11 10 9 9 7 6 5 4 4 4 5 6 8
39 38 38 38 38 39 40 40 40 40 40 39 39 38 36 35 34 33 31 30 30 30 30 29 27 25 24 25 25 24 25 24 23 22 21 19 18 16 15 14 13 12 10 8 6 5 4 4 5 6 6 8
41 40 39 38 40 42 42 41 41 40 41 40 40 39 38 37 36 35 33 33 32 32 32 31 30 28 28 28 28 27 26 25 24 23 22 20 19 18 18 17 15 14 11 8 6 5 4 4 5 7 7 9
43 44 42 41 43 43 42 41 42 42 43 42 41 40 40 39 38 37 36 35 34 34 34 34 33 32 31 30 30 29 27 26 25 25 24 23 22 21 20 18 16 17 14 9 8 5 3 2 4 7 8 9
44 45 45 43 42 41 40 40 42 43 42 42 42 42 41 41 41 40 39 38 37 36 37 36 36 35 33 33 32 31 30 29 29 28 28 26 25 24 22 19 18 20 16 12 11 6 2 1 2 4 6 7
45 43 42 41 38 37 37 37 38 39 39 41 42 42 43 44 44 43 42 41 39 39 39 39 38 37 36 35 35 34 34 33 33 32 31 30 28 27 26 23 22 22 20 17 13 6 2 1 2 2 4 6
43 40 38 37 33 30 30 31 31 34 38 40 42 44 46 46 46 45 44 43 42 41 40 41 40 40 39 38 37 37 37 37 36 35 35 34 32 31 30 27 24 24 23 23 18 9 4 3 1 3 4 5
42 40 38 37 34 31 30 30 32 37 41 42 43 46 46 46 45 45 45 44 44 43 42 42 42 41 41 40 40 39 39 39 38 38 38 37 35 34 32 28 25 26 26 25 23 19 12 7 4 4 6 5
42 41 40 39 39 38 36 35 37 41 42 41 42 43 43 43 44 45 46 45 45 45 44 44 43 43 43 43 42 41 41 41 41 41 40 39 37 35 33 30 28 28 28 26 26 25 21 16 11 7 8 6

ECMWFFLT2_925_spd_117.txt.gz
Wind_Speed
22 22 22 22 21 20 20 19 18 18 19 18 17 16 15 14 14 13 11 11 10 10 10 9 8 8 7 7 7 8 8 9 9 8 7 8 8 9 9 8 7 7 7 7 7 7 8 8 9 9 8 9
23 23 22 22 21 20 19 19 19 19 19 19 18 18 17 18 17 15 14 13 12 11 10 9 8 8 8 8 8 9 9 9 8 6 5 5 6 6 6 6 6 6 6 6 6 6 7 7 7 7 7 8
24 23 23 22 20 20 19 19 19 19 20 19 19 18 18 18 18 18 17 16 14 13 11 10 10 9 9 9 9 9 10 9 7 6 5 4 4 5 4 4 5 6 5 5 5 5 6 6 6 6 6 7
25 24 23 21 20 19 19 18 18 19 19 18 18 18 17 17 18 18 18 18 16 13 13 14 12 10 10 10 10 10 10 8 6 5 4 4 4 4 3 3 4 5 5 5 5 5 5 5 5 5 6 7
26 24 23 21 20 20 19 18 18 18 17 17 17 16 16 16 16 16 16 17 16 13 15 16 13 11 10 10 9 9 8 7 5 4 4 4 4 3 3 3 3 4 4 4 5 5 5 5 4 5 5 6
26 25 24 22 22 21 20 19 18 17 16 16 16 16 15 15 15 14 15 15 15 14 15 15 13 12 11 9 8 8 8 7 5 4 4 4 4 4 4 3 3 3 3 4 4 4 5 4 4 4 4 5
27 26 25 23 23 21 20 19 18 16 16 16 16 16 15 15 15 15 15 15 16 15 15 14 12 11 9 8 7 7 7 7 6 5 5 5 5 5 5 5 4 4 4 3 4 4 4 4 4 4 4 4
28 27 25 24 23 22 21 20 18 17 16 16 16 16 15 15 15 15 16 16 16 15 14 14 12 10 8 7 6 6 6 6 6 5 5 5 5 6 6 6 6 5 5 4 4 4 4 4 4 4 4 4
29 28 27 25 24 23 22 20 19 18 17 17 17 16 16 15 15 16 16 16 16 14 14 13 11 9 7 6 5 6 6 6 6 5 6 6 6 6 6 6 6 6 6 5 5 5 5 4 5 5 5 5
29 29 28 27 26 25 23 22 21 20 19 18 17 17 16 16 16 16 16 16 15 14 13 13 11 9 7 6 5 6 6 7 7 6 7 6 6 6 6 7 7 7 7 6 6 5 5 5 5 5 5 6
30 30 29 27 27 26 25 24 22 21 20 19 18 18 17 16 16 16 17 17 16 15 14 13 12 10 8 6 6 6 7 7 7 7 7 7 7 7 7 7 7 7 7 7 7 6 6 5 5 5 5 5
31 30 29 28 27 26 25 24 23 22 21 20 19 18 17 16 16 16 17 17 17 16 15 14 12 10 8 7 7 7 7 8 8 8 7 7 7 7 7 7 7 7 7 7 7 7 7 6 6 5 5 5
31 31 30 29 29 27 26 25 23 22 22 21 20 19 18 17 17 17 17 17 17 16 15 14 13 11 9 8 8 8 8 9 9 9 8 8 7 7 6 6 6 7 7 6 6 6 6 6 6 6 6 5
33 32 31 31 30 28 28 26 25 24 23 22 22 21 19 18 17 17 17 17 18 17 16 15 14 12 10 9 9 9 9 9 10 9 9 8 8 7 7 7 6 6 6 6 6 6 6 6 6 6 6 6
34 33 33 32 31 30 29 28 27 26 25 24 23 22 20 19 19 18 17 17 18 18 17 16 15 13 11 10 10 10 10 10 10 10 9 9 8 8 7 7 6 6 6 6 5 5 5 5 5 5 6 6
35 35 34 33 32 31 30 29 29 28 27 26 24 23 22 21 20 19 18 18 18 18 18 17 16 14 13 11 11 11 11 11 11 11 10 10 9 9 9 8 7 7 6 5 5 5 5 5 5 5 6 6
37 36 36 35 34 33 32 31 31 30 29 28 26 25 24 23 22 21 20 19 19 19 19 18 17 16 14 12 12 12 12 12 12 12 12 12 11 10 10 9 9 8 7 6 6 6 6 5 6 6 6 6
39 38 37 36 35 34 34 34 33 32 31 29 28 27 26 25 24 23 22 21 20 20 20 19 18 17 15 14 13 13 14 14 13 13 14 13 13 12 11 11 10 9 9 8 7 7 7 6 7 7 7 7
40 40 38 37 37 36 36 35 35 34 32 31 30 29 28 27 26 25 24 23 22 21 21 21 20 19 17 16 15 15 16 15 15 15 15 15 14 14 13 13 12 11 10 10 9 9 8 8 8 8 8 9
42 41 39 39 38 38 38 37 36 35 34 33 32 31 31 30 29 27 26 24 24 23 22 22 22 21 19 18 17 17 17 17 17 17 17 17 16 15 15 14 13 12 12 11 10 10 9 9 9 9 9 10
43 42 40 40 39 39 39 38 37 36 35 34 34 34 33 32 31 29 28 27 26 25 24 24 23 22 21 20 19 18 19 19 19 18 18 18 18 17 16 15 14 13 13 12 11 11 10 10 10 10 10 11
43 42 41 40 40 40 39 39 38 37 37 36 36 36 35 34 32 31 30 29 28 27 26 25 25 24 23 22 21 20 21 21 20 20 19 20 19 18 17 16 15 14 13 13 12 12 11 12 11 11 11 12
42 41 40 39 39 39 39 39 39 38 39 38 38 37 36 35 34 33 32 31 30 29 28 28 27 26 25 24 23 22 23 23 22 22 21 21 20 19 18 17 15 14 14 14 13 13 13 13 12 12 12 13
40 38 38 38 37 38 40 41 41 41 41 40 40 39 38 37 36 36 34 33 32 31 31 30 29 28 27 27 26 25 26 26 25 24 24 23 22 21 20 19 17 16 16 15 14 13 13 12 12 13 13 14
41 40 38 38 38 40 42 42 42 42 43 43 42 42 40 40 39 38 37 35 35 34 33 32 31 30 30 29 29 28 28 27 26 26 25 24 23 23 22 22 20 19 17 15 13 11 11 11 11 12 13 13
43 44 43 41 42 43 43 43 43 44 45 45 44 43 43 42 40 39 39 38 37 37 36 35 34 33 33 32 31 30 29 28 28 27 27 26 26 25 24 23 22 22 18 14 12 9 6 7 8 10 13 13
45 46 45 44 43 43 41 41 43 44 44 44 44 44 43 43 42 41 41 41 40 39 38 37 37 36 35 34 33 33 31 31 30 30 29 29 28 26 25 24 23 24 22 16 12 7 3 3 3 5 11 14
46 44 43 42 40 38 37 36 38 39 39 40 42 43 43 44 44 43 43 43 42 41 40 39 39 38 37 36 36 35 34 34 33 33 32 31 31 29 27 27 25 25 25 22 14 7 2 1 2 2 7 11
44 41 39 37 34 31 30 30 30 32 35 38 39 42 45 46 46 45 44 44 44 43 42 41 40 40 39 38 37 37 37 36 35 34 34 33 33 33 31 29 27 26 28 28 21 12 4 3 1 3 4 5
42 40 38 37 34 31 29 28 30 34 38 40 42 44 46 46 46 45 45 45 45 44 44 43 42 41 41 40 40 39 39 38 37 36 36 36 35 36 35 30 26 27 29 30 28 21 12 5 2 2 5 5
41 41 40 40 40 38 36 34 36 39 40 41 43 44 44 44 45 45 46 46 46 45 45 44 44 43 43 42 41 41 40 40 39 39 38 38 38 37 37 33 29 29 29 28 30 30 23 14 6 4 6 5

ECMWFFLT2_925_spd_120.txt.gz
Wind_Speed
22 22 22 21 21 21 20 20 20 20 19 18 17 16 15 14 14 13 12 11 10 10 9 9 8 8 8 8 8 8 9 10 10 10 10 9 8 7 7 6 6 7 7 7 8 8 8 9 9 10 9 11
23 24 23 22 22 22 21 21 20 20 19 18 17 17 16 16 15 14 12 12 11 11 10 9 8 8 8 8 8 8 9 9 8 8 7 6 5 5 5 5 5 5 6 6 6 6 7 7 8 8 8 9
25 25 23 23 23 22 21 20 20 19 19 19 19 19 19 19 18 15 13 13 12 11 11 10 10 9 8 7 7 7 7 7 6 5 4 4 3 3 4 4 4 4 5 5 5 6 6 6 6 7 7 8
26 25 24 24 23 21 20 19 19 19 20 19 19 20 21 20 19 18 17 15 14 13 12 12 11 9 8 7 7 7 7 6 4 4 3 3 2 1 2 3 3 4 4 4 5 5 5 5 5 5 6 7
26 25 24 23 22 21 20 19 19 20 20 19 18 19 19 19 18 19 19 18 16 14 13 12 12 11 9 8 7 8 7 5 4 4 3 3 2 2 1 2 2 3 4 4 4 5 4 4 4 4 5 5
27 26 25 24 22 22 21 21 21 20 19 18 17 17 18 17 17 18 18 18 16 14 13 13 13 13 11 10 9 9 7 6 4 4 4 3 3 2 2 2 2 2 3 4 4 5 4 4 4 4 5 5
28 28 26 25 23 23 22 22 21 19 18 17 16 16 16 16 17 17 17 17 16 14 14 15 14 14 13 11 10 9 7 6 5 4 4 4 3 3 3 2 2 2 3 3 4 4 4 4 4 4 5 4
30 29 27 26 25 24 24 23 21 19 18 17 16 16 16 16 16 17 17 17 17 16 16 15 14 14 12 11 9 8 7 6 5 4 4 4 4 4 4 3 3 3 3 3 4 4 4 4 4 4 5 5
32 31 29 27 26 25 24 23 21 20 19 18 17 17 16 16 16 17 18 17 17 16 16 15 14 12 10 9 8 8 7 6 6 4 4 5 5 5 5 4 4 4 3 3 3 3 4 4 4 4 5 5
33 32 30 29 28 27 25 24 22 21 20 19 19 18 17 17 17 18 17 17 17 17 16 15 14 13 11 10 8 8 7 7 7 6 6 6 6 6 6 5 5 5 5 4 4 4 4 4 4 4 5 5
33 33 31 30 29 28 27 25 24 23 22 21 20 19 19 18 18 18 18 18 17 17 16 15 15 14 12 10 9 8 7 7 7 7 7 7 7 7 7 6 6 6 5 5 5 4 4 4 4 4 5 5
34 33 32 31 30 29 28 26 25 24 22 22 22 21 19 18 17 17 17 18 17 17 17 16 16 14 13 11 9 8 8 8 8 8 8 8 8 8 8 7 7 7 6 6 5 5 5 4 4 4 5 5
35 34 33 33 32 30 29 28 26 24 24 23 23 22 20 19 18 18 17 17 17 18 17 17 17 15 13 11 9 8 8 8 8 8 8 8 8 8 8 8 7 7 7 6 6 6 5 5 4 5 5 5
37 36 35 35 33 32 30 29 27 25 25 24 24 23 22 20 19 18 17 17 17 18 18 18 17 16 14 12 10 9 8 8 8 9 8 8 8 8 8 8 8 7 7 7 7 6 6 6 5 5 5 5
39 38 37 36 34 33 31 30 28 27 27 26 25 24 23 22 21 19 18 17 17 17 18 18 17 16 15 13 11 9 9 9 9 9 9 9 8 8 8 8 8 7 7 7 7 7 7 7 6 6 6 5
41 40 38 37 36 34 32 31 30 29 29 28 27 26 24 23 22 21 19 18 17 17 18 18 17 17 15 14 12 11 10 10 10 11 10 10 10 9 9 8 8 8 8 7 7 7 7 7 7 7 7 6
42 41 40 38 37 35 34 33 32 32 31 30 29 28 26 25 23 22 21 19 18 18 17 17 17 17 16 14 13 11 11 11 12 12 12 12 11 11 10 9 9 9 8 8 8 8 7 8 8 8 8 7
43 43 41 39 38 37 36 35 35 34 33 32 30 29 28 26 25 24 22 21 20 19 18 18 18 18 17 16 15 13 13 12 13 13 13 13 12 12 11 10 10 9 9 9 8 8 8 8 8 8 8 8
45 44 42 41 40 39 38 37 37 36 35 33 32 31 29 28 27 25 24 23 21 20 19 19 19 18 18 17 16 15 14 13 13 13 13 14 14 13 12 12 11 10 10 9 9 9 9 9 9 9 9 9
46 45 44 42 41 41 40 39 39 38 36 35 34 32 31 30 29 28 26 25 23 22 21 20 20 19 19 18 18 17 16 15 15 14 15 15 15 14 14 13 13 12 12 11 11 10 10 10 10 10 10 10
46 45 44 44 43 42 41 41 40 39 38 37 35 34 33 32 31 30 28 27 26 24 23 22 21 20 20 20 20 19 17 16 16 16 16 16 16 16 15 14 14 14 13 13 13 12 12 11 11 12 12 12
46 44 44 44 43 43 42 42 41 40 40 38 37 36 35 35 34 32 30 29 28 27 25 24 23 22 21 22 21 21 19 18 17 17 17 17 17 17 17 16 16 15 15 14 15 14 14 13 13 13 13 13
43 41 41 40 40 40 40 41 41 41 40 39 38 38 38 37 35 34 33 32 31 29 28 27 26 25 24 24 23 23 22 20 20 19 19 19 18 18 18 18 17 16 15 15 16 16 15 14 15 15 15 15
39 38 37 36 36 37 38 40 41 41 41 40 41 41 40 39 38 37 36 35 33 32 31 30 29 28 27 26 26 25 25 24 23 22 21 21 21 20 20 20 19 18 16 16 16 16 16 15 15 16 16 16
40 39 37 35 36 37 38 40 41 41 43 43 43 43 42 41 40 39 38 37 35 34 33 32 31 30 29 28 28 28 27 26 24 23 23 22 22 22 22 22 21 20 17 14 14 14 15 16 16 16 17 17
43 44 43 40 40 40 41 42 43 44 45 46 45 44 43 42 41 41 39 38 37 36 35 35 35 34 32 31 30 29 28 27 26 25 25 24 24 23 23 23 21 21 18 13 12 9 6 10 14 16 17 18
45 46 45 44 43 43 43 44 45 46 45 44 44 44 44 43 42 41 40 39 38 38 38 38 37 36 35 33 32 31 31 30 29 28 27 27 26 24 23 23 22 23 21 16 12 6 2 4 5 9 15 19
45 44 43 42 41 40 40 39 39 40 39 39 40 42 42 43 43 42 41 41 41 40 40 40 39 38 37 35 34 34 33 33 32 31 30 29 29 27 24 24 24 24 24 21 15 7 1 1 1 3 8 14
43 40 38 37 34 31 31 29 29 31 33 34 36 38 41 43 43 43 43 42 42 42 41 41 40 39 38 37 36 36 35 35 34 33 32 31 31 31 29 27 26 24 25 27 24 14 5 2 2 3 3 6
42 39 38 36 34 30 27 26 27 32 35 36 39 41 42 43 43 44 44 43 43 43 42 42 41 41 40 39 38 38 37 36 35 35 34 34 33 33 32 30 26 25 27 28 29 25 15 7 4 3 4 5
42 41 39 39 39 37 35 33 33 36 38 40 42 42 42 42 42 43 44 44 44 44 44 43 42 42 41 41 40 39 38 38 37 37 36 35 35 34 34 32 29 28 29 27 29 33 28 18 9 5 6 5

ECMWFFLT2_925_spd_123.txt.gz
Wind_Speed
25 24 23 23 22 21 21 20 19 20 19 19 18 17 17 16 15 15 14 12 12 11 10 10 10 10 9 10 10 11 11 10 11 10 11 11 11 10 8 8 9 10 10 11 12 12 13 13 14 14 14 15
26 26 24 23 22 22 22 21 20 21 20 19 18 18 18 17 17 16 14 13 12 12 11 11 10 10 9 10 10 10 10 10 10 9 10 9 9 8 7 7 7 8 9 10 10 11 11 12 12 12 12 14
27 27 25 24 24 23 22 21 21 21 20 19 19 19 19 19 18 16 15 15 14 14 14 13 12 10 10 9 10 10 9 9 9 9 9 8 7 7 6 6 6 7 7 8 9 9 10 10 11 11 11 13
28 28 26 26 25 24 23 23 22 21 21 21 21 20 20 19 19 18 17 17 16 15 15 15 14 11 10 10 9 9 9 9 9 9 7 5 5 5 5 5 5 6 6 7 7 8 9 9 9 10 11 12
28 28 27 27 26 25 25 24 23 23 23 23 22 21 20 20 20 20 20 19 17 15 14 14 14 12 11 10 9 9 9 9 8 6 4 4 3 3 3 4 4 5 5 6 6 7 7 7 8 9 10 11
28 29 28 27 28 27 26 26 25 25 24 23 21 21 20 20 20 19 19 19 17 15 13 14 15 14 11 11 10 9 9 8 7 6 4 3 3 2 2 3 4 4 5 5 5 6 6 6 6 8 8 9
29 29 29 29 29 28 27 26 26 25 23 22 20 20 20 20 20 19 18 18 16 14 14 14 15 16 14 13 12 10 9 8 6 4 3 3 2 2 2 3 3 4 4 5 5 5 5 5 6 7 7 8
30 30 30 30 29 28 27 26 26 24 22 20 20 20 20 21 20 19 19 18 17 15 14 14 15 16 15 14 13 10 8 6 4 2 2 2 2 2 2 2 3 3 4 4 5 5 5 5 5 6 6 7
31 31 31 31 30 29 28 27 26 24 21 20 20 20 21 21 21 20 20 19 18 17 15 14 14 15 14 13 11 9 7 5 4 3 3 3 3 3 2 2 3 3 3 4 4 4 5 5 5 6 6 7
32 32 32 32 31 30 30 28 26 24 22 21 21 21 22 22 21 21 20 19 19 18 16 15 14 14 13 12 11 10 8 6 5 5 4 4 4 3 3 3 3 3 3 3 4 4 4 5 5 6 6 7
34 33 33 33 33 32 31 29 26 25 23 23 22 22 22 22 21 20 20 19 18 18 17 16 15 14 14 13 12 10 8 7 6 6 5 5 5 5 4 4 3 3 3 3 3 4 4 5 5 5 6 7
36 35 35 35 34 33 32 30 27 26 25 24 24 23 22 21 20 19 18 18 18 18 17 16 16 16 15 14 13 11 9 8 7 7 7 7 6 6 6 5 5 4 4 4 4 4 4 5 5 6 6 7
38 37 37 36 35 34 33 31 28 27 26 25 24 24 23 21 20 19 18 17 17 17 17 17 17 17 17 15 13 12 10 9 8 8 8 8 8 7 7 6 6 6 5 5 5 5 5 5 6 6 6 7
40 38 38 38 37 36 34 32 30 28 27 26 25 25 23 22 21 19 18 17 17 18 18 18 18 18 18 16 15 13 11 10 9 9 9 9 9 9 8 8 7 7 7 6 6 6 6 6 6 6 7 7
41 40 39 38 38 37 35 34 31 30 28 27 27 26 24 23 22 21 19 18 18 18 18 18 19 19 19 17 15 13 12 11 10 10 10 9 10 10 10 9 9 8 8 7 7 7 7 7 7 7 7 8
42 41 40 39 39 39 37 35 33 31 30 29 28 27 26 25 24 22 21 20 19 18 18 18 19 19 19 18 16 14 13 11 11 11 11 11 11 11 11 10 10 10 9 9 9 8 8 8 8 8 8 8
42 42 41 41 40 40 38 37 35 33 32 31 30 29 28 26 25 24 23 21 20 19 19 18 19 20 19 19 17 15 14 12 12 12 12 12 12 12 12 12 11 11 11 11 10 10 10 9 9 9 9 9
42 43 42 42 41 41 40 38 37 35 34 33 32 31 29 28 26 25 24 23 22 21 20 19 19 20 20 19 18 16 15 14 13 13 13 13 13 13 13 12 12 12 11 11 11 11 11 10 10 10 10 10
42 43 44 43 42 42 41 40 39 37 36 35 34 33 31 30 28 27 26 25 24 23 22 21 20 20 20 19 19 18 16 15 14 14 13 14 14 14 14 13 13 12 12 12 12 12 11 11 11 11 11 11
43 43 44 43 43 43 42 41 41 39 38 37 36 35 33 32 30 29 28 27 26 24 23 22 21 20 20 20 20 19 18 17 16 15 15 15 15 15 15 15 14 13 13 13 12 12 12 12 12 12 12 12
43 43 43 43 43 43 43 43 43 41 40 39 38 37 36 34 32 31 30 29 28 26 25 24 22 21 21 21 20 20 19 18 17 16 16 16 16 16 15 15 15 14 14 13 13 13 12 12 12 12 13 13
44 43 41 42 43 43 44 44 44 43 43 42 40 39 37 35 34 34 33 32 30 28 27 26 24 23 22 22 22 22 21 20 19 18 17 18 17 17 16 15 15 15 14 13 13 13 13 13 12 12 13 14
43 41 39 38 39 39 40 42 42 42 43 43 42 40 39 38 37 37 36 34 32 31 30 28 27 25 24 24 24 24 23 22 21 20 19 19 18 18 17 16 15 14 14 13 13 13 13 13 13 13 13 15
39 37 36 35 35 35 37 39 40 40 41 42 42 42 41 41 40 39 38 36 35 34 32 31 29 28 27 27 26 26 26 25 24 23 22 21 20 19 19 18 17 16 15 14 13 13 14 14 14 14 15 16
39 37 35 34 36 36 35 37 38 39 41 42 43 43 42 42 41 41 40 39 37 36 34 33 32 31 30 29 29 29 28 26 25 24 23 21 21 20 20 20 19 18 16 12 11 11 13 15 16 16 16 17
40 40 40 38 38 36 34 36 38 40 43 44 44 44 44 44 43 43 42 41 39 37 36 35 34 34 33 33 32 30 29 27 26 25 24 23 22 21 21 21 20 20 17 12 10 7 6 10 14 16 18 20
39 39 41 40 38 37 36 37 39 41 43 45 45 45 45 45 45 44 43 42 41 39 38 38 37 37 36 35 33 32 31 30 29 28 27 26 25 23 22 21 21 21 20 16 11 5 2 3 5 9 15 20
40 38 38 38 36 36 37 35 35 37 38 40 41 42 43 44 45 44 43 43 42 41 41 40 40 39 38 37 35 34 33 33 32 31 30 29 28 26 24 23 23 23 23 22 15 6 2 0 0 4 6 12
39 37 35 34 31 29 30 29 28 31 31 33 36 39 42 44 45 45 44 44 44 43 43 42 42 41 40 39 37 36 36 35 34 33 32 31 31 30 28 26 25 24 25 26 24 14 5 2 2 3 2 3
39 37 34 33 32 28 27 26 27 30 31 32 37 40 43 44 45 45 46 45 45 45 44 44 43 43 42 41 40 39 38 37 36 35 34 33 33 33 31 29 26 25 26 27 28 25 16 9 4 2 4 3
39 38 35 36 37 35 33 31 31 33 33 34 37 39 42 44 44 45 46 46 46 45 45 44 44 44 44 43 42 40 39 39 38 37 36 35 35 34 33 32 28 27 28 27 28 31 28 21 12 6 6 4

ECMWFFLT2_925_spd_126.txt.gz
Wind_Speed
26 28 28 26 26 25 23 23 22 20 18 18 17 17 17 17 17 17 16 15 14 13 12 11 10 11 11 11 11 11 11 11 11 10 11 10 10 9 10 12 12 13 13 13 13 13 13 14 15 16 19 21
25 26 28 26 26 25 22 22 22 20 19 19 19 18 18 18 18 18 17 16 14 14 13 12 11 11 11 11 11 10 10 10 10 10 10 10 10 9 9 11 11 11 12 12 12 12 13 14 15 16 17 20
25 26 27 26 26 24 22 23 22 21 21 21 20 20 20 20 20 18 17 16 15 14 14 13 12 11 11 11 11 10 10 10 9 9 9 9 9 8 8 10 10 11 11 11 12 12 13 13 14 14 15 18
28 27 28 28 27 25 24 25 24 23 22 21 22 22 22 22 21 20 18 18 17 17 17 16 14 12 11 11 11 10 10 10 9 9 9 9 8 7 6 8 9 10 10 11 11 12 12 12 12 13 15 18
30 29 28 28 28 27 26 26 25 24 23 22 23 23 22 22 22 22 21 21 20 19 19 17 15 13 12 11 11 10 10 10 9 9 9 7 5 4 4 5 7 9 10 10 11 11 12 12 12 13 15 16
31 30 29 29 29 28 27 27 27 26 24 24 25 23 23 22 23 23 23 22 21 19 18 17 16 15 13 12 11 10 10 10 9 8 7 5 4 3 4 4 5 7 8 9 9 10 11 11 12 13 14 14
32 31 30 30 30 29 28 28 28 27 26 25 25 24 23 23 23 22 22 21 19 18 18 17 17 17 14 13 13 12 11 11 10 8 6 4 4 3 4 4 5 6 7 8 8 9 9 10 12 12 13 14
32 32 32 32 32 32 30 30 29 28 27 26 25 24 23 23 22 22 21 20 18 17 17 18 18 18 17 17 16 13 12 10 8 6 4 4 4 4 4 5 5 6 7 8 8 8 9 9 11 12 13 14
34 33 33 32 32 33 32 31 30 29 28 27 26 25 24 23 23 22 21 20 19 18 18 19 19 19 19 19 17 13 10 8 6 4 4 4 4 5 5 5 6 7 7 7 8 8 8 9 10 11 12 13
36 35 34 34 33 33 33 33 32 30 29 28 27 26 26 25 24 23 22 21 21 20 18 19 20 20 21 20 17 14 10 9 7 5 5 5 5 5 5 5 6 6 7 7 7 8 8 9 10 11 12 13
38 38 37 36 36 35 35 34 33 31 30 29 28 28 27 26 25 24 23 22 21 20 19 19 20 21 21 20 17 15 12 10 8 7 6 6 6 6 5 5 5 6 6 7 7 7 8 9 9 11 12 13
40 40 39 38 37 37 36 35 33 32 31 30 29 29 28 26 25 25 24 23 23 22 21 20 20 21 21 20 18 16 13 10 9 8 7 7 6 6 6 5 5 5 6 6 7 7 8 8 9 10 11 13
42 42 40 39 39 38 37 36 35 33 32 31 30 30 29 27 26 26 26 25 24 23 22 21 20 21 21 20 18 16 13 11 10 9 9 8 8 7 6 6 5 6 5 6 6 7 7 8 9 10 11 12
43 42 42 41 40 39 37 37 36 35 33 31 31 30 29 28 27 27 27 26 25 23 23 21 21 21 21 20 18 17 15 13 11 10 10 9 9 8 7 7 6 6 6 6 6 7 7 8 9 9 11 12
44 43 43 43 41 40 38 38 38 36 35 33 32 31 30 29 28 28 27 26 25 24 23 22 22 22 21 20 19 18 16 14 12 11 11 10 10 9 9 8 7 7 7 6 7 7 7 8 8 9 10 12
45 45 45 44 43 41 39 39 39 38 37 35 33 32 31 30 29 28 28 26 25 24 23 23 23 23 22 21 21 19 17 15 13 12 12 11 11 10 10 10 9 9 8 7 7 7 7 8 8 9 10 11
47 48 47 46 45 42 41 41 41 40 38 37 35 33 32 31 30 29 28 26 25 24 23 22 23 22 22 22 21 20 18 16 14 13 13 13 12 12 12 11 11 10 9 9 9 8 8 8 9 9 10 11
47 48 48 47 46 44 43 42 42 41 39 38 36 34 33 32 31 29 29 27 26 24 23 23 22 22 23 23 22 21 19 17 16 15 15 14 14 14 13 12 12 11 10 10 10 10 9 9 9 9 10 11
48 49 49 48 47 45 45 44 43 42 40 39 37 35 35 34 32 30 29 28 27 26 25 24 23 23 23 23 22 22 20 19 17 17 16 15 15 15 14 14 14 12 12 12 12 11 11 10 11 10 10 11
47 48 49 48 48 47 46 45 44 43 42 41 39 38 37 36 33 32 31 30 28 27 26 26 25 24 24 23 23 23 22 20 19 18 17 16 16 16 16 15 15 14 13 13 13 13 12 12 12 11 11 12
44 45 47 48 47 47 47 46 46 45 44 43 41 40 39 37 35 34 33 32 31 30 28 27 26 26 24 23 23 23 22 21 20 19 18 18 17 16 16 16 16 15 14 14 15 15 14 14 13 12 12 12
43 43 44 46 46 47 47 47 47 46 46 45 44 42 41 39 38 36 35 35 34 32 30 29 28 27 25 24 24 24 23 23 22 21 19 19 18 18 16 14 15 15 14 15 16 15 15 16 14 14 14 14
42 40 39 41 42 42 43 44 45 46 46 46 45 44 41 40 39 38 37 36 35 34 33 31 30 29 26 25 25 25 25 25 24 22 21 20 20 20 18 14 13 14 14 15 16 15 15 16 15 15 16 16
40 41 36 34 35 36 39 41 42 42 44 45 46 45 43 43 42 40 39 37 37 37 35 34 33 31 28 27 27 27 27 27 26 24 23 22 22 21 21 18 16 15 14 12 12 12 13 14 16 17 17 17
39 40 35 31 32 33 36 39 38 36 39 42 44 45 44 44 44 43 42 40 39 39 38 36 35 33 30 29 29 29 29 28 28 26 25 24 23 22 21 19 19 19 14 9 8 9 10 12 15 17 17 17
38 38 36 36 35 35 35 38 37 37 41 44 44 46 45 45 45 45 44 42 41 41 40 39 37 35 33 32 32 31 31 30 29 28 27 26 23 22 20 16 18 22 15 10 10 8 7 9 12 15 17 17
39 39 39 39 38 38 38 38 40 42 44 45 46 46 45 44 45 45 44 44 43 42 42 41 39 37 36 35 34 34 33 33 31 30 29 28 24 20 18 13 15 23 19 12 10 8 6 6 7 9 13 17
37 38 38 38 36 36 35 32 35 39 39 39 41 42 41 42 44 45 45 46 45 44 43 43 41 39 39 38 37 36 36 35 33 32 30 30 27 20 16 14 15 23 24 17 11 7 6 5 5 6 8 13
33 31 31 33 30 27 26 24 24 29 30 30 34 37 39 41 43 45 46 47 47 46 45 45 44 42 42 41 40 39 38 36 35 34 33 32 31 27 20 16 15 20 25 25 19 12 6 4 4 5 5 7
30 29 27 28 27 24 23 22 22 26 29 30 34 38 41 43 45 46 48 48 48 47 46 47 46 44 44 44 42 41 40 38 37 36 36 35 34 33 28 20 14 15 23 28 28 23 14 8 5 3 4 5
25 28 26 25 28 29 27 24 24 28 32 33 36 38 40 43 45 46 47 48 48 48 48 48 46 45 46 45 44 42 41 40 40 38 38 38 36 36 34 27 17 15 19 22 25 29 26 19 15 8 5 6

ECMWFFLT2_925_spd_129.txt.gz
Wind_Speed
28 30 27 25 25 25 25 24 24 23 22 21 19 19 19 18 17 17 16 15 15 14 13 13 12 12 12 12 11 11 11 11 10 9 9 8 7 8 8 9 12 14 13 13 13 12 12 11 13 15 12 10
28 28 27 26 26 26 25 25 25 24 23 22 21 20 20 20 19 17 16 15 15 14 14 13 12 12 12 11 11 11 11 10 10 9 8 7 6 6 7 8 10 11 11 11 11 11 11 11 13 14 12 10
27 26 28 28 28 28 26 26 27 27 25 24 23 22 21 21 20 19 17 16 15 15 14 13 13 11 10 11 10 10 10 9 9 8 7 6 5 6 7 8 9 9 10 10 10 11 12 13 14 13 10 9
29 28 30 31 29 29 28 26 26 27 26 25 25 24 22 21 21 20 18 16 16 17 15 14 13 12 10 10 10 9 9 9 9 8 8 6 5 6 7 8 9 9 9 9 11 12 13 14 12 9 8 8
31 31 32 32 30 29 29 27 26 26 25 25 25 23 22 21 21 21 19 17 17 18 17 15 14 13 11 11 10 10 9 9 9 8 8 7 5 4 4 6 7 8 9 9 10 11 13 11 8 8 7 7
31 32 32 32 30 28 28 27 27 26 25 25 24 23 22 22 22 21 21 19 19 19 18 18 16 14 12 11 11 10 10 10 9 8 7 6 4 3 4 6 6 7 8 9 10 10 11 7 6 8 7 6
30 33 32 32 29 27 29 29 28 27 26 25 24 24 23 23 22 22 22 21 20 19 18 18 17 16 14 12 12 11 11 10 9 9 8 6 4 3 4 5 6 8 8 9 9 9 9 5 7 9 6 6
29 33 32 32 31 30 32 31 30 30 28 26 25 25 24 23 23 22 22 21 20 19 19 18 18 17 15 14 15 14 13 13 13 11 7 5 4 4 4 5 6 7 8 9 8 7 6 6 10 9 5 6
30 33 33 33 32 32 33 34 33 32 29 27 25 25 25 24 23 23 22 21 20 19 19 18 18 19 17 18 18 17 15 14 12 9 6 5 5 4 5 6 6 6 6 7 6 5 5 7 10 8 5 5
31 30 31 31 32 31 32 34 34 31 30 28 26 26 25 25 24 24 22 22 21 18 19 20 20 19 18 20 20 17 13 12 10 7 6 6 6 5 6 7 8 7 6 6 5 5 7 8 7 5 5 5
32 30 31 32 32 31 32 34 34 32 31 29 27 27 26 26 25 25 24 23 22 19 18 21 22 19 17 19 20 17 12 11 11 8 7 7 8 8 8 8 8 9 8 8 7 7 10 10 6 4 5 5
35 35 35 35 34 33 34 36 36 35 33 30 28 27 27 26 26 26 25 24 24 21 17 20 24 21 18 18 18 15 12 13 12 9 8 9 9 9 8 8 8 8 9 8 8 8 10 10 8 5 5 6
37 36 36 37 36 35 37 38 37 35 33 31 30 29 28 27 27 27 27 26 26 24 18 17 20 20 18 16 15 14 12 14 12 9 9 9 8 8 8 8 8 8 8 7 7 8 10 10 8 7 7 8
38 37 37 38 38 38 39 38 36 34 32 32 31 31 30 30 29 29 29 28 27 27 23 19 19 19 18 17 16 16 14 14 13 11 10 9 8 9 8 7 7 8 8 8 8 8 10 9 8 7 7 8
39 39 38 39 40 41 41 39 36 34 33 33 34 33 32 32 31 30 30 30 28 28 26 24 23 20 19 20 20 19 17 16 14 12 12 11 9 9 8 8 8 7 7 8 9 9 10 9 8 7 6 8
39 40 40 40 41 42 41 39 37 36 36 36 36 35 34 33 33 32 32 30 29 28 28 27 25 23 21 22 22 20 18 18 16 13 13 12 11 10 8 8 9 8 7 7 8 9 10 9 9 8 7 7
39 39 42 42 44 44 41 40 39 39 39 38 38 37 36 35 34 33 32 31 30 28 28 27 26 25 24 23 23 22 21 20 18 15 14 14 13 12 10 9 10 10 8 7 8 9 9 9 9 9 8 7
37 38 43 44 44 45 43 42 42 42 42 41 39 38 37 36 35 34 33 32 31 29 29 28 27 26 25 24 23 23 23 21 18 16 15 15 14 14 12 9 10 10 8 8 9 9 10 8 9 10 9 7
37 39 42 44 45 47 47 46 45 45 45 44 42 41 40 38 36 35 35 33 32 31 30 29 28 27 26 25 24 24 23 22 18 15 15 16 14 13 12 9 10 10 9 9 9 9 10 8 8 9 9 9
37 41 40 42 43 42 42 44 43 41 42 44 43 43 42 41 39 36 35 34 33 32 32 30 30 29 27 26 26 24 24 22 18 16 16 16 14 13 12 10 10 10 9 9 9 9 8 8 9 8 8 10
32 40 40 40 39 36 37 41 40 38 40 42 42 44 44 42 41 39 37 35 33 33 33 32 31 30 29 27 27 25 25 23 20 19 18 17 16 13 11 11 10 10 9 9 9 9 9 9 10 8 7 9
28 39 42 39 39 38 37 40 41 38 38 41 42 44 45 44 43 40 38 36 34 33 33 33 32 31 30 29 28 26 26 25 22 21 21 19 18 15 11 11 11 11 9 9 9 9 9 10 9 8 8 8
29 36 39 37 36 36 36 36 38 37 36 39 43 45 46 45 44 42 39 37 36 34 32 30 30 32 32 31 29 28 27 26 25 24 23 21 20 18 14 11 11 11 10 10 10 9 8 9 9 8 8 9
31 32 32 31 30 31 32 33 35 36 36 37 41 44 44 44 44 42 40 39 38 37 34 29 29 32 34 33 31 29 28 28 28 27 25 23 21 20 16 11 10 11 10 9 9 8 7 8 9 9 9 9
28 28 27 26 27 29 30 31 32 33 34 36 39 41 42 43 44 43 42 41 40 40 38 34 32 34 35 34 32 31 30 29 29 29 27 23 21 20 18 13 12 13 11 9 7 7 7 8 9 11 13 12
26 29 30 28 29 31 31 31 32 34 36 36 36 36 38 39 40 42 43 43 41 41 40 35 33 36 37 36 34 32 31 31 30 30 28 25 21 20 19 15 14 17 14 10 9 8 6 7 9 12 16 16
23 26 31 34 34 35 35 35 38 38 36 35 33 32 34 35 37 40 41 42 41 41 41 36 33 36 38 37 36 35 35 33 32 31 31 29 25 20 18 15 15 21 19 13 11 9 6 5 6 8 12 16
18 21 26 33 35 36 35 35 37 35 31 31 32 32 34 36 39 40 41 41 41 41 42 41 37 37 39 38 37 36 35 34 35 35 34 33 29 21 18 16 16 22 24 19 12 8 6 6 5 5 8 13
16 19 23 25 24 24 24 22 23 25 25 27 30 32 36 39 41 43 43 43 42 43 43 43 42 39 39 39 38 36 34 33 34 36 35 36 33 26 21 19 17 20 25 26 20 12 7 5 5 5 7 10
18 17 19 20 19 16 17 16 17 22 24 27 33 37 38 39 41 43 44 43 43 44 45 45 44 41 38 37 38 38 36 33 32 33 34 37 36 31 27 21 18 18 22 27 27 23 15 8 4 3 5 7
21 20 19 17 19 19 19 18 19 24 28 31 35 36 33 34 37 39 41 43 42 42 43 43 42 42 40 38 39 39 36 34 33 34 35 37 37 36 32 26 19 17 20 22 25 28 26 19 12 7 5 4

ECMWFFLT2_925_spd_132.txt.gz
Wind_Speed
29 30 30 29 27 26 26 24 23 24 25 23 23 24 24 23 24 23 23 20 17 16 15 14 14 14 14 14 13 13 13 13 12 12 11 9 9 8 8 8 11 15 15 14 13 12 11 12 14 12 9 11
30 29 30 30 30 30 29 27 24 24 24 23 24 25 25 23 22 23 24 23 20 17 16 15 15 14 14 14 13 13 13 12 12 11 9 8 8 8 7 8 12 15 14 14 13 11 10 11 13 12 11 12
31 29 31 30 31 32 30 28 26 26 25 24 25 26 26 23 23 24 24 23 22 20 18 17 16 15 14 14 14 13 13 12 11 10 9 8 7 7 7 9 11 13 13 13 12 11 11 11 13 12 11 10
31 31 33 32 32 32 30 29 28 28 27 26 26 26 26 25 25 25 24 24 23 21 20 19 18 16 14 14 14 13 12 12 10 10 10 8 6 6 7 8 9 10 11 11 10 11 12 11 12 12 10 8
29 31 32 32 32 32 32 32 31 30 29 29 28 27 27 27 26 26 26 26 25 23 22 21 19 17 15 14 13 13 13 12 11 10 9 8 6 6 6 7 8 9 10 10 11 12 12 11 12 12 9 9
30 30 31 33 33 32 32 33 33 32 31 30 29 28 28 28 28 27 27 26 26 24 22 22 20 18 17 15 13 13 13 12 12 10 8 8 8 7 6 6 7 9 10 11 13 13 12 11 12 12 9 9
32 33 33 34 33 32 33 34 34 33 31 30 30 29 29 28 29 28 27 25 24 22 22 22 20 19 17 16 15 14 14 13 12 11 9 9 8 7 7 7 7 8 9 11 12 12 11 11 13 12 10 8
30 32 34 35 34 33 34 34 34 32 30 29 29 29 29 29 29 28 27 26 23 21 22 22 21 20 18 18 17 16 16 16 14 12 9 8 7 7 7 8 8 9 10 11 11 11 11 12 13 12 10 7
29 31 34 36 35 34 35 34 33 31 29 29 30 29 29 30 29 27 27 27 24 22 22 22 22 21 20 20 19 18 17 16 14 11 7 7 7 7 7 8 9 9 10 11 11 11 12 12 13 12 11 9
30 30 33 35 36 35 35 34 33 32 30 29 30 30 30 31 30 29 27 26 25 23 22 22 21 21 21 21 19 18 16 14 13 11 8 7 8 7 8 9 10 10 10 10 11 12 12 12 13 12 12 12
30 29 30 32 35 36 35 33 33 32 31 29 30 31 31 32 32 30 28 27 25 24 23 22 22 21 21 20 19 18 15 13 13 11 9 9 9 9 10 10 11 12 12 12 12 12 13 13 13 13 13 14
30 29 29 30 32 34 35 34 33 32 32 30 31 32 32 32 32 31 30 28 27 25 24 24 23 22 21 21 21 19 17 14 13 11 10 10 11 11 11 10 11 12 12 13 13 13 14 14 14 14 14 14
29 30 31 32 33 33 34 35 34 35 35 33 33 33 32 33 32 31 30 29 28 27 26 25 24 23 22 22 21 20 18 16 14 12 11 11 12 12 11 10 11 12 12 12 12 12 13 15 14 15 15 15
30 33 35 36 36 36 37 38 37 38 38 36 35 34 34 34 32 31 30 29 28 27 27 27 26 24 23 22 21 20 19 17 14 13 13 12 12 12 11 11 12 12 12 11 11 12 13 14 14 14 16 16
32 34 36 37 37 38 39 40 40 41 40 38 36 36 36 35 33 30 30 30 29 28 27 28 28 26 24 22 21 20 20 17 16 15 14 12 12 12 11 11 12 12 13 13 12 13 13 13 13 14 16 17
33 36 37 39 39 38 38 38 39 41 41 40 39 37 38 37 35 32 31 31 31 30 27 28 29 27 25 23 22 22 21 19 17 16 15 13 13 12 11 11 11 11 12 13 12 13 14 14 14 13 15 17
32 34 35 36 38 39 39 38 39 40 41 41 40 39 39 39 37 35 33 33 32 32 29 28 29 29 27 26 25 24 22 20 19 18 17 15 14 13 13 13 13 11 10 11 12 12 14 14 14 14 14 16
30 31 32 32 35 37 39 40 41 42 42 42 41 39 40 40 39 37 34 33 33 33 31 30 29 29 29 28 26 25 23 21 20 19 18 17 16 15 15 14 14 14 11 11 11 12 13 14 14 14 14 15
29 30 30 32 35 36 36 38 40 41 42 44 43 41 42 41 39 39 36 35 34 34 33 32 30 30 29 28 27 26 25 23 21 20 18 17 17 16 16 14 14 14 13 12 11 12 13 13 13 14 14 15
26 29 30 31 34 33 32 35 36 37 39 41 40 38 41 40 36 37 37 36 36 36 35 34 33 32 31 29 28 27 26 25 23 21 19 18 17 17 16 14 13 14 13 12 11 12 13 12 13 14 15 15
24 27 30 30 31 30 28 31 33 34 34 36 36 35 38 39 35 36 37 36 36 36 36 35 34 34 33 31 30 29 28 26 24 23 21 19 18 18 17 16 14 14 14 12 12 11 12 13 13 13 14 14
25 25 26 26 29 31 28 29 31 31 32 35 36 36 39 40 38 38 37 36 36 36 36 36 35 34 34 33 32 31 29 28 26 25 23 21 20 18 18 19 17 17 16 14 14 13 13 14 13 12 13 13
21 22 22 23 26 29 28 29 29 29 32 35 37 38 39 40 40 39 37 37 37 36 36 36 35 35 35 34 33 31 30 29 28 27 25 23 22 19 18 20 19 19 18 16 16 15 15 14 14 13 12 13
13 17 20 20 22 25 27 29 30 30 32 34 34 35 35 36 38 38 37 36 35 35 35 36 35 35 35 35 34 33 32 32 31 30 28 27 26 23 20 19 19 19 19 18 16 13 13 12 12 13 14 14
11 10 16 18 20 23 25 28 31 31 31 32 33 34 34 35 36 37 37 35 34 34 33 33 34 34 35 35 35 35 34 34 34 33 31 30 28 27 25 21 19 20 20 18 15 11 11 12 12 13 14 15
24 17 12 14 20 23 26 28 31 32 33 33 34 34 34 34 34 35 36 36 36 36 34 31 31 33 35 36 36 36 35 34 34 34 33 32 30 28 28 25 22 24 22 18 17 13 9 8 10 13 15 16
29 27 23 17 14 17 22 24 26 31 33 32 31 31 31 32 33 34 35 36 37 36 36 33 30 31 35 36 37 37 35 34 33 34 34 34 33 31 28 26 25 28 26 21 20 15 7 4 5 8 14 17
30 28 25 22 19 15 13 14 18 23 26 27 28 29 30 32 34 35 37 38 39 38 38 37 34 32 33 35 37 37 37 35 35 35 35 35 35 33 30 27 28 31 31 26 21 12 4 5 5 3 9 17
32 30 28 27 25 23 20 15 13 16 19 22 25 29 32 35 38 39 40 42 42 42 41 40 39 36 35 36 36 37 38 38 38 37 36 35 34 35 34 31 30 32 33 30 26 18 8 6 4 3 7 12
32 30 29 28 26 25 25 21 15 12 15 19 22 25 29 32 35 37 39 42 42 43 43 42 40 38 37 37 37 37 37 37 38 37 37 37 36 36 35 33 30 30 34 33 31 28 18 9 6 5 9 7
33 31 28 26 24 22 22 21 20 19 16 16 19 23 24 24 27 31 34 37 39 40 41 41 39 37 36 37 37 38 37 35 35 37 38 38 38 36 34 32 29 31 34 33 32 33 27 17 11 9 11 7

ECMWFFLT2_925_spd_135.txt.gz
Wind_Speed
32 33 34 32 28 28 29 28 28 28 26 26 26 26 25 24 26 26 25 25 24 22 20 20 21 21 20 18 18 17 17 16 14 15 15 13 12 11 10 9 13 16 15 16 16 16 16 15 16 16 16 17
34 35 35 31 27 31 31 29 29 28 29 30 29 27 27 27 27 27 26 27 26 25 23 22 21 21 20 19 18 17 17 16 13 14 14 13 12 11 10 10 14 15 15 15 15 15 15 15 15 15 15 15
33 33 32 29 27 32 31 32 32 31 31 31 30 29 29 29 29 28 27 27 27 27 26 24 23 21 20 20 19 17 17 16 14 13 14 13 12 11 12 14 15 15 14 14 13 14 14 15 14 14 14 14
28 30 29 28 28 32 33 34 34 33 32 32 33 31 30 31 30 29 28 27 27 28 28 27 26 23 21 21 20 19 17 16 15 15 14 13 12 12 15 16 16 15 14 13 12 13 14 15 13 13 14 15
27 29 30 30 30 33 35 36 34 32 31 33 34 32 30 31 31 31 29 29 29 29 29 29 28 24 22 22 21 20 19 17 16 16 14 14 14 14 15 16 16 16 14 13 12 13 14 15 14 13 15 17
27 31 32 32 33 35 34 33 32 31 32 34 34 31 30 31 31 31 30 29 29 30 30 29 28 27 25 23 21 21 20 18 16 16 15 15 16 16 16 16 16 16 15 14 13 13 15 15 14 12 14 16
28 31 32 32 33 34 33 32 33 33 35 35 35 33 31 31 31 30 29 28 29 30 30 28 27 27 25 23 22 21 20 19 17 16 15 16 16 17 17 18 17 17 16 15 14 15 15 16 15 13 14 16
29 31 30 33 34 34 34 33 34 35 36 35 34 33 32 33 31 30 28 27 28 29 30 30 28 26 25 24 23 22 21 20 19 18 16 16 16 16 17 17 18 18 17 17 16 16 17 17 16 14 15 16
27 31 31 32 34 36 36 35 34 36 36 35 34 33 34 34 32 31 29 28 29 30 30 31 30 29 27 26 25 25 25 24 20 18 17 17 17 17 17 17 17 17 18 18 18 18 18 18 17 15 14 16
26 31 34 32 32 33 34 35 35 36 37 36 35 34 34 34 33 32 30 30 30 30 29 30 30 30 30 28 27 26 26 25 19 17 18 17 17 17 17 17 17 18 18 19 20 19 19 19 18 15 14 16
27 32 36 33 32 32 33 37 37 37 38 37 36 35 34 33 33 33 31 31 29 29 29 29 30 30 30 29 28 26 24 23 19 17 18 17 17 17 17 17 17 18 18 19 19 19 19 19 19 17 15 16
26 30 33 32 34 37 37 38 38 38 38 36 36 35 34 32 32 33 32 32 30 30 30 30 30 30 30 29 27 25 23 22 19 18 17 16 16 16 16 16 17 17 17 18 18 18 18 19 20 19 17 17
25 26 27 31 35 37 38 39 39 39 38 36 35 34 33 32 33 33 33 34 32 32 32 31 31 30 30 28 27 26 24 22 21 20 18 16 16 15 15 15 15 16 16 17 17 17 18 19 21 20 19 18
23 24 25 30 34 37 40 40 40 41 40 37 35 35 35 34 35 35 35 35 34 34 34 33 32 31 30 29 28 27 26 24 22 21 19 17 16 15 14 14 14 15 15 16 16 17 17 18 20 20 20 18
18 23 27 28 31 37 41 41 41 42 42 41 39 38 38 37 36 36 36 36 36 36 35 34 33 32 31 30 29 28 27 25 22 20 19 17 16 15 14 14 14 14 15 15 15 16 17 19 20 21 21 19
15 18 25 28 28 34 39 41 43 43 42 41 41 40 40 39 39 38 38 38 38 37 36 35 34 32 32 31 30 29 27 26 23 21 18 17 16 15 14 14 14 14 15 15 15 16 17 19 20 21 22 21
16 15 20 28 30 32 35 37 39 41 40 39 39 40 41 41 40 40 39 39 39 39 38 36 35 33 32 31 30 29 28 26 23 21 20 18 17 17 16 16 16 16 15 15 16 16 17 19 19 21 22 22
16 16 18 26 30 31 33 35 37 39 38 37 36 38 40 41 41 41 40 39 39 39 39 37 36 34 33 32 30 29 28 26 24 23 22 21 20 19 18 18 18 18 17 17 16 17 18 19 19 20 22 24
19 17 17 23 28 30 31 32 36 37 37 37 37 36 37 39 40 41 41 40 40 39 39 38 36 35 34 33 31 30 29 27 26 25 24 23 23 21 20 19 19 18 18 17 17 17 18 19 19 20 22 24
17 20 19 21 25 30 32 31 32 33 35 37 37 37 37 37 38 39 40 40 40 39 39 38 37 36 35 34 32 31 30 29 28 27 26 26 25 25 24 22 21 20 18 17 17 17 18 19 19 19 20 23
9 13 20 24 26 28 31 32 31 29 31 32 31 33 36 36 36 37 39 40 40 39 39 38 37 37 36 35 34 33 32 31 30 30 29 28 27 26 26 25 24 22 19 17 16 17 18 19 19 20 20 21
26 13 6 14 22 28 30 32 32 30 30 29 27 28 31 33 34 36 38 40 40 39 38 37 36 36 37 37 36 35 35 33 32 31 30 30 29 27 27 27 26 25 22 19 17 17 18 19 19 19 20 20
32 28 22 16 8 14 24 28 28 27 29 30 30 30 30 31 31 32 34 36 38 39 38 37 35 35 36 37 38 37 36 34 33 32 31 31 30 28 26 26 26 26 24 21 19 18 17 18 18 18 19 20
36 35 32 31 29 19 9 13 22 26 28 29 31 32 32 32 32 33 33 35 37 38 37 36 35 34 34 35 37 38 37 37 36 35 33 32 31 30 27 25 26 26 26 24 20 17 18 18 16 16 17 18
34 34 33 31 32 31 26 18 10 18 25 27 28 30 32 34 34 35 36 37 38 37 37 36 35 34 35 35 36 38 38 39 38 36 35 33 32 32 30 29 27 28 28 25 20 16 16 17 16 15 16 16
31 29 27 25 26 28 27 27 23 13 13 20 25 27 30 33 34 35 35 37 36 36 37 38 37 36 37 38 38 36 36 37 37 37 36 35 33 32 32 32 31 32 30 23 20 17 12 10 11 14 16 16
34 29 25 22 24 27 26 26 26 22 17 12 13 20 25 29 31 32 33 34 34 34 36 37 38 38 38 39 38 36 34 33 35 37 37 37 36 33 30 29 32 36 33 25 22 16 8 5 6 8 13 17
36 33 30 26 24 25 25 25 25 23 24 24 18 13 14 21 25 28 32 34 35 36 37 37 39 39 38 40 40 40 37 34 33 34 36 38 37 35 31 28 32 38 36 30 25 13 4 4 4 3 9 16
37 37 36 35 32 30 29 29 30 29 30 31 28 24 17 15 19 23 28 32 35 36 38 40 40 39 39 40 40 41 40 38 36 33 34 35 36 37 34 31 31 35 36 35 32 22 9 6 3 3 8 13
36 36 37 37 35 33 31 29 28 28 28 29 29 28 24 18 16 20 24 27 30 32 34 37 39 39 40 40 40 42 42 41 39 37 36 34 34 36 36 32 28 32 36 35 35 31 20 12 6 6 12 9
37 34 33 33 31 28 27 25 24 24 24 26 28 28 25 22 18 17 21 25 27 29 31 33 34 36 38 39 40 41 42 41 41 42 42 39 36 34 33 31 28 30 34 33 33 35 29 16 7 11 16 10

ECMWFFLT2_925_spd_138.txt.gz
Wind_Speed
15 21 28 31 31 32 33 35 34 30 27 26 23 23 27 27 27 30 27 25 24 23 20 20 20 18 18 20 19 17 17 16 17 18 17 17 15 13 12 16 18 16 17 18 19 20 22 22 22 21 21 19
20 27 28 30 32 31 31 32 31 27 26 26 24 27 31 30 30 31 28 26 27 26 24 23 22 20 20 20 19 18 18 18 17 17 16 16 16 13 14 16 18 18 17 17 18 18 20 21 21 20 20 19
23 29 30 32 31 29 28 27 25 24 25 26 26 29 33 32 32 32 31 29 29 29 28 25 24 24 22 22 22 19 20 20 18 17 16 15 15 15 18 17 18 19 18 18 17 17 18 20 21 20 18 18
22 25 29 31 29 29 27 25 25 25 27 28 27 29 31 31 31 33 32 30 30 30 30 28 26 27 26 25 25 21 20 21 19 18 16 16 16 17 20 19 18 19 18 18 17 17 17 19 20 19 17 16
24 26 29 30 28 29 28 27 28 28 30 30 30 31 31 31 33 34 32 31 30 29 31 29 28 29 27 26 26 23 21 21 20 19 17 18 19 20 21 20 19 19 18 17 16 17 17 18 19 18 18 16
26 29 31 28 27 31 30 30 31 31 32 31 32 32 32 33 34 34 33 32 30 30 32 30 29 28 26 26 26 25 23 22 21 20 20 19 21 22 21 19 19 20 19 18 16 17 17 18 18 18 18 16
22 30 33 29 27 32 32 32 34 34 34 33 34 34 34 35 34 35 34 33 32 31 32 30 29 27 26 26 25 25 24 23 21 21 22 22 23 23 21 19 19 20 19 19 17 17 17 18 19 19 19 17
17 28 33 31 30 33 35 35 35 36 36 35 35 35 35 35 34 35 34 33 32 31 32 30 29 27 27 26 26 26 24 24 21 20 23 25 26 25 22 20 20 20 20 19 18 17 18 18 20 20 19 18
18 23 29 31 33 35 36 37 37 37 37 36 37 36 36 34 33 34 33 32 32 32 33 30 29 29 28 28 28 26 25 26 23 21 25 27 27 26 23 22 20 20 20 20 19 19 19 19 20 20 19 19
18 20 26 30 32 34 36 37 37 37 37 37 38 36 36 33 32 33 33 33 33 33 33 30 30 30 29 31 30 29 28 28 23 22 27 28 27 26 24 23 21 21 20 20 20 20 19 20 20 21 20 19
15 17 21 25 25 30 36 38 38 38 38 37 37 36 36 35 33 34 33 33 33 34 33 30 31 31 30 31 31 31 30 28 24 23 27 28 28 27 25 24 23 21 20 20 20 20 20 20 20 21 21 20
14 14 17 21 22 25 35 40 40 40 39 38 39 38 37 37 36 35 34 33 34 34 33 31 30 30 30 30 30 31 30 28 24 23 27 29 29 29 27 26 24 23 21 20 20 22 22 20 21 22 21 21
16 14 15 20 23 23 30 36 38 39 40 40 42 41 40 39 38 36 34 34 35 35 34 32 31 30 31 31 30 31 30 28 25 24 25 27 28 29 29 29 27 25 23 22 21 22 23 22 22 23 22 22
17 16 17 20 22 22 27 34 36 40 42 42 42 41 41 39 36 35 35 35 36 36 36 34 33 31 32 32 31 31 30 28 25 24 25 25 26 27 28 29 30 28 27 25 23 23 24 23 23 23 24 23
20 17 17 19 21 22 29 34 37 40 41 41 42 40 40 38 36 35 36 38 38 37 37 36 35 33 33 33 32 31 30 28 25 23 24 24 24 24 25 26 27 28 29 28 26 25 24 24 23 23 24 24
16 18 17 17 19 22 29 32 32 36 38 39 41 40 39 38 37 38 38 39 39 39 38 38 38 36 35 34 34 33 31 29 27 24 23 23 23 22 23 23 24 25 27 28 28 27 26 25 25 25 24 25
13 13 16 17 18 20 27 31 31 32 35 38 41 41 41 38 37 38 38 39 40 40 39 39 39 38 37 37 35 34 31 30 28 25 24 24 23 22 22 22 22 22 23 25 26 27 27 27 27 26 26 25
18 15 12 14 18 18 22 30 34 34 34 37 39 39 38 39 39 38 38 38 38 39 39 39 40 40 39 39 37 35 33 31 30 27 25 24 24 23 22 22 23 23 22 22 24 25 26 27 28 28 27 26
25 21 16 10 12 17 21 27 32 35 35 35 35 34 34 37 38 38 39 38 36 35 36 38 39 40 40 40 38 36 35 33 31 29 27 26 25 24 23 23 24 23 23 22 22 23 24 25 26 27 28 27
30 27 25 20 10 7 14 21 28 33 36 35 33 30 31 36 35 35 36 38 38 35 33 35 37 38 39 39 38 37 36 34 33 31 29 27 26 26 25 25 25 24 24 23 23 22 22 23 24 25 26 27
31 30 30 28 23 15 6 4 13 24 33 36 35 30 28 33 34 33 33 33 35 37 36 34 33 34 35 36 38 37 36 35 35 33 31 29 28 28 27 27 26 25 24 23 23 23 23 23 23 24 25 26
31 29 30 31 29 27 21 17 11 4 15 23 30 32 31 33 32 30 32 32 31 33 35 35 32 32 33 34 35 36 36 36 34 33 31 30 29 28 28 28 27 26 25 23 22 22 22 23 23 24 25 26
35 31 30 30 30 31 30 26 22 17 9 5 9 16 22 28 31 32 34 32 29 30 31 32 31 30 32 33 34 34 34 34 33 31 31 30 30 29 28 28 28 27 25 23 22 21 21 21 22 23 23 24
41 37 33 31 31 31 31 30 27 26 22 17 13 10 9 15 23 30 35 34 32 31 31 31 31 31 31 32 34 35 34 35 34 33 32 31 31 30 28 27 27 27 25 23 20 19 21 20 20 21 21 23
38 37 33 30 30 28 27 29 29 29 29 26 23 19 12 8 10 17 24 31 34 34 35 34 34 35 34 34 35 36 37 36 35 34 33 31 31 31 29 27 27 27 26 22 17 14 16 17 18 18 19 21
34 33 30 25 24 22 22 26 28 29 30 29 27 26 22 17 10 9 12 18 27 32 36 36 36 36 36 36 37 36 36 35 34 34 33 32 30 29 29 28 27 29 26 19 16 13 8 8 12 15 18 20
33 32 30 26 23 21 19 22 25 26 28 29 28 28 27 25 20 14 11 11 15 22 28 31 34 35 35 35 36 36 36 35 34 34 34 34 32 29 27 25 26 32 29 20 17 12 6 3 5 8 14 19
33 32 32 29 26 25 22 23 28 29 30 31 30 30 28 27 27 22 17 15 13 14 18 22 26 29 32 34 35 37 37 36 36 35 35 35 34 30 26 23 25 32 32 26 20 12 3 2 3 3 9 16
36 35 36 35 33 35 34 33 37 37 35 35 33 32 31 29 27 25 22 20 18 14 13 17 21 23 26 29 33 36 38 39 40 39 39 38 37 36 32 27 24 30 33 30 28 20 7 4 3 4 6 10
39 38 38 38 37 36 35 33 34 33 31 31 30 29 30 29 27 26 24 22 21 19 16 14 17 21 24 26 28 32 34 36 37 38 40 40 40 40 38 33 25 27 34 32 31 27 16 7 4 4 8 6
39 39 38 36 33 30 29 27 26 27 26 26 27 27 28 29 28 28 26 25 24 22 20 18 16 18 22 26 28 30 32 34 34 35 37 38 39 39 37 35 29 29 31 30 32 33 25 13 5 6 12 8

ECMWFFLT2_925_spd_141.txt.gz
Wind_Speed
23 25 27 27 28 30 36 41 38 37 34 31 31 27 29 28 23 20 21 25 26 27 29 28 28 27 22 18 17 17 16 16 15 15 16 16 14 11 11 14 16 17 20 21 21 19 17 16 15 15 16 18
24 25 27 27 25 24 28 35 35 34 31 29 28 28 30 25 18 21 24 27 27 28 29 28 29 29 27 24 21 19 17 17 16 16 17 16 13 12 15 18 17 18 20 21 21 20 18 18 17 18 19 19
25 21 15 8 6 20 29 32 33 31 28 25 24 27 26 21 23 28 28 28 27 27 28 28 28 28 29 27 24 21 19 18 18 18 17 17 15 15 18 18 17 18 20 21 22 21 20 20 20 20 20 19
23 15 6 10 18 24 29 31 30 28 23 20 22 24 23 25 30 31 30 28 25 25 28 28 27 27 29 29 26 23 23 21 20 20 18 17 16 18 19 19 19 19 19 21 22 22 22 21 20 20 20 20
18 9 10 11 17 20 25 27 23 21 19 20 24 27 27 30 31 31 30 27 24 25 29 29 27 27 29 28 27 24 24 24 22 21 19 17 17 20 21 20 20 20 20 21 22 22 22 21 20 19 20 20
17 10 15 14 18 22 23 25 21 19 20 21 26 30 31 31 31 31 29 26 26 27 29 29 26 26 27 26 26 26 24 22 22 20 19 19 19 21 23 20 20 20 20 21 21 22 22 21 20 19 19 19
19 12 16 19 21 24 23 24 21 20 22 23 27 31 31 31 31 31 29 28 28 29 29 28 25 25 26 24 24 25 24 22 22 19 20 22 21 23 25 21 20 20 20 21 21 21 21 22 21 19 18 18
21 16 14 20 21 23 24 25 23 22 24 26 30 33 32 33 32 30 30 30 29 29 28 26 24 24 24 24 22 23 25 23 21 20 21 24 23 25 26 22 21 20 20 20 21 21 21 21 21 20 18 18
21 19 16 18 20 20 21 26 26 25 27 29 32 33 34 33 32 31 30 30 29 28 27 24 24 23 24 24 22 23 25 24 23 23 23 24 25 28 27 25 23 21 21 20 19 20 21 21 21 20 19 19
20 20 19 16 19 19 20 26 29 30 31 32 34 34 34 33 33 32 30 29 29 28 27 26 25 24 24 25 25 24 24 25 26 26 25 24 26 28 27 26 25 23 22 20 19 19 19 21 21 21 20 20
17 20 21 19 17 20 25 26 26 34 37 35 35 36 34 32 34 35 32 31 30 30 30 28 28 27 26 27 28 26 25 25 25 26 24 23 26 26 25 25 24 24 23 22 21 20 19 20 21 21 21 20
17 18 21 22 19 18 24 25 22 28 37 37 36 37 36 34 35 36 36 36 34 34 33 32 30 28 27 28 29 28 27 26 25 23 21 23 25 23 23 23 23 23 23 23 23 22 21 21 21 21 21 20
19 19 18 21 22 19 19 23 24 22 31 38 37 37 37 36 36 37 37 38 37 37 37 35 31 29 28 29 30 29 28 27 25 21 19 23 25 23 23 22 22 21 21 22 23 23 23 23 23 23 22 21
23 21 18 17 19 21 19 19 22 24 28 34 38 39 38 38 39 38 37 37 37 38 37 36 33 31 30 30 31 30 29 28 26 21 19 23 25 23 24 23 23 23 22 22 22 23 23 23 23 23 23 22
28 25 22 17 14 18 19 17 19 25 28 28 33 38 39 40 40 39 38 37 37 37 36 37 36 33 32 32 32 31 31 29 27 23 20 22 26 24 24 23 23 23 23 23 23 23 23 24 24 24 24 24
33 30 27 21 13 12 15 15 17 22 26 26 28 32 36 38 36 36 37 37 36 36 36 38 38 36 35 34 33 32 31 29 28 25 21 21 24 25 24 23 22 22 22 22 23 23 23 24 24 25 25 25
34 34 31 27 20 11 9 13 16 20 26 29 27 26 30 33 32 34 36 37 37 36 37 39 38 36 35 34 34 33 31 30 29 26 23 21 23 24 24 24 23 23 22 22 23 23 23 24 24 25 25 26
33 34 34 32 27 19 12 8 9 14 21 26 26 23 26 28 30 33 36 36 36 35 36 37 38 36 35 33 32 32 31 31 30 28 26 23 22 24 24 24 24 24 24 23 23 24 24 24 24 24 24 25
33 32 34 36 33 28 23 18 12 7 7 12 15 18 22 25 26 30 33 34 34 33 34 35 37 36 35 33 32 32 31 31 30 29 28 25 23 24 24 24 24 24 24 23 23 23 23 23 23 23 23 24
36 33 33 35 36 34 30 27 24 20 13 7 4 6 11 15 20 25 27 28 30 32 31 32 34 34 34 33 33 33 32 31 31 31 29 27 25 25 25 24 24 23 23 22 22 22 23 23 23 24 23 23
39 37 34 33 33 34 35 34 33 30 25 19 15 11 7 7 10 17 21 23 26 29 30 31 30 29 29 30 31 32 32 31 31 31 30 28 26 26 26 25 24 23 23 22 21 21 22 22 23 24 24 23
40 38 36 34 33 33 34 35 35 35 32 30 27 22 17 12 7 6 13 18 23 26 28 29 28 27 27 28 29 30 31 31 29 29 28 28 27 25 25 25 24 23 23 22 21 21 21 22 23 23 24 24
42 40 37 36 36 36 36 35 35 36 35 34 34 31 26 20 16 12 7 8 15 21 25 27 28 29 30 29 28 28 29 29 29 27 26 25 25 24 23 23 23 23 22 21 20 20 20 20 22 23 24 24
43 42 39 38 38 37 37 36 34 35 35 34 35 34 32 27 24 22 17 11 6 10 17 22 26 27 29 30 29 30 31 32 32 30 28 26 24 23 21 20 20 20 19 19 18 18 19 19 20 22 23 24
40 39 36 35 35 32 31 34 35 35 36 35 34 34 34 32 29 27 25 21 15 10 7 13 19 24 26 29 31 33 35 36 36 35 33 30 27 26 24 21 19 19 17 14 13 12 15 18 19 20 21 22
36 35 31 28 28 27 24 28 31 32 34 34 33 34 34 33 30 29 29 27 22 18 15 10 9 16 22 25 28 31 33 33 34 35 34 32 29 27 25 23 21 21 17 11 9 6 6 11 15 18 20 22
33 32 29 25 24 25 24 26 30 31 32 32 33 34 35 34 32 30 29 29 26 23 21 18 14 9 13 20 24 27 28 29 30 32 33 34 33 27 24 23 22 22 21 15 9 3 2 4 5 11 17 22
31 30 30 26 23 23 22 24 29 33 35 36 35 35 35 34 34 32 30 29 28 26 23 21 20 16 11 10 17 23 25 27 29 31 32 33 34 31 26 24 23 24 24 23 15 5 0 1 1 4 7 14
33 33 33 31 28 26 25 26 30 34 37 37 36 35 35 34 33 32 31 30 29 28 26 23 21 19 16 13 10 14 21 24 26 28 30 31 32 33 31 28 26 25 27 29 25 16 6 1 2 4 2 4
33 34 34 35 32 31 30 29 31 31 30 31 32 32 33 32 32 32 31 31 31 30 29 26 24 22 19 17 14 11 13 19 23 25 27 28 29 32 31 26 24 26 30 31 30 28 21 12 6 2 1 2
32 32 32 32 30 28 27 26 26 25 24 24 25 26 29 30 31 31 31 31 31 31 30 28 27 25 23 20 17 14 11 12 17 22 25 26 28 31 30 25 22 25 27 27 30 33 31 25 16 6 3 4

ECMWFFLT2_925_spd_144.txt.gz
Wind_Speed
25 28 32 32 32 31 28 25 25 24 26 32 31 29 26 23 22 22 22 20 21 20 19 18 16 17 18 20 22 22 22 19 17 15 14 13 12 9 9 9 11 16 21 22 22 22 19 16 13 12 11 12
24 28 32 28 25 25 22 18 19 17 27 31 30 30 26 23 21 20 20 18 21 22 19 18 19 20 19 20 21 23 25 23 19 17 16 16 13 10 10 13 15 18 20 21 21 20 17 14 11 11 10 12
24 27 28 19 15 17 13 2 7 16 25 24 24 26 25 22 21 20 17 17 21 22 19 19 22 23 20 19 19 19 21 21 21 19 18 16 13 11 13 16 17 18 20 20 19 18 16 13 11 11 10 13
25 26 24 12 7 10 9 11 17 20 21 20 21 22 22 22 21 18 15 19 22 20 20 21 23 24 21 19 19 19 18 18 19 20 18 16 14 12 16 18 18 18 19 19 18 17 15 14 14 13 13 16
25 24 24 13 4 10 8 11 18 20 22 22 21 20 22 22 20 18 17 21 22 19 22 24 23 24 23 19 18 18 16 16 17 19 19 19 18 15 18 20 20 20 20 20 18 18 16 16 16 16 17 18
24 23 23 21 10 6 11 13 17 19 21 22 22 22 24 23 20 19 21 24 24 22 23 25 24 23 22 19 17 16 16 16 16 17 19 20 20 18 19 21 22 22 22 21 20 19 18 17 18 18 19 19
24 23 22 22 20 9 6 12 17 20 20 19 19 21 24 22 20 22 25 26 26 24 23 24 24 22 20 18 15 14 16 17 15 16 17 16 18 18 19 21 21 22 22 22 21 20 19 19 19 19 19 19
24 24 23 21 22 20 11 11 15 17 18 17 18 21 23 22 22 25 27 27 26 24 23 24 25 21 20 20 15 14 16 16 15 15 16 16 16 16 19 21 20 20 21 22 22 21 20 20 20 19 18 18
27 25 24 23 21 22 17 10 11 16 20 18 17 20 23 23 25 27 27 28 27 24 24 25 26 22 20 21 18 17 17 17 17 18 19 19 16 16 19 22 21 19 20 21 22 22 21 20 19 18 18 18
30 26 25 25 23 21 20 17 15 16 20 19 19 21 23 27 29 28 28 28 27 26 26 26 26 23 21 22 21 21 20 19 20 20 21 20 17 16 19 22 22 20 20 20 20 20 20 20 19 18 18 18
32 29 27 26 23 21 20 20 22 20 16 17 21 24 27 31 32 31 30 28 27 28 28 27 27 26 25 25 24 25 24 23 21 20 20 20 18 17 19 22 23 22 21 20 19 19 20 20 19 19 19 20
34 33 31 28 24 23 20 17 19 22 21 19 19 25 30 32 33 33 32 30 30 30 29 29 29 28 28 28 26 26 27 26 24 22 20 19 19 19 20 21 21 21 21 20 20 20 20 20 19 19 20 20
36 36 34 32 29 26 22 18 17 20 23 23 18 23 28 29 32 33 32 32 32 31 31 30 30 29 29 30 29 27 27 28 28 26 23 21 19 19 21 20 19 19 20 20 20 20 20 20 20 20 20 21
36 38 37 35 34 31 25 21 17 17 20 21 17 20 24 26 30 31 32 33 32 31 31 31 31 31 29 30 31 29 29 29 28 27 25 23 21 20 22 21 18 18 18 19 19 19 19 20 20 20 20 21
36 37 38 36 36 35 31 26 20 17 17 17 12 12 16 20 24 27 29 31 32 32 32 32 31 31 29 29 30 30 31 29 28 26 24 22 20 20 24 22 18 17 17 17 18 18 19 20 21 21 21 21
38 37 37 37 37 37 35 31 27 24 21 20 16 10 7 9 13 17 22 26 29 31 31 31 30 30 29 29 28 29 30 29 28 26 23 20 17 19 24 23 20 18 16 16 17 17 18 20 21 21 21 21
38 38 39 40 38 38 37 35 33 31 29 26 22 18 14 9 7 8 12 17 23 28 30 30 30 30 29 28 28 29 29 29 28 26 23 20 16 19 22 23 22 20 18 18 17 17 18 19 20 21 21 21
38 38 40 41 40 39 39 38 37 36 34 32 28 25 21 16 11 8 7 9 14 21 26 29 31 30 27 26 26 28 29 29 28 27 25 22 18 18 21 22 22 21 20 20 19 19 18 18 19 19 20 20
38 36 37 39 40 39 39 39 39 38 37 35 33 31 28 25 20 14 9 8 9 12 17 21 26 29 27 25 24 25 27 27 28 27 26 24 21 20 20 21 21 20 20 20 20 19 19 19 19 19 19 19
38 36 34 35 39 39 38 38 38 38 38 37 36 34 33 31 28 23 16 11 9 9 11 14 18 22 25 26 24 24 25 25 26 26 26 25 23 21 20 20 19 19 19 19 19 19 19 19 19 20 20 20
38 37 35 34 36 38 38 38 38 37 37 37 37 37 35 34 33 30 25 18 13 10 9 11 13 16 20 23 24 23 23 24 24 25 25 24 23 22 20 19 18 18 18 18 18 18 19 19 20 20 20 20
38 37 37 35 36 38 39 38 38 37 37 37 36 36 35 34 34 34 31 26 20 16 12 8 9 13 16 19 21 22 23 23 24 25 24 24 23 22 20 18 17 18 18 17 17 17 18 19 20 20 21 21
39 38 37 36 37 38 39 39 38 38 37 37 36 35 33 32 32 33 33 31 27 23 20 15 10 8 12 16 19 21 22 24 25 26 25 25 24 22 21 19 18 17 17 16 15 16 17 18 19 20 21 21
41 40 38 37 38 38 38 38 38 37 36 36 36 35 34 32 30 31 31 32 30 27 26 23 18 12 8 10 15 20 22 25 27 28 29 28 26 25 22 20 19 17 16 15 14 15 16 17 18 20 21 21
38 38 36 34 34 32 33 35 36 37 35 33 34 35 34 34 32 30 29 30 30 28 27 27 24 19 15 11 8 14 19 23 26 28 28 28 27 27 26 23 20 18 15 12 10 11 13 16 18 19 21 22
33 32 30 28 28 26 26 29 31 34 35 33 32 34 34 34 33 31 30 29 29 28 27 28 28 25 21 18 14 9 12 16 20 24 26 25 25 26 26 25 23 22 17 10 6 4 5 10 14 18 21 23
31 30 28 25 25 25 24 25 27 28 31 32 31 33 34 33 33 32 31 30 29 28 27 27 27 27 25 22 19 16 11 10 13 18 23 25 25 24 23 22 23 26 23 16 9 3 1 3 5 8 14 20
30 29 29 27 25 25 24 25 27 27 29 32 32 32 33 32 32 31 30 30 29 28 27 26 26 26 26 24 22 20 18 14 10 12 17 21 23 23 22 20 21 24 27 26 17 5 2 1 1 3 5 9
30 30 31 30 28 28 27 28 30 30 31 32 32 32 32 31 31 31 30 30 29 28 27 26 26 25 25 25 24 23 22 19 14 8 10 14 19 22 20 18 19 21 24 28 27 17 7 2 1 3 2 2
29 29 30 31 30 28 27 27 28 29 28 29 30 30 30 30 30 31 31 30 30 28 27 27 26 25 25 25 24 23 23 22 20 15 10 8 13 18 18 14 14 19 21 23 27 27 20 11 6 4 3 1
28 28 27 27 26 25 24 23 23 23 24 25 26 26 28 29 30 30 30 31 31 30 29 27 26 26 25 24 24 23 22 23 23 21 16 10 7 12 17 17 14 14 18 19 22 26 25 19 13 8 6 4

ECMWFFLT2_925_spd_150.txt.gz
Wind_Speed
30 29 28 27 27 26 25 26 25 25 27 31 29 20 13 9 6 7 8 8 7 6 4 3 4 4 4 3 3 6 5 6 8 10 11 11 11 12 11 10 11 12 10 13 16 14 14 17 18 17 16 15
33 32 30 28 27 26 24 25 23 22 24 26 24 18 10 5 7 9 9 9 8 6 2 2 3 3 5 4 3 7 6 6 10 10 11 11 10 10 12 11 12 12 8 10 14 14 13 13 13 14 14 14
35 34 32 30 28 27 25 24 23 19 21 22 20 18 15 12 12 11 9 8 5 3 1 4 5 4 5 5 4 7 7 8 10 11 12 12 12 11 10 11 13 12 8 10 15 15 13 10 11 12 12 12
37 36 33 32 30 28 26 25 23 18 18 20 18 15 12 10 9 7 4 2 2 1 2 4 5 6 7 6 7 8 7 10 11 11 12 13 14 13 11 11 11 9 8 12 16 16 14 12 13 12 11 12
38 37 36 35 34 31 29 27 24 20 19 20 20 17 10 7 4 1 1 3 2 4 5 4 5 6 8 8 8 9 10 13 15 13 13 14 13 12 11 9 8 8 10 15 17 17 16 15 15 13 12 13
39 39 38 38 37 35 33 30 28 24 22 22 22 21 15 10 6 5 5 6 6 8 9 7 8 9 8 8 9 10 12 13 16 17 13 13 11 9 7 5 6 8 13 18 19 17 16 16 16 14 13 13
38 39 38 38 38 37 36 33 32 28 25 25 24 23 19 13 10 8 8 9 9 10 13 13 12 12 11 9 9 10 12 12 12 14 12 11 10 8 6 5 7 10 14 19 20 18 18 17 15 14 14 14
35 36 37 38 38 37 38 36 34 32 29 28 26 26 23 17 13 11 10 11 12 12 14 16 15 14 12 10 9 10 11 11 10 10 11 11 11 10 9 7 9 12 16 20 21 20 20 18 16 14 15 15
33 35 36 38 38 37 38 37 36 35 33 31 29 27 26 21 15 13 12 12 15 17 18 18 18 15 12 11 11 10 9 11 13 12 12 11 11 11 10 10 10 12 17 20 21 21 20 18 16 16 16 17
29 33 34 36 38 37 37 37 36 36 36 34 33 30 28 26 21 17 14 13 14 18 19 18 19 16 12 13 12 11 10 12 14 14 12 11 10 11 11 11 12 13 16 20 21 21 19 17 17 18 17 18
28 29 32 34 36 36 36 35 35 35 36 35 35 33 31 29 27 24 20 16 14 15 16 17 19 18 16 15 14 12 12 12 13 13 13 12 10 10 11 12 13 14 17 20 22 21 19 18 18 18 18 18
27 28 31 33 34 35 36 35 35 34 35 35 35 35 34 32 29 27 26 22 19 16 14 14 16 18 18 17 16 14 13 13 14 14 15 14 12 11 11 12 13 15 18 20 21 21 21 20 20 19 19 18
27 28 31 32 32 34 36 35 35 34 34 34 34 34 34 34 32 30 28 27 25 20 15 14 14 14 16 16 17 17 15 15 15 16 16 16 15 14 13 13 15 16 18 20 20 21 21 21 21 21 20 19
27 28 29 29 30 32 34 35 35 35 34 33 33 32 32 33 34 32 30 29 27 24 18 15 14 12 12 14 17 19 20 19 18 18 19 18 18 17 16 16 16 17 19 20 21 20 20 21 21 21 21 20
29 27 27 28 30 30 32 33 33 34 34 34 33 31 30 31 32 32 31 30 28 27 23 19 17 14 11 11 15 19 22 22 21 21 21 21 21 20 20 19 17 16 18 21 22 21 20 20 20 20 21 21
31 28 26 28 29 30 31 30 31 32 33 34 33 31 29 29 29 29 30 31 30 29 26 23 21 17 13 10 11 16 20 23 25 23 22 23 24 23 22 20 18 17 18 21 22 21 20 20 19 19 19 20
31 29 27 27 27 29 30 29 29 30 31 32 32 32 30 29 28 27 28 29 30 30 29 26 24 22 18 13 11 12 16 20 24 25 25 25 25 24 22 20 19 17 18 20 22 22 21 20 20 19 19 19
31 30 29 28 28 30 30 29 29 28 29 31 32 32 31 30 28 27 26 26 28 29 30 29 27 26 23 18 15 12 11 15 19 23 25 26 25 23 22 21 20 19 18 20 22 22 22 21 21 20 20 20
30 28 28 28 29 30 31 30 29 28 29 29 30 30 31 30 29 27 25 24 25 26 28 29 29 27 26 23 19 15 11 11 13 17 21 24 25 24 23 22 21 20 19 21 23 22 22 21 21 21 20 21
28 27 27 28 29 29 29 29 29 29 28 28 28 29 30 30 29 28 26 24 23 23 23 25 27 28 27 24 21 18 14 9 9 12 15 18 20 21 23 23 23 21 20 22 23 23 21 21 20 20 20 20
26 25 24 25 28 29 28 27 28 29 28 28 29 28 29 29 29 29 27 25 23 22 21 20 22 24 25 25 22 20 17 13 11 10 11 13 14 15 18 20 22 23 22 23 24 23 21 21 20 19 19 19
24 20 19 20 22 25 26 25 25 26 27 27 28 28 28 29 28 28 27 26 25 22 20 19 18 19 21 23 23 21 19 17 15 12 11 11 11 12 13 13 15 18 20 23 25 24 23 21 20 20 20 20
20 18 17 17 17 19 21 23 24 25 25 25 27 28 28 28 28 28 27 27 26 24 22 20 19 18 18 19 21 22 22 21 20 17 14 12 11 11 12 11 11 12 14 17 21 22 22 22 21 22 22 22
19 18 18 18 18 17 17 19 21 22 23 24 25 26 27 27 27 27 28 27 26 26 25 23 21 20 19 18 19 21 23 23 21 20 17 14 13 11 12 11 10 10 11 11 14 17 20 21 20 21 22 23
17 18 18 18 18 17 16 17 18 18 21 23 24 25 26 26 26 27 27 27 27 27 26 25 23 21 20 20 19 19 19 19 18 18 18 16 13 12 11 11 9 7 8 8 9 11 14 18 19 19 20 21
13 14 15 15 15 15 14 14 15 17 19 22 22 23 25 25 25 25 26 26 26 26 26 26 25 23 22 21 20 19 18 17 17 17 17 17 16 14 12 11 10 7 6 4 4 7 8 11 15 17 19 21
13 13 15 15 14 15 13 12 14 15 16 19 21 21 22 23 23 24 24 24 24 24 25 25 25 24 22 21 20 20 20 19 19 19 18 17 17 16 14 12 10 8 5 5 4 5 5 4 5 9 13 18
14 14 15 15 14 13 12 11 10 11 12 15 18 19 20 22 22 22 22 23 23 23 23 23 23 23 23 22 21 20 21 21 21 21 19 18 18 17 15 12 9 9 6 6 5 3 2 2 2 4 4 7
14 13 12 12 13 12 12 11 10 11 12 13 14 16 18 21 21 21 21 21 21 21 21 21 21 21 22 22 21 21 20 20 20 20 19 18 17 16 15 12 8 8 9 6 6 6 3 2 2 2 4 3
14 12 11 12 13 13 13 13 12 12 12 12 12 13 15 17 19 20 20 19 19 19 19 20 20 20 20 20 21 20 20 19 18 18 18 18 17 16 15 13 10 9 10 8 5 7 9 8 5 3 6 5
13 11 11 12 12 13 13 13 13 11 11 11 10 11 12 13 15 18 19 18 18 18 18 18 19 19 19 19 19 19 20 19 18 17 16 16 16 16 16 15 11 11 12 9 7 8 9 12 11 8 5 3

ECMWFFLT2_925_spd_156.txt.gz
Wind_Speed
34 35 35 37 37 37 37 36 37 38 38 37 35 33 32 31 30 28 28 27 27 26 25 25 25 25 25 26 27 27 27 24 22 21 20 18 15 15 15 10 6 9 11 14 15 16 21 25 26 28 27 23
33 35 36 37 37 38 39 39 38 38 39 38 37 36 34 34 33 32 29 28 28 28 27 26 25 25 27 27 27 26 27 27 24 21 19 15 12 9 10 11 10 11 7 6 8 12 14 18 21 22 20 14
31 33 34 36 36 37 39 41 41 40 40 40 39 37 36 36 36 36 34 32 30 30 30 29 27 26 27 27 28 27 26 28 25 22 17 12 8 5 8 9 8 9 8 9 6 6 3 7 13 14 13 10
31 30 31 35 36 36 38 40 41 41 41 41 41 40 38 37 37 37 38 38 35 33 31 31 30 28 28 28 29 28 27 28 24 21 18 12 8 7 9 8 5 6 6 6 5 3 2 2 5 5 4 9
30 30 30 32 34 35 36 38 39 41 42 42 42 42 41 40 39 38 38 39 39 37 34 32 31 29 29 29 29 28 27 28 26 21 15 10 9 8 7 5 4 4 3 4 5 5 4 3 4 3 2 3
28 29 30 32 33 34 34 35 37 39 40 42 42 42 42 42 41 40 40 39 39 39 38 36 33 30 29 28 28 28 26 27 26 19 11 10 9 6 5 4 4 3 1 2 5 6 5 4 4 5 6 5
27 29 30 32 33 33 33 33 34 35 37 39 41 42 42 41 41 40 39 39 39 38 38 38 37 33 31 30 29 27 25 24 22 17 11 9 8 6 6 6 5 5 2 1 4 7 7 7 7 7 8 7
27 29 30 31 33 33 33 32 32 33 34 35 38 41 41 40 40 40 39 40 40 39 39 39 39 38 36 33 31 28 25 24 22 20 15 11 10 9 9 8 8 9 7 5 6 9 10 11 10 10 11 9
26 28 29 30 31 33 32 32 32 32 33 33 35 39 40 39 39 39 40 41 40 40 40 39 40 40 39 36 33 30 27 26 25 23 21 18 15 11 10 10 12 12 11 8 6 10 13 14 13 13 13 11
26 27 28 28 29 32 31 30 31 31 32 32 32 37 39 38 38 38 39 40 41 40 39 38 38 38 38 37 35 32 30 28 27 25 23 20 19 15 11 11 12 13 13 10 8 10 14 14 15 14 14 12
25 26 27 26 26 30 29 28 30 29 30 30 30 34 37 37 36 37 38 38 39 39 38 36 36 36 37 37 35 33 32 30 28 27 25 22 20 18 15 12 11 12 13 12 10 11 13 14 15 15 14 12
23 24 25 25 25 28 27 26 28 27 27 28 29 31 35 35 34 34 36 37 38 37 37 36 35 34 35 36 35 33 32 32 31 29 28 26 23 19 17 14 12 11 13 13 12 11 13 15 15 15 15 13
22 22 24 25 24 26 27 24 25 25 25 27 27 29 32 33 32 32 33 34 35 35 36 36 35 34 34 35 35 34 32 32 32 31 30 28 26 22 19 17 15 14 13 14 14 14 15 16 16 16 16 16
21 21 22 23 22 24 25 23 23 23 24 25 25 27 30 31 30 30 31 32 33 33 34 35 35 34 34 35 35 34 32 31 31 31 31 30 28 25 21 19 17 17 16 15 15 16 17 17 17 18 19 19
21 21 22 22 21 22 24 21 21 22 23 23 24 26 29 30 29 29 29 30 31 30 31 33 34 34 34 35 35 33 32 31 29 29 29 29 28 26 24 22 19 16 15 15 17 18 18 18 18 19 19 20
21 21 21 21 22 23 24 21 20 21 21 22 22 24 27 28 28 28 29 29 29 28 28 30 31 33 34 34 34 33 31 31 29 28 27 28 28 26 23 23 22 18 14 13 14 17 19 20 20 20 19 20
19 19 19 20 20 22 23 20 19 20 20 20 20 22 25 26 26 27 28 28 28 26 26 27 29 31 32 32 32 32 31 31 30 29 27 27 28 28 25 22 22 21 18 14 12 13 15 18 21 21 21 21
18 17 18 18 18 20 21 19 18 19 19 19 18 20 24 25 25 25 26 27 27 26 25 25 26 28 30 31 30 30 31 31 31 30 29 26 26 27 27 25 22 21 21 19 17 13 11 11 15 20 22 22
17 16 17 18 18 18 19 18 17 18 18 18 18 19 22 24 23 24 24 25 25 25 24 24 25 26 29 30 29 29 29 30 30 30 29 27 24 24 25 25 24 22 21 20 20 19 15 11 10 13 19 22
16 14 15 16 17 17 17 17 16 17 17 16 17 18 21 23 22 23 24 23 24 24 24 23 23 24 27 29 28 28 28 28 29 29 29 27 24 23 23 24 24 24 22 21 20 19 20 18 13 10 12 16
14 14 14 15 17 17 15 15 15 15 16 15 16 17 20 21 20 21 23 23 23 23 23 23 22 23 24 27 27 27 27 27 27 27 28 27 24 22 22 23 23 24 24 23 22 20 20 22 21 16 12 10
13 13 13 14 16 16 14 15 15 15 14 13 15 17 19 20 19 20 22 22 22 22 22 21 22 22 23 24 25 26 26 27 27 26 26 26 24 22 21 20 22 24 24 24 23 22 20 20 22 22 19 14
13 13 13 15 16 16 14 14 15 15 13 13 15 16 17 18 19 20 21 22 21 21 21 21 21 21 22 23 23 25 25 27 28 27 26 25 24 23 20 17 21 25 24 22 20 20 19 18 19 21 22 20
12 13 13 15 17 16 15 15 15 15 13 14 16 15 15 16 17 20 21 22 22 21 20 20 20 20 21 21 21 23 24 25 27 26 26 24 23 24 21 18 21 26 25 20 18 20 20 18 17 18 20 21
11 12 13 15 16 16 15 16 17 16 15 17 18 15 13 14 16 18 19 21 22 21 20 19 19 19 19 19 20 20 20 22 23 24 24 23 22 22 22 20 20 26 24 17 16 18 19 20 16 13 15 17
10 11 12 15 15 15 15 15 17 17 18 20 20 16 13 14 17 17 17 19 20 20 20 20 19 18 18 18 18 18 18 19 20 22 23 22 22 21 21 18 18 24 20 14 16 13 11 14 13 10 7 6
10 11 12 14 13 13 15 16 17 18 19 20 19 17 15 18 20 17 17 18 18 19 19 20 19 18 17 16 16 17 17 17 18 20 21 21 20 20 21 18 17 21 18 15 18 11 5 5 6 7 6 8
10 12 12 12 12 12 14 16 17 18 19 18 17 17 19 21 19 16 18 19 17 17 18 18 19 18 17 16 15 15 14 15 16 17 18 18 18 17 20 19 17 18 17 17 16 7 4 3 2 3 4 11
11 12 12 11 12 14 15 16 17 18 18 18 18 19 21 20 18 18 20 20 18 17 17 17 17 18 18 17 15 14 12 12 14 15 15 16 16 15 15 16 17 17 16 15 14 9 4 3 2 2 6 10
13 12 11 11 13 14 15 17 16 16 18 19 20 22 22 21 20 21 21 20 19 18 17 17 17 17 18 17 14 13 11 10 12 13 13 13 14 13 13 13 14 16 16 13 12 13 8 5 4 5 8 6
14 13 12 12 13 14 15 17 17 17 19 21 22 23 22 22 22 21 20 20 20 19 18 18 16 16 16 15 14 12 11 10 11 12 12 12 12 12 11 11 11 14 17 13 12 14 12 10 10 8 7 4

ECMWFFLT2_925_spd_162.txt.gz
Wind_Speed
27 27 26 26 26 26 26 26 27 27 27 27 28 28 28 28 28 29 29 29 29 29 29 29 28 28 28 27 27 27 27 26 26 26 24 22 24 26 25 24 23 22 24 24 24 22 20 20 18 16 16 15
26 26 25 25 25 25 25 26 26 26 26 26 27 28 28 28 28 28 29 29 29 29 29 29 29 29 29 28 28 27 27 27 26 25 24 22 22 23 22 22 22 21 22 22 23 23 23 22 20 19 17 15
26 26 25 24 24 25 25 26 26 26 26 26 26 27 27 28 28 28 29 29 29 30 30 30 30 30 30 29 28 28 28 28 27 26 25 23 22 22 22 22 22 21 20 20 20 21 22 23 23 21 19 18
25 25 24 24 23 24 25 25 26 26 27 27 27 27 27 28 28 29 29 29 30 30 30 30 30 30 30 29 28 28 27 28 28 27 26 25 23 22 22 22 21 21 20 19 18 19 20 22 23 23 22 22
24 24 23 23 23 23 24 25 26 26 28 29 29 29 29 29 29 30 30 30 30 30 30 30 31 31 31 30 29 29 28 27 28 28 27 26 25 24 23 22 21 21 22 22 20 19 19 20 22 23 24 24
23 23 23 23 22 23 24 25 26 26 28 29 30 30 31 31 31 31 31 31 31 31 31 30 31 31 31 31 31 30 29 28 28 28 28 27 27 26 25 23 22 21 22 23 23 22 20 20 21 22 23 24
22 22 23 22 22 23 24 25 26 27 28 29 30 31 31 32 32 32 31 31 31 30 30 30 30 31 31 32 32 32 31 30 29 29 29 28 28 27 27 26 26 25 23 22 23 23 23 22 22 23 23 23
21 22 22 23 23 23 24 25 26 27 27 29 30 30 31 31 31 32 32 32 32 32 32 32 32 32 32 32 32 32 33 33 32 31 30 30 30 29 29 29 28 28 27 25 23 23 23 24 24 24 24 24
20 21 22 23 24 23 24 25 26 26 27 28 29 29 30 30 30 31 32 33 33 34 34 34 35 34 34 33 33 33 33 34 35 34 33 32 32 31 31 31 30 29 29 28 26 25 23 23 25 25 25 25
19 20 22 23 23 23 24 24 25 26 26 27 28 28 28 28 29 29 31 32 33 34 35 35 36 36 35 35 34 34 34 34 34 35 35 35 33 32 31 30 30 29 29 29 29 28 25 24 25 25 25 25
18 20 21 22 22 22 23 23 24 25 25 26 27 28 28 28 28 29 30 31 32 33 34 35 35 35 35 35 35 34 34 33 33 34 34 35 35 33 31 30 30 30 29 29 29 29 28 27 26 25 26 26
17 18 18 19 19 20 21 21 22 23 24 24 26 27 28 28 28 29 29 30 31 31 32 33 33 34 34 34 34 34 33 33 33 32 32 33 34 34 33 31 30 30 29 29 29 28 29 29 28 27 27 27
15 15 16 17 17 18 19 20 21 21 22 23 24 26 27 27 28 29 29 29 29 29 30 30 31 32 33 33 33 33 33 33 33 32 31 31 32 33 33 33 32 30 29 29 29 29 29 29 30 29 29 28
13 13 14 16 16 15 17 18 19 20 21 22 23 25 26 27 27 28 29 29 29 29 29 29 29 30 30 31 32 33 33 32 31 31 30 30 30 30 31 32 32 32 31 29 28 29 30 30 30 30 30 30
12 12 13 15 15 14 14 16 17 18 19 21 21 23 25 26 26 26 27 29 29 29 29 29 28 28 29 29 30 32 32 31 31 30 29 29 28 28 29 29 30 31 32 31 29 29 30 31 30 30 31 31
10 11 11 13 15 14 13 13 14 16 17 19 20 20 22 24 25 25 26 27 29 29 29 29 29 28 28 28 28 29 30 31 31 30 30 29 28 27 27 27 28 29 31 32 31 30 30 31 31 31 31 31
8 9 9 10 13 14 13 12 13 13 15 16 17 19 20 22 23 23 23 24 26 28 28 29 29 29 28 27 27 27 28 29 30 30 31 32 31 30 29 29 28 28 29 30 31 31 31 31 31 32 32 31
6 7 8 8 11 13 12 12 12 11 12 14 15 17 18 20 21 21 22 22 23 25 26 27 28 28 28 27 26 26 27 28 29 29 30 32 32 32 31 30 29 28 28 29 30 31 32 31 31 31 31 32
5 5 7 7 9 11 12 11 11 10 10 12 13 15 17 18 20 21 21 21 21 22 24 25 26 27 27 26 25 25 26 27 28 29 29 30 31 32 31 31 30 28 28 29 30 30 32 32 31 31 30 30
7 6 7 7 8 9 10 10 10 10 10 11 12 14 16 17 19 20 20 20 20 20 22 23 24 25 25 25 25 25 25 26 27 28 28 28 28 30 31 30 30 28 27 30 31 30 30 31 31 30 29 28
9 8 8 8 8 8 9 9 10 10 10 11 12 13 15 16 18 19 19 19 19 20 21 22 23 23 25 25 24 24 25 25 25 26 27 27 27 28 28 29 29 29 28 29 31 30 28 29 29 28 26 24
11 11 11 10 10 9 9 9 10 11 11 11 12 13 14 15 16 18 18 18 18 20 21 21 22 23 23 24 24 24 24 25 25 25 26 27 27 26 27 27 26 27 29 31 32 30 27 27 26 24 22 19
13 13 13 13 12 11 10 9 10 11 11 12 13 14 14 15 15 16 16 17 18 20 21 21 22 22 22 23 23 23 24 24 25 25 25 26 27 26 25 25 24 25 29 31 29 27 27 26 24 22 18 13
16 16 15 15 15 14 12 11 11 12 12 13 14 15 16 15 14 15 15 16 18 20 21 21 22 22 22 23 22 22 23 23 23 24 24 25 25 26 26 25 25 25 28 29 26 27 28 24 20 18 16 12
18 18 17 16 16 16 14 13 13 13 14 15 15 16 17 17 16 15 16 17 19 21 21 21 21 23 23 23 22 22 22 22 22 22 23 24 24 24 26 25 24 26 27 24 22 27 29 26 21 15 13 12
21 20 20 19 18 17 16 16 15 15 16 16 16 17 17 18 17 17 17 18 20 20 20 20 22 23 24 23 23 22 21 21 21 21 22 23 23 23 23 24 22 24 23 17 15 17 18 20 21 16 11 10
24 23 22 21 20 19 19 18 17 17 17 17 18 18 18 18 18 18 18 19 20 20 20 21 22 23 24 24 23 23 22 21 20 21 21 21 22 22 22 22 21 20 19 17 17 12 6 7 11 12 9 12
26 24 23 22 21 21 21 21 20 19 19 19 19 18 18 19 18 19 20 21 21 21 20 21 22 22 22 23 24 23 23 22 21 20 20 20 19 20 21 20 19 19 19 18 14 7 4 4 4 5 6 16
27 26 25 24 23 23 23 24 23 22 22 21 20 20 20 20 20 20 22 22 22 21 21 21 22 22 21 22 23 24 24 23 22 21 20 19 18 18 18 17 16 18 19 18 11 2 3 4 2 4 7 14
28 28 28 26 25 25 25 25 25 25 25 24 22 22 22 21 21 21 22 22 22 22 21 21 21 22 23 22 21 22 24 24 23 23 21 19 18 17 17 16 16 18 20 20 12 3 3 5 5 6 9 8
30 30 30 29 29 29 28 28 30 29 27 26 24 23 23 23 22 22 23 23 22 22 21 20 21 22 23 23 21 20 23 24 25 25 23 20 18 17 16 16 16 17 20 19 13 9 11 11 10 9 7 5

ECMWFFLT2_925_spd_168.txt.gz
Wind_Speed
12 12 13 14 15 16 16 16 16 17 17 18 19 19 19 19 19 20 21 22 22 23 23 23 23 24 24 23 23 23 23 23 23 23 23 23 23 23 23 23 23 23 23 24 24 24 24 23 23 23 22 22
12 13 13 14 15 16 17 17 17 18 18 19 19 20 20 20 20 21 21 22 23 23 24 24 24 24 24 24 24 23 23 24 24 24 24 24 24 24 23 23 22 23 23 23 24 24 24 24 24 23 23 23
13 13 14 15 16 17 17 17 18 18 18 19 19 20 20 20 20 20 21 22 22 23 24 24 24 25 25 25 25 25 25 25 25 25 25 25 25 24 24 24 23 23 24 24 24 24 25 25 25 24 24 25
14 14 14 14 15 16 17 17 17 18 18 18 19 20 20 20 20 20 21 21 22 22 23 24 24 24 25 25 25 26 26 26 26 26 26 26 25 25 25 25 25 25 25 25 25 25 25 25 25 26 27 27
13 14 13 14 15 16 17 17 18 18 19 19 20 21 21 21 21 21 22 22 23 23 24 24 24 24 25 25 25 25 25 26 26 27 27 27 27 26 26 26 26 26 26 26 27 27 27 27 27 27 28 28
13 13 14 14 15 16 16 17 17 18 19 19 20 21 22 22 23 23 24 25 25 25 25 25 25 25 25 25 25 26 26 26 26 27 27 28 28 27 27 27 27 28 27 28 28 28 28 29 29 29 29 29
13 13 14 14 14 15 15 16 17 17 17 18 19 20 21 22 23 23 24 25 25 25 25 25 26 25 25 25 26 26 26 26 27 27 27 28 28 28 29 29 29 29 29 29 29 29 29 29 30 31 30 30
12 12 13 13 14 14 14 15 16 16 17 17 18 18 19 21 21 22 23 23 24 24 25 25 25 26 26 26 26 26 26 27 27 27 27 28 28 29 29 30 30 30 30 30 30 30 30 29 29 30 31 31
11 12 12 13 14 13 14 14 15 16 16 17 17 17 18 19 19 21 21 22 23 24 24 25 26 26 27 27 27 27 28 28 28 29 29 29 29 30 30 30 30 31 31 31 31 31 30 30 30 29 30 30
11 11 12 13 13 13 14 14 14 15 16 16 16 17 17 17 18 19 20 21 22 23 24 25 26 27 27 27 28 28 29 29 29 30 30 31 31 31 30 30 30 30 30 31 31 31 31 31 31 30 30 29
10 11 12 12 12 12 13 13 13 14 15 15 15 15 16 16 17 18 20 21 22 23 23 24 25 26 27 27 28 29 29 30 30 31 31 31 31 31 31 31 30 30 30 30 30 31 31 31 31 31 30 30
9 10 11 11 11 12 13 12 13 14 14 14 14 15 15 16 17 18 19 20 21 22 23 24 24 25 26 27 28 29 29 30 30 31 31 31 31 31 31 31 31 31 31 31 31 31 31 31 31 31 30 30
8 9 10 10 11 12 12 12 13 13 13 14 14 14 15 16 16 17 18 19 20 21 22 23 23 24 25 26 27 28 28 30 30 30 31 31 31 32 32 32 32 32 31 31 32 32 32 31 31 31 30 30
6 7 8 9 10 10 11 11 11 12 12 13 14 14 15 16 16 17 18 19 19 20 22 22 23 23 24 25 26 27 28 29 30 30 30 31 31 32 32 33 33 33 32 32 32 33 32 32 31 30 30 29
4 5 6 8 8 9 9 10 10 11 11 12 13 13 14 14 15 16 17 18 18 20 21 22 22 23 24 25 26 27 27 27 28 29 29 30 31 32 32 32 33 33 33 32 32 33 32 32 31 30 29 27
3 3 4 5 6 7 7 8 8 9 10 10 11 12 12 13 14 15 16 17 18 19 20 21 22 22 23 24 25 26 26 26 27 27 27 28 28 30 31 31 32 32 33 33 33 33 32 32 31 30 28 26
3 2 1 2 3 4 5 5 6 6 7 9 10 11 12 13 14 14 15 16 17 18 19 20 21 21 22 22 24 24 25 25 26 27 28 28 28 29 30 31 33 33 33 33 33 33 32 32 31 31 28 26
5 4 3 2 1 1 2 2 3 4 5 6 8 9 11 12 13 13 14 15 16 17 18 19 20 20 20 21 22 22 23 24 25 27 28 29 30 30 31 32 34 35 35 34 34 34 33 32 31 30 27 25
8 7 6 5 4 3 2 1 0 1 2 4 5 7 8 9 11 12 13 14 15 16 17 18 18 18 19 19 20 21 22 23 24 25 26 28 29 30 31 32 34 34 35 36 36 35 33 31 30 29 26 23
11 10 9 8 7 6 6 5 4 3 2 2 3 4 6 7 9 10 11 12 13 15 15 16 17 17 17 17 18 19 20 21 23 24 25 25 27 29 30 31 33 33 34 36 36 35 32 31 29 27 24 20
13 12 11 10 9 9 9 9 8 6 6 5 4 4 4 6 7 8 9 10 11 12 13 14 15 15 15 16 17 18 18 20 20 21 23 23 24 26 27 30 31 32 34 35 35 33 31 31 28 25 22 18
16 14 13 13 12 12 13 13 11 10 10 8 7 6 5 5 6 7 7 8 9 10 12 13 13 14 14 15 15 16 17 17 18 19 20 21 22 23 25 28 28 31 32 34 34 30 30 30 26 24 20 14
19 17 17 16 16 16 16 16 15 14 13 11 10 9 8 7 7 6 7 7 8 9 10 11 12 13 13 14 14 15 16 16 16 17 18 19 20 21 22 24 26 29 31 34 30 26 29 27 24 23 15 11
22 21 21 20 19 20 20 19 17 16 15 14 14 12 11 10 9 8 7 7 8 8 9 10 11 12 12 13 13 14 14 15 15 16 16 17 18 20 21 22 24 26 31 33 27 26 26 22 23 19 9 9
25 25 24 23 23 23 21 20 19 18 17 17 17 15 14 14 12 11 10 9 9 9 9 9 10 11 11 12 12 13 13 14 14 14 15 15 16 18 19 21 21 24 29 27 26 28 23 19 20 13 7 8
28 27 26 25 25 23 22 20 20 20 19 18 18 18 18 17 15 14 13 12 11 11 10 10 10 10 10 11 11 11 11 12 13 13 13 13 15 15 17 18 18 21 22 18 20 21 16 16 15 8 5 5
31 29 28 27 26 25 23 22 22 22 22 21 21 21 22 21 19 18 16 14 14 13 12 11 11 11 10 10 10 10 10 11 11 12 12 12 14 14 15 16 15 17 17 16 19 14 7 8 9 6 1 6
33 31 29 29 28 27 26 26 25 25 26 26 25 26 25 24 22 20 18 17 16 15 15 14 13 12 12 11 11 10 10 10 10 10 11 11 11 12 14 14 12 13 14 14 14 8 3 3 5 4 2 17
34 32 31 30 28 28 28 28 29 29 31 32 30 30 27 24 23 21 20 19 18 18 17 17 16 15 14 12 12 12 11 11 10 9 9 9 10 10 12 12 11 12 13 12 10 5 4 3 2 3 7 18
35 34 33 32 30 29 28 28 31 33 35 35 32 29 25 23 22 21 21 21 20 21 20 20 19 17 16 15 14 13 12 12 11 10 9 9 10 9 10 11 11 13 13 12 11 10 8 7 8 8 9 9
36 35 35 35 34 33 31 31 34 36 36 34 31 29 27 26 24 23 22 23 23 23 23 22 22 21 19 18 16 16 15 14 13 12 11 10 10 10 9 10 12 14 14 11 12 12 11 13 15 15 12 5

ECMWFFLT2_925_spd_174.txt.gz
Wind_Speed
10 10 11 12 13 13 14 14 15 15 15 15 16 16 16 17 17 17 17 17 17 18 19 18 18 18 18 18 18 18 18 18 18 18 18 18 18 18 18 18 19 19 19 19 19 20 19 19 20 20 21 22
10 11 12 13 13 14 14 15 15 16 16 16 16 16 16 17 17 17 18 18 18 17 18 18 18 17 17 17 17 17 17 17 17 18 18 18 18 18 18 18 18 18 19 19 19 19 19 19 20 20 21 22
11 11 12 13 14 14 15 15 15 16 16 16 16 16 17 17 17 17 17 18 17 17 17 17 17 17 16 16 16 16 16 17 17 17 17 17 18 18 18 18 18 19 19 19 19 19 18 19 20 21 22 22
13 13 13 14 14 15 15 16 16 16 16 16 17 16 17 17 17 17 17 17 17 17 16 16 16 16 16 15 15 15 16 16 17 17 17 17 18 18 17 18 19 19 19 20 19 19 19 20 21 22 22 23
14 14 15 15 16 16 16 16 16 16 16 17 17 17 17 17 17 17 17 16 17 16 16 16 15 15 15 15 15 15 15 16 16 16 16 17 17 17 16 17 18 19 19 20 20 20 20 21 22 23 23 23
15 16 16 17 17 17 17 16 16 16 17 17 17 17 17 17 17 17 17 16 16 16 15 15 14 14 14 14 14 14 14 15 15 15 16 16 15 16 16 17 18 19 20 20 21 21 22 23 23 23 23 23
17 17 18 18 18 18 17 17 17 17 17 17 17 17 16 16 16 16 16 15 15 15 14 14 13 13 13 13 13 13 14 14 15 15 15 15 16 16 17 19 20 20 21 21 21 22 23 23 23 23 23 23
18 19 18 18 18 18 18 17 17 17 17 16 16 16 16 15 15 15 15 14 14 14 14 13 13 13 13 13 13 13 14 14 14 15 16 16 17 18 19 21 21 22 22 23 23 23 23 23 23 23 23 23
19 19 19 18 18 18 18 17 17 16 16 15 15 15 15 14 14 15 14 14 13 13 13 13 13 13 13 13 12 13 13 14 14 15 16 17 18 19 20 21 21 22 22 23 23 23 23 23 23 23 23 23
19 19 19 18 18 18 17 17 17 16 16 15 15 15 14 14 14 14 13 13 13 12 12 12 13 13 13 12 12 13 13 13 14 14 15 16 17 18 18 19 20 20 21 21 21 22 22 22 22 22 22 22
19 19 19 18 18 18 17 17 17 16 16 15 15 15 14 14 13 13 13 12 12 12 12 12 12 12 12 12 12 13 13 13 14 14 15 16 16 17 17 17 18 19 19 20 20 20 21 21 21 21 21 20
19 19 19 19 18 17 18 17 16 16 16 15 15 14 14 14 13 13 12 12 12 11 11 11 11 11 11 11 12 12 13 13 14 15 15 15 16 16 17 17 17 18 19 19 19 20 20 20 20 20 19 19
20 20 20 19 18 17 18 17 17 17 16 16 15 14 14 13 13 12 12 11 11 11 11 10 10 11 11 11 12 12 12 13 13 14 14 15 15 16 16 16 16 17 18 18 19 19 19 19 19 19 19 18
20 20 20 20 19 18 18 17 18 17 16 16 15 14 13 13 13 12 11 11 11 10 10 10 10 10 10 10 10 11 11 12 12 13 13 14 15 15 16 16 16 17 17 18 18 18 18 18 18 18 18 17
21 21 21 20 20 19 18 18 18 17 16 16 15 14 13 13 12 12 11 11 11 10 10 9 9 9 9 9 9 10 10 11 11 12 12 13 13 14 15 16 16 16 17 17 17 17 17 17 16 16 15 14
21 21 21 21 20 19 19 19 18 17 16 16 15 15 14 13 13 12 12 11 11 10 10 9 9 9 9 9 9 9 10 10 10 11 11 12 13 13 14 15 15 15 16 16 16 16 16 15 15 14 13 12
22 22 21 21 20 19 20 19 17 16 16 16 16 15 14 14 13 13 12 11 11 10 10 9 9 9 8 8 9 9 9 10 10 10 11 11 12 12 13 13 14 15 15 15 15 15 15 13 13 13 12 9
22 22 21 21 19 19 20 18 16 16 16 17 17 16 15 14 14 13 12 11 11 10 10 9 9 8 8 8 8 8 8 9 9 9 9 10 10 10 11 12 13 14 13 14 14 13 13 10 10 11 10 8
24 23 22 21 19 19 19 17 16 15 16 17 16 16 15 14 14 13 12 11 11 10 9 9 8 8 7 7 7 7 7 8 7 7 8 8 8 7 9 10 11 12 12 12 12 12 11 8 9 8 7 6
25 24 23 22 20 20 19 17 16 15 16 16 16 16 15 14 14 13 12 11 10 10 9 8 7 6 7 7 7 7 6 7 6 6 6 7 7 5 4 6 7 8 9 10 11 12 11 8 8 6 5 5
27 25 24 23 22 21 20 19 16 15 15 15 15 15 15 14 14 13 12 11 10 9 9 8 7 7 6 7 7 6 6 6 5 5 5 5 6 6 4 3 4 4 6 9 10 11 11 9 7 4 4 4
29 27 25 23 23 23 22 21 18 15 15 15 15 15 15 15 14 13 12 11 10 10 9 9 8 8 7 7 7 6 6 5 5 5 5 4 3 6 5 2 2 3 5 8 7 8 9 7 5 3 2 3
30 28 25 23 22 23 23 22 20 18 17 17 16 16 16 16 14 14 13 12 12 11 11 10 10 10 9 8 8 8 8 7 6 5 5 5 3 3 4 2 2 4 6 6 5 5 5 4 3 2 2 3
30 26 23 22 22 22 23 22 22 22 21 19 18 19 19 17 16 16 15 14 14 14 13 13 12 12 11 10 10 10 10 9 8 6 5 5 4 3 1 1 2 5 7 4 3 2 2 2 2 1 2 3
30 27 24 23 22 22 22 22 22 24 24 23 22 23 21 20 19 18 18 17 17 17 16 15 14 14 14 13 12 12 11 11 10 8 7 6 4 3 3 3 1 5 6 2 2 3 4 5 4 2 3 6
34 32 28 25 23 23 22 21 24 25 26 27 26 25 24 22 21 21 20 20 20 20 19 18 17 17 17 16 14 13 12 12 11 10 9 8 7 5 4 4 3 3 3 2 3 4 4 4 6 5 5 8
36 35 32 29 25 24 22 20 23 26 25 27 27 27 26 25 23 24 23 23 24 23 23 22 21 19 18 18 17 15 14 14 13 12 11 10 9 7 6 6 5 3 0 2 4 4 4 3 3 4 6 8
40 37 33 30 26 23 21 19 21 25 27 29 29 28 28 27 26 26 26 26 27 26 26 25 24 23 20 20 20 18 15 15 15 15 13 12 11 10 8 7 7 6 4 3 3 4 5 3 3 3 2 3
43 36 30 27 26 24 22 21 20 22 26 29 29 29 29 29 28 28 29 29 29 29 29 28 27 27 25 24 23 21 18 16 17 17 16 15 14 13 11 8 8 9 9 7 5 4 5 4 4 5 4 7
44 38 31 27 26 24 22 20 20 21 23 24 25 30 31 29 29 30 30 31 31 31 31 31 30 29 29 28 27 25 23 20 19 19 19 18 17 16 14 11 9 10 12 11 10 9 8 8 8 7 7 7
44 39 32 29 28 26 23 21 21 23 23 21 21 26 30 30 31 32 33 33 33 33 33 33 32 31 31 31 30 29 28 26 24 22 22 22 20 18 17 15 13 10 11 11 12 14 14 14 14 12 9 6

ECMWFFLT2_925_spd_180.txt.gz
Wind_Speed
13 13 13 13 13 13 13 13 14 14 14 14 14 14 14 13 14 14 13 13 13 13 13 13 13 12 12 12 12 12 11 11 11 11 11 11 11 12 12 12 12 13 13 14 14 15 15 16 16 16 16 17
14 14 13 13 14 14 14 14 15 15 15 14 15 15 14 13 14 13 13 13 12 12 13 13 13 12 12 11 11 11 11 11 11 11 11 11 11 11 11 12 12 12 13 13 13 14 15 16 16 16 15 16
16 15 14 14 15 15 14 15 17 16 15 15 15 15 14 13 13 13 13 12 12 13 13 13 13 12 11 11 11 11 11 10 10 11 11 11 11 12 12 12 12 13 13 13 14 14 15 16 16 15 15 16
17 16 16 16 17 17 16 17 18 18 17 15 15 15 14 13 12 13 14 14 14 14 13 13 13 12 11 10 10 10 10 10 11 11 11 11 12 12 13 13 14 14 14 14 15 15 15 16 16 16 15 16
19 19 18 19 18 17 18 18 17 17 16 15 15 14 14 13 13 14 15 14 14 14 14 13 12 12 11 10 10 10 10 11 11 11 11 11 12 12 13 14 15 15 15 15 16 16 16 16 16 16 16 16
21 21 20 19 18 18 17 17 17 17 16 15 15 15 15 15 15 15 15 15 14 14 14 13 13 12 11 11 10 10 10 11 11 11 12 12 12 12 13 14 14 15 16 16 17 16 16 16 16 14 15 17
21 21 20 19 18 18 18 18 18 18 17 17 18 18 15 14 16 17 17 16 15 14 13 13 12 12 11 11 11 11 11 11 12 12 12 12 12 12 13 13 13 14 15 15 16 16 16 17 16 12 11 15
20 20 20 19 20 20 20 21 21 21 20 21 21 18 15 15 18 18 17 16 15 14 13 13 13 12 12 12 12 12 13 12 13 13 12 13 12 12 13 13 13 13 13 13 14 14 15 16 16 14 9 10
21 21 20 21 22 22 23 23 23 23 23 23 22 18 16 18 19 17 17 17 16 15 14 14 14 13 13 12 13 13 13 13 12 12 13 13 13 13 13 13 12 13 12 12 13 13 13 13 13 14 11 6
22 22 22 23 23 24 24 24 24 24 24 24 23 20 18 18 18 18 18 18 16 15 15 14 13 13 13 13 12 12 12 12 11 11 12 13 13 13 13 13 13 13 13 12 13 13 13 12 11 13 12 6
23 23 22 23 24 24 25 25 24 24 24 24 24 21 19 20 20 19 19 17 15 15 14 12 11 12 12 12 11 10 11 12 11 10 11 12 12 12 13 13 13 13 13 13 13 13 13 13 11 12 13 8
24 24 22 23 24 24 25 25 24 23 23 24 24 21 20 21 20 18 18 17 16 15 13 12 12 12 12 12 12 11 12 12 11 11 12 12 10 10 11 12 12 11 12 12 12 13 13 12 12 12 13 11
25 24 23 24 25 24 24 25 24 23 22 24 24 22 21 20 17 16 16 17 17 15 14 14 14 13 13 13 13 13 12 12 12 12 12 11 11 9 9 10 10 10 10 10 10 11 12 11 10 11 12 12
26 25 24 25 26 24 24 25 24 23 23 24 24 24 24 20 16 15 16 17 16 15 16 17 15 14 14 14 14 14 13 13 12 12 13 12 11 9 9 10 9 8 9 10 9 10 11 8 8 9 10 11
26 26 26 26 27 25 25 25 23 24 24 24 24 25 25 22 18 15 16 17 16 16 17 17 16 15 15 15 14 14 14 14 14 14 14 12 11 10 9 11 10 7 5 7 8 9 10 8 7 7 9 10
27 26 27 26 27 27 26 25 24 25 24 23 23 24 25 24 20 16 16 17 16 16 17 17 15 14 15 15 15 15 15 15 15 14 13 13 13 12 10 10 12 9 6 6 6 7 8 7 7 7 7 8
27 26 27 26 27 27 26 26 25 25 24 23 23 23 25 25 22 18 17 18 17 16 16 15 15 14 14 15 16 16 16 16 15 14 13 14 14 13 11 10 11 9 7 7 6 6 7 5 6 8 7 6
27 26 26 26 27 26 26 27 26 25 24 24 22 23 25 24 23 20 19 20 20 17 16 16 16 16 15 16 17 17 17 16 15 14 14 14 13 12 10 9 10 8 7 7 5 6 7 4 4 7 8 6
28 27 26 27 26 25 26 27 25 25 24 23 23 23 24 24 24 21 18 20 22 19 17 18 17 17 17 18 18 18 17 15 13 14 14 12 11 11 10 11 12 10 9 9 7 6 6 5 5 5 7 8
27 26 26 27 26 24 26 27 25 25 24 23 23 23 24 26 25 22 19 20 22 20 17 17 18 17 18 19 19 19 18 15 13 15 14 12 12 12 12 12 11 10 9 9 8 8 8 7 6 5 5 6
27 26 25 26 26 24 26 27 25 25 24 23 23 22 23 26 26 24 22 21 22 20 17 16 16 17 18 20 20 18 18 17 14 15 15 16 15 12 12 12 11 10 9 8 7 7 8 8 8 8 7 5
27 26 25 25 26 24 25 26 25 25 24 23 23 21 21 25 26 25 24 23 23 21 19 17 16 17 19 20 20 17 19 18 13 15 16 16 16 14 12 11 11 11 9 8 7 7 7 7 8 9 10 8
27 25 24 24 25 24 24 26 25 24 24 23 23 22 21 23 25 26 25 24 24 23 20 19 17 18 19 21 21 18 19 17 14 16 16 14 15 16 15 11 10 10 10 9 7 8 9 8 7 9 11 12
28 26 25 25 26 25 24 26 25 24 24 23 24 23 22 23 24 26 26 25 26 24 21 20 19 18 19 21 21 19 19 18 16 18 17 15 14 15 15 14 11 11 11 9 7 8 10 9 10 11 13 15
31 29 28 27 27 27 25 26 26 24 24 23 24 24 23 24 24 25 26 26 26 25 23 21 20 19 19 21 21 20 19 18 15 17 18 16 14 14 14 14 14 13 11 8 8 9 11 13 14 14 15 17
33 32 31 29 28 27 25 26 27 26 25 24 24 24 25 25 25 25 25 26 26 26 25 22 20 20 20 21 21 20 19 17 15 15 17 16 15 14 14 14 13 13 11 7 9 9 7 10 14 17 18 18
32 31 29 28 26 25 25 25 27 27 26 25 24 25 26 26 26 26 26 26 26 26 26 24 21 20 20 21 21 21 19 19 18 16 16 17 16 13 13 14 13 13 13 10 8 6 3 4 6 9 15 19
30 28 27 25 24 23 23 23 24 25 25 25 25 25 26 27 27 26 26 26 26 26 26 26 23 21 20 21 22 22 21 20 20 19 19 19 18 15 12 13 14 14 16 15 10 4 2 3 2 3 8 16
28 26 26 24 22 22 21 21 23 25 25 26 27 27 27 27 27 27 27 27 27 28 27 27 25 23 21 21 21 22 23 22 22 21 21 21 21 19 16 14 13 13 17 19 16 10 5 2 2 3 3 6
28 27 27 27 25 24 23 22 25 27 27 27 28 28 28 28 28 28 28 29 29 29 29 28 28 26 24 23 22 23 23 23 22 22 23 22 22 22 21 19 16 14 16 18 21 20 16 10 6 4 3 1
28 27 27 28 28 27 26 24 24 25 26 27 27 27 27 28 28 29 29 29 30 30 30 30 30 30 29 27 26 25 25 25 25 24 24 24 23 23 23 23 23 21 18 17 19 23 23 22 18 15 10 5

ECMWFFLT2_925_spd_186.txt.gz
Wind_Speed
21 20 20 19 17 17 16 15 15 14 14 14 14 14 14 14 14 14 14 14 13 13 13 14 14 14 14 13 14 14 14 14 14 14 14 14 13 13 12 12 12 12 11 12 13 13 14 14 15 16 16 17
22 21 20 19 18 17 16 16 15 15 15 15 15 15 15 15 15 14 14 14 14 14 14 14 14 14 14 14 14 14 14 14 14 14 14 13 13 13 12 12 12 11 11 11 12 13 14 15 16 17 18 19
22 22 21 20 19 18 17 17 16 16 16 16 16 16 17 16 16 15 15 14 14 14 14 14 14 14 14 14 14 13 13 13 13 13 13 13 13 13 13 12 12 11 11 11 12 13 14 15 17 18 18 20
23 23 22 20 19 19 18 17 17 17 17 17 18 19 19 18 17 17 16 15 15 15 14 14 15 15 14 14 14 13 13 13 12 12 12 12 13 13 13 13 12 11 11 11 12 13 14 15 16 17 18 20
24 23 23 21 20 20 19 18 18 18 19 20 21 21 21 20 20 20 19 18 17 17 16 17 16 15 14 14 14 14 14 13 13 13 12 12 12 13 13 13 13 12 11 11 12 13 14 15 15 17 18 20
26 25 25 23 21 21 20 19 20 21 21 22 23 22 22 22 22 22 22 21 20 19 19 19 18 16 16 15 15 15 14 14 13 13 13 12 12 12 13 13 13 13 13 13 14 14 14 14 15 17 18 19
28 28 27 25 23 23 23 22 23 23 23 24 24 22 22 23 22 22 22 22 20 19 21 20 19 18 17 17 16 16 15 14 14 14 14 14 14 13 13 13 13 13 14 15 15 15 15 14 15 16 17 18
30 30 28 27 25 25 25 24 24 25 25 25 24 22 22 22 22 21 20 21 19 19 21 20 19 19 18 18 17 16 16 16 16 16 16 15 15 14 14 14 14 14 14 15 15 15 15 15 14 15 17 17
31 31 30 29 27 26 27 26 26 26 25 24 24 21 21 21 21 20 19 19 18 19 20 19 19 18 17 16 16 16 15 16 16 16 16 15 15 15 15 15 15 15 15 16 16 16 15 15 15 15 16 17
32 32 31 31 30 29 28 28 28 26 24 24 23 21 21 20 20 20 19 19 18 18 18 17 17 16 15 15 15 15 15 15 15 15 15 15 16 16 16 16 16 16 15 16 16 16 15 15 16 15 15 15
32 33 32 32 31 30 29 29 28 26 24 24 23 22 22 20 19 20 19 18 18 18 17 17 16 16 16 16 16 16 15 16 16 15 15 16 17 17 16 16 16 16 16 16 16 17 17 16 16 16 15 14
33 33 33 32 31 29 29 29 27 26 24 24 23 23 22 20 20 20 19 19 19 18 18 17 17 17 17 17 17 16 16 16 16 15 16 16 16 16 16 16 16 16 16 16 15 16 17 17 16 16 16 15
33 34 33 33 31 29 29 28 27 26 25 25 25 25 24 22 21 21 20 20 20 19 19 19 18 18 18 18 17 17 17 17 16 16 15 16 16 16 15 15 16 16 16 15 15 15 15 16 16 16 16 16
33 33 33 33 31 29 29 29 27 26 26 26 27 27 26 24 23 22 21 21 21 21 21 20 20 19 19 19 18 18 18 17 17 16 16 16 16 16 16 15 15 16 16 16 15 15 14 14 16 16 16 16
33 32 32 31 30 29 30 29 28 27 27 28 29 29 27 25 24 22 22 22 22 23 22 22 21 20 20 20 19 19 18 18 17 16 16 16 16 16 16 16 15 16 16 17 16 16 15 14 14 15 16 16
33 32 31 31 30 30 30 30 28 28 28 29 29 29 27 26 25 23 22 23 24 24 23 23 22 21 22 21 20 19 19 19 18 17 17 17 16 16 16 15 15 14 15 16 16 16 16 15 15 15 16 16
33 33 32 31 31 30 30 30 29 30 30 29 30 29 28 27 25 23 23 24 25 25 24 24 23 22 22 22 21 20 19 19 19 18 19 18 17 16 16 16 14 13 14 15 16 16 16 16 16 15 15 16
33 33 32 32 31 30 30 30 30 30 30 30 30 30 29 28 26 24 24 26 26 25 25 24 24 24 23 22 21 21 20 20 20 20 20 19 18 17 17 17 15 14 14 14 16 16 15 16 17 16 15 15
34 33 33 32 32 31 30 30 29 30 31 31 30 30 30 30 28 26 25 26 27 26 25 25 25 24 23 22 22 22 21 21 21 20 20 20 19 18 18 18 17 15 15 14 15 15 15 14 15 17 17 15
34 33 32 32 32 31 31 30 30 30 31 31 30 30 30 30 29 27 27 27 27 26 26 26 26 25 23 23 22 22 22 22 22 21 21 21 20 19 19 19 18 17 16 15 15 14 14 14 13 15 17 17
32 32 32 31 31 31 30 30 30 30 30 31 30 30 30 30 30 29 28 28 28 27 27 27 26 25 24 23 23 23 23 22 23 22 22 22 22 21 19 19 20 19 16 16 15 14 14 13 13 13 15 17
31 30 30 29 30 30 30 30 30 30 30 30 30 30 30 30 30 30 30 30 29 28 27 26 26 24 23 24 24 23 23 23 23 23 22 23 23 22 21 20 21 20 18 16 15 14 14 14 14 13 14 15
28 27 27 27 27 28 29 29 29 30 30 30 30 30 30 30 29 30 31 31 29 28 27 26 25 24 24 25 24 24 23 23 23 24 23 23 22 22 21 20 19 19 17 16 16 16 15 15 16 15 14 15
26 25 25 26 26 27 29 29 30 30 30 30 30 30 30 30 30 30 32 32 30 28 27 26 25 25 25 25 25 25 24 25 25 25 24 23 22 21 21 20 18 18 17 16 16 16 17 17 17 17 17 17
27 26 26 26 27 29 30 30 30 30 31 31 31 30 30 30 30 30 31 32 31 30 28 27 26 26 26 26 26 27 26 26 25 26 25 23 22 21 21 20 19 18 17 15 14 15 17 19 19 19 20 21
28 29 28 28 29 30 30 30 30 31 31 30 30 29 29 30 30 30 29 30 31 31 30 29 29 28 28 28 28 28 27 26 25 26 26 24 23 23 23 22 20 19 18 15 14 11 8 12 18 21 23 24
28 28 28 27 27 27 27 27 28 29 28 28 29 29 29 30 30 30 29 29 30 31 31 31 30 30 30 29 29 28 28 26 27 28 28 27 26 25 23 23 22 22 22 18 13 7 3 5 7 12 19 24
26 25 24 24 22 22 22 22 23 24 25 26 27 28 29 30 30 30 29 29 28 29 31 31 30 30 30 30 29 29 29 28 28 29 30 29 27 26 24 24 25 24 24 22 15 7 2 1 1 4 8 15
24 23 21 20 18 16 17 18 18 20 24 26 27 28 30 30 30 30 29 29 29 29 30 31 31 30 30 30 30 30 30 30 30 30 31 30 30 29 28 27 26 25 25 26 23 15 5 1 1 4 3 4
23 23 22 20 19 17 17 18 19 22 26 28 28 29 30 29 29 29 29 29 29 29 29 30 31 31 31 31 31 31 31 30 30 30 31 32 33 32 31 29 26 24 25 26 28 27 18 9 5 3 1 1
16 19 20 21 22 23 22 22 24 26 28 28 28 28 28 28 28 29 29 29 29 29 29 30 31 32 32 32 32 32 32 32 32 32 32 33 34 34 33 30 27 27 26 25 27 31 30 25 18 12 6 4

ECMWFFLT2_925_spd_192.txt.gz
Wind_Speed
16 15 15 14 13 11 10 9 8 7 7 7 7 7 7 7 8 7 7 6 6 5 5 5 5 6 5 5 5 4 4 4 4 4 5 6 6 5 5 4 3 4 7 8 8 9 9 9 9 10 9 10
15 16 15 15 14 12 11 9 8 8 7 8 8 8 8 9 9 8 7 7 6 6 6 6 6 6 6 6 5 5 4 4 5 5 5 6 6 5 4 4 3 4 7 8 9 9 9 9 9 9 9 8
16 17 16 16 15 14 12 10 10 9 8 9 10 10 9 9 11 10 9 9 8 8 8 9 8 7 7 6 6 5 5 5 5 5 5 5 5 4 3 3 3 4 7 8 9 9 9 9 8 8 8 8
17 18 17 17 17 16 14 12 12 11 9 9 11 11 9 9 11 11 10 11 10 10 10 11 10 9 7 6 6 6 5 5 5 5 5 5 4 4 4 3 3 4 6 8 9 9 9 9 8 8 8 9
18 18 17 17 16 16 16 14 14 13 10 10 11 11 10 10 12 12 11 12 12 11 11 11 11 10 8 7 7 6 6 5 5 6 6 5 5 6 5 4 4 4 5 7 8 9 9 9 9 9 9 11
19 19 18 17 16 16 17 16 16 15 12 12 12 12 12 12 13 13 12 13 12 11 12 12 12 11 9 7 7 6 6 6 6 7 7 7 7 6 5 4 4 4 4 6 8 9 9 9 9 10 11 12
20 20 19 18 17 17 18 17 17 16 14 14 14 14 14 13 13 14 13 13 13 12 12 12 13 12 10 9 9 8 8 8 7 8 9 8 7 6 6 4 3 3 4 6 8 9 10 10 10 11 12 13
21 21 20 19 18 18 18 18 17 17 16 16 15 15 15 14 14 14 14 13 13 13 13 12 13 13 11 11 11 11 11 9 9 9 8 7 6 7 6 5 3 3 4 6 8 10 11 11 11 12 13 14
22 22 21 20 19 18 19 19 18 18 18 17 16 15 15 15 15 15 14 14 13 13 12 12 14 13 12 13 13 12 11 10 9 8 7 6 6 7 6 5 4 3 4 6 8 10 11 11 12 13 13 14
23 23 22 21 20 20 19 20 19 19 20 19 17 15 14 15 15 15 15 15 14 14 13 13 14 14 14 14 13 12 12 11 10 9 8 6 6 7 7 6 5 4 4 5 7 9 10 11 12 13 14 14
24 23 23 22 22 22 21 21 20 20 20 20 19 17 16 15 15 16 15 15 15 15 14 14 16 16 15 15 14 12 12 11 10 10 9 7 7 7 7 7 6 5 5 6 6 8 9 10 12 13 14 15
24 23 23 23 23 23 22 21 21 20 20 20 19 18 18 17 16 16 16 16 16 16 16 15 17 18 17 16 14 13 12 11 10 10 9 8 8 8 8 7 7 6 6 7 7 8 8 9 11 13 14 15
24 24 23 23 23 22 22 21 20 20 19 19 19 19 19 17 16 16 16 16 16 17 17 16 17 19 18 16 14 13 12 12 11 10 10 10 9 9 9 8 8 8 8 8 8 8 8 9 10 12 13 14
25 24 24 23 22 22 21 21 20 19 19 19 19 19 18 18 17 16 16 16 16 17 18 17 18 19 18 15 14 13 12 12 11 10 10 10 10 10 10 10 10 10 9 9 9 10 9 9 10 11 13 13
26 25 24 23 22 21 20 20 20 19 19 19 19 19 19 18 18 16 16 16 16 17 18 18 18 18 17 15 14 13 12 12 11 11 10 10 10 10 11 11 11 11 12 12 11 11 10 11 11 11 12 13
25 25 24 23 22 21 20 20 19 19 19 19 19 19 19 19 18 17 17 17 16 16 16 17 17 17 16 15 14 13 13 12 12 11 11 11 11 11 11 12 12 13 13 13 13 13 12 12 12 12 12 13
25 25 24 23 22 21 20 19 19 19 19 19 19 19 19 19 18 18 17 17 17 15 14 15 16 16 16 15 14 14 14 14 13 13 12 12 11 11 12 12 12 13 13 14 14 14 13 13 13 13 14 14
24 24 23 23 22 21 21 20 19 19 19 19 19 19 19 19 19 19 18 18 17 16 14 14 15 16 16 15 15 15 15 15 14 14 13 13 13 13 13 13 13 13 13 13 14 14 15 14 14 14 15 15
23 23 23 22 22 21 21 20 20 19 18 18 18 18 19 19 20 19 18 18 18 17 15 14 14 15 16 16 16 16 16 16 15 15 14 14 14 14 14 14 14 14 14 14 14 14 15 15 15 15 15 16
21 21 21 21 21 21 20 20 19 19 18 18 18 18 18 19 19 18 18 18 18 18 16 15 14 15 16 17 17 17 17 17 17 16 15 15 15 15 15 15 15 15 16 16 15 15 15 15 16 17 17 17
20 20 20 20 20 20 19 19 19 18 18 18 18 18 18 18 17 17 17 17 17 17 17 16 15 15 17 18 18 18 18 17 17 17 16 16 16 16 16 16 17 17 17 17 17 17 16 16 17 18 18 18
17 18 18 18 18 18 18 18 18 18 18 18 17 17 17 16 16 15 15 16 17 17 17 16 15 16 17 18 18 18 19 18 18 18 17 17 17 17 17 17 18 18 18 18 18 18 19 18 18 19 18 18
15 16 16 17 16 17 17 17 17 17 17 16 16 16 15 15 15 14 15 15 16 17 17 17 17 17 17 18 18 18 19 19 19 18 18 18 18 18 18 18 18 18 18 18 18 18 20 20 20 20 19 19
12 13 13 14 14 15 15 15 15 15 15 15 15 15 14 15 14 14 14 14 15 16 17 17 18 18 18 18 18 18 18 19 19 18 18 18 18 19 18 19 19 19 19 18 18 19 21 21 21 21 21 21
8 8 8 9 10 12 13 13 13 13 13 13 13 13 13 14 14 13 13 14 15 15 16 17 17 18 18 18 18 18 18 18 18 18 18 19 19 19 19 19 19 19 18 16 16 18 19 21 22 23 23 24
6 5 5 4 4 6 8 9 10 10 10 10 11 11 12 12 12 12 12 13 14 15 15 16 17 17 18 18 18 18 18 18 18 18 19 19 19 19 19 19 19 18 16 12 12 11 11 13 17 21 23 26
3 2 3 2 3 4 4 5 5 5 6 8 8 8 9 9 10 10 10 11 12 13 14 14 15 16 16 16 17 18 18 19 19 19 19 19 20 19 18 18 18 18 16 13 9 5 4 5 6 9 14 20
4 2 1 1 4 6 6 8 7 6 7 9 8 6 7 7 7 7 8 8 9 10 11 12 13 14 15 15 16 17 18 19 20 20 20 20 20 20 19 19 19 18 17 16 11 4 2 1 2 4 6 10
8 6 6 6 7 8 9 10 10 10 13 14 11 10 10 9 8 6 5 5 6 7 8 10 11 12 13 14 14 15 16 18 19 19 20 20 20 21 20 21 21 18 16 17 17 12 6 2 1 3 3 5
13 13 13 12 14 15 17 19 19 19 19 18 17 15 14 13 11 10 8 7 6 5 6 7 8 10 11 12 12 13 14 15 17 18 19 19 20 20 21 21 20 20 19 18 19 20 18 15 11 7 4 4
21 22 22 22 24 25 25 25 23 21 21 21 19 18 17 16 16 15 13 12 11 9 8 7 7 7 8 9 10 11 12 13 14 15 16 17 18 19 19 20 20 22 23 20 19 21 23 25 24 19 11 5

ECMWFFLT2_925_spd_198.txt.gz
Wind_Speed
15 14 14 13 14 14 14 13 12 12 10 9 8 5 6 8 8 8 9 9 9 8 7 5 5 6 7 6 6 8 7 6 6 6 6 6 5 5 5 4 4 6 7 5 5 5 5 6 6 6 6 6
15 15 14 14 15 15 15 14 13 12 10 9 9 6 6 6 6 7 7 7 8 8 7 6 4 5 7 6 7 7 6 6 6 6 6 5 5 5 5 3 4 6 6 5 5 5 6 6 5 6 6 5
16 16 15 15 15 15 15 14 13 12 11 10 10 8 6 5 5 6 5 4 6 6 7 6 5 5 6 7 7 6 6 6 6 6 6 5 5 5 4 3 4 5 6 5 5 5 5 5 5 5 4 4
16 16 16 15 14 13 13 13 12 10 10 9 9 7 6 5 4 5 4 3 3 4 5 5 6 6 6 6 6 5 5 6 6 6 6 5 4 3 3 4 3 3 5 5 6 5 5 5 4 4 3 4
16 15 14 14 13 11 11 11 10 8 8 9 7 6 5 5 4 4 4 3 3 3 3 4 7 6 5 5 5 5 5 5 5 5 5 4 3 2 4 6 4 1 3 5 6 6 6 4 3 3 3 2
15 14 14 14 14 12 12 12 10 7 6 8 7 6 6 5 5 5 5 5 4 4 3 3 5 5 4 4 4 4 5 6 5 6 5 3 3 5 5 6 4 1 2 4 5 6 6 3 2 3 3 2
16 16 15 15 15 14 13 13 11 8 6 8 9 9 9 7 6 6 6 5 5 5 5 4 4 4 4 5 6 5 5 5 6 4 2 4 6 6 5 5 4 1 1 3 4 4 4 3 3 4 3 3
18 18 17 16 16 15 14 13 11 9 8 8 9 8 9 9 8 7 6 5 5 5 6 6 6 5 5 5 6 6 5 5 5 3 5 7 7 7 5 5 4 2 1 2 2 3 3 3 5 5 5 4
18 18 17 16 16 15 14 14 13 12 10 8 8 8 8 9 9 7 7 7 7 6 6 7 7 6 7 6 6 6 5 5 6 6 8 8 7 7 5 4 4 3 1 2 2 3 3 4 4 5 6 7
18 17 17 16 16 15 15 14 13 12 10 8 7 7 7 7 7 7 7 8 7 7 7 7 6 6 7 7 7 6 5 7 7 7 7 8 8 6 5 5 4 3 1 2 3 4 5 5 5 5 6 8
17 17 17 16 15 15 15 14 12 11 8 8 7 7 6 5 6 7 7 7 6 6 6 6 5 5 7 8 8 7 6 8 9 8 8 8 8 6 6 5 4 3 1 2 3 4 6 6 6 6 7 9
17 17 16 15 15 15 15 13 12 10 8 7 7 6 5 5 5 6 6 6 5 5 5 5 5 5 6 8 10 10 9 9 9 8 9 8 7 6 6 5 4 3 2 2 3 4 6 7 7 8 9 10
16 16 15 15 15 15 14 13 11 9 8 7 7 6 5 5 5 5 5 5 5 5 5 5 6 6 7 8 10 10 9 9 8 8 9 7 6 6 6 5 5 4 3 2 3 4 5 6 7 9 10 11
16 15 15 15 15 14 13 12 11 9 8 7 7 6 5 5 5 5 6 6 6 6 6 6 6 7 8 8 9 8 7 10 9 7 7 6 5 5 5 4 5 5 4 4 4 4 5 6 7 8 10 12
16 15 15 15 15 14 13 12 10 9 9 7 6 6 5 5 5 5 6 6 6 6 6 7 6 7 7 7 9 8 7 11 10 7 6 5 4 5 4 4 6 5 4 5 5 5 6 6 7 8 9 11
16 16 15 15 14 13 12 11 10 9 8 7 6 5 5 5 5 5 5 6 6 6 6 7 6 7 6 5 7 9 8 10 10 8 7 7 6 6 6 6 8 7 6 6 6 7 7 7 7 9 10 11
16 15 15 14 14 13 11 10 9 8 6 5 5 4 3 3 4 4 5 5 6 6 7 7 7 6 5 4 6 8 8 9 8 7 6 6 7 7 7 7 8 9 8 7 8 9 8 8 8 8 10 10
15 15 14 14 12 11 10 9 7 6 5 4 3 3 2 2 3 3 4 5 7 7 7 7 6 4 4 4 5 6 6 6 5 5 5 5 6 6 7 7 7 8 7 7 8 8 9 9 8 8 10 9
14 13 13 12 11 10 9 7 6 5 4 3 2 1 0 1 2 3 4 5 6 6 6 6 5 4 3 4 4 4 5 5 4 4 4 4 5 6 7 7 7 8 8 7 8 7 8 8 8 10 10 10
12 11 11 10 9 9 8 7 6 5 4 3 2 1 1 1 2 2 3 3 4 4 4 4 4 4 4 4 3 3 5 4 4 4 4 5 6 6 7 7 8 8 8 8 8 8 9 10 10 11 10 11
10 10 10 9 9 8 8 8 7 6 5 5 5 4 4 3 3 3 4 4 4 4 4 3 3 4 4 4 3 3 4 4 4 4 5 6 7 7 7 8 8 9 8 9 9 9 11 11 11 11 10 11
8 8 9 9 10 9 9 9 10 9 8 9 8 8 8 7 7 6 6 6 5 5 5 4 4 4 5 5 4 3 4 4 6 6 6 6 7 8 8 7 8 9 9 10 11 11 12 11 11 12 12 12
8 9 10 12 12 13 13 13 12 11 11 11 10 10 9 8 7 7 6 6 6 6 6 5 5 4 5 6 5 5 4 4 5 6 6 6 6 8 9 9 9 10 10 11 12 13 13 13 13 13 13 14
10 11 13 14 16 16 17 17 16 15 15 15 14 13 11 10 9 8 7 6 6 5 6 6 6 5 5 5 5 6 5 4 5 6 7 6 7 8 9 10 9 10 10 10 11 12 13 12 12 13 14 15
11 12 14 16 17 18 19 19 20 21 20 19 18 16 15 14 13 11 10 9 8 6 6 7 7 6 5 4 5 5 5 5 6 6 7 7 7 7 8 7 7 9 10 9 9 9 10 10 11 13 14 15
15 15 16 19 20 22 22 22 24 25 24 23 21 20 19 18 17 15 14 13 11 10 9 9 8 8 7 5 5 5 5 5 5 5 6 6 6 5 6 7 7 10 9 7 8 8 9 11 10 10 11 13
21 21 22 23 24 25 25 25 26 27 27 26 25 24 23 22 20 19 18 17 16 14 13 12 11 11 10 8 7 7 6 6 6 6 6 6 6 5 6 6 7 9 6 5 9 8 7 6 5 6 7 8
24 26 27 28 27 27 27 25 25 27 27 27 27 27 26 25 23 22 21 21 20 19 17 16 15 14 13 11 10 10 9 9 9 9 8 7 7 7 7 6 6 8 8 6 6 6 5 5 4 5 4 5
21 21 22 23 23 23 24 22 22 23 23 24 26 27 27 27 25 24 24 23 22 22 21 20 18 17 16 15 14 13 13 13 13 12 10 9 9 8 8 7 7 8 9 8 6 5 6 5 4 4 5 9
23 22 20 19 18 17 19 20 20 20 19 19 21 23 25 27 26 25 25 24 24 23 23 22 21 20 19 18 17 17 16 15 15 15 14 13 11 10 9 8 8 8 8 8 8 8 8 8 7 7 8 9
28 27 26 25 23 20 19 20 18 17 17 17 19 20 22 24 26 26 26 25 25 24 24 23 22 22 21 20 20 19 18 17 17 17 16 15 13 12 11 10 8 9 9 8 7 7 7 11 12 12 11 7